     2.10           OBSERVATION DATA    G (GPS)             RINEX VERSION / TYPE
teqc 2002Mar14 SOPAC 20050725 21:29:44UTC                   PGM / RUN BY / DATE
Linux 2.0.36|Pentium II|gcc -static|Linux|486/DX+           COMMENT
BIT 2 OF LLI FLAGS DATA COLLECTED UNDER A/S CONDITION       COMMENT
941 6841 J TIDAL                                            MARKER NAME
6841                                                        MARKER NUMBER
Mike Paquin                                                 OBSERVER / AGENCY
0220308791 TRIMBLE 5700                                     REC # / TYPE / VERS
12469278 TRM41249.00 NONE                                   ANT # / TYPE
 -2757467.0000 -4134340.0000  3984595.0000                  APPROX POSITION XYZ
        2.0000        0.0000        0.0000                  ANTENNA: DELTA H/E/N
     1     1                                                WAVELENGTH FACT L1/2
     6    L1    L2    C1    P2    P1    D1                  # / TYPES OF OBSERV
    15.0000                                                 INTERVAL
Northern California Height Modernization 2004               COMMENT
                                                            COMMENT
SOPAC - Scripps Orbit and Permanent Array Center            COMMENT
IGPP - Institute of Geophysics and Planetary Physics        COMMENT
SIO - Scripps Institution of Oceanography                   COMMENT
UCSD - University of California, San Diego                  COMMENT
                                                            COMMENT
email: archive@gpsmail.ucsd.edu                             COMMENT
ftp://garner.ucsd.edu                                       COMMENT
http://sopac.ucsd.edu                                       COMMENT
                                                            COMMENT
                                                            COMMENT
Approximate Lat, Lon : 38.911, -123.702                     COMMENT
                                                            COMMENT
SNR is mapped to RINEX snr flag value [1-9]                 COMMENT
L1: 3 -> 1; 8 -> 5; 40 -> 9                                 COMMENT
L2: 1 -> 1; 5 -> 5; 60 -> 9                                 COMMENT
  2004     9    14    20    35    0.0000000     GPS         TIME OF FIRST OBS
                                                            END OF HEADER
 04  9 14 20 35  0.0000000  0  4G 3G 8G13G23
     -3453.26218                  23299667.648
    -35438.09859
    -22391.73457                  22910337.3054   22910338.0004
     13365.98459
      2881.67658                  20256265.1024   20256263.1524

     66868.60959     29571.22757  21345418.5084   21345415.2274

 04  9 14 20 35 15.0000000  0  5G 3G 8G13G23G27
     -7987.824 9                  23298805.930
       302.304
    -59717.52349    -41310.75047  22905716.5164   22905716.2854
      1618.6284
     21855.43049      9496.81348  20257880.8524   20257878.9304
      -565.9634
    111173.42649     64094.42247  21353850.2504   21353846.1294
     -2953.6544
    -13098.86359    -12594.62557  21512162.3054   21512161.1214

 04  9 14 20 35 30.0000000  0  5G 3G 8G13G23G27
    -12561.055 9                  23297935.156
       304.882
    -84110.71149    -60318.39547  22901075.2814   22901074.7034
      1626.2134
     30289.42649     16068.76248  20259485.5234   20259483.8204
      -562.2664
    155411.10249     98565.32047  21362267.9454   21362264.8954
     -2949.1784
    -18811.87949    -17046.31247  21511075.6644   21511073.8794
       380.8684
 04  9 14 20 35 45.0000000  0  5G 3G 8G13G23G27
    -17043.00849    -17148.76256  23297082.6564   23297083.3014
       298.7974
   -108487.96949    -79313.64847  22896436.4614   22896436.8364
      1625.1514
     38797.82849     22698.67648  20261104.8594   20261102.5744
      -567.2274
    199711.23449    133084.89147  21370697.8284   21370694.7384
     -2953.3424
    -24506.73849    -21483.87947  21509991.6644   21509990.1914
       379.6574
 04  9 14 20 36  0.0000000  0  5G 3G 8G13G23G27
    -21386.05549    -20532.91446  23296256.3444   23296256.5434
       289.5364
   -132802.02349    -98259.65247  22891809.4224   22891808.8594
      1620.9374
     47428.15249     29423.59448  20262747.0004   20262744.8364
      -575.3554
    244121.01649    167689.87547  21379148.4694   21379144.9614
     -2960.6524
    -30136.25849    -25870.50047  21508920.4064   21508919.2384
       375.3014
 04  9 14 20 36 15.0000000  0  5G 3G 8G13G23G27
    -25573.80949    -23796.09046  23295459.6174   23295458.5664
       279.1844
   -157036.80549   -117143.90647  22887197.2034   22887196.9414
      1615.6524
     56196.76249     36256.27348  20264415.5784   20264413.0514
      -584.5744
    288656.69549    202392.96547  21387623.7734   21387619.8324
     -2969.0454
    -35684.27049    -30193.64548  21507864.8284   21507863.3714
       369.8674
 04  9 14 20 36 30.0000000  0  5G 3G 8G13G23G27
    -29600.53549    -26933.75846  23294692.4454   23294692.0744
       268.4484
   -181186.64149   -135961.94147  22882602.8914   22882600.3714
      1609.9894
     65109.32049     43201.11748  20266112.0004   20266109.0124
      -594.1714
    333323.69149    237198.41047  21396122.6254   21396120.0354
     -2977.8004
    -41145.40249    -34449.07047  21506825.8984   21506823.9574
       364.0764
 04  9 14 20 36 45.0000000  0  5G 3G 8G13G23G27
    -33464.41849    -29944.58646  23293957.5474   23293957.5354
       257.5924
   -205249.96149   -154712.53947  22878023.0314   22878023.2234
      1604.2214
     74167.28549     50259.27348  20267835.2974   20267832.7424
      -603.8644
    378123.32049    272107.20347  21404648.4844   21404645.1524
     -2986.6424
    -46518.22349    -38635.66448  21505802.9454   21505801.4024
       358.1884
 04  9 14 20 37  0.0000000  0  5G 3G 8G13G23G27
    -37166.50449    -32829.25446  23293253.5164   23293252.6764
       246.8064
   -229227.91849   -173396.64547  22873460.4454   22873460.0124
      1598.5304
     83369.87149     57430.10248  20269586.1804   20269584.4534
      -613.5064
    423054.50849    307118.49247  21413198.7584   21413195.0744
     -2995.4124
    -51803.70749    -42754.20747  21504796.9454   21504795.4844
       352.3664
 04  9 14 20 37 15.0000000  0  5G 3G 8G13G23G27
    -40708.14849    -35588.96146  23292579.5234   23292578.9534
       236.1104
   -253122.32849   -192015.62947  22868912.7274   22868911.7704
      1592.9614
     92715.44549     64712.35548  20271365.0864   20271363.1724
      -623.0384
    468115.35249    342230.81347  21421773.0634   21421770.4494
     -3004.0564
    -57003.71149    -46806.15647  21503807.1174   21503806.5044
       346.6674
 04  9 14 20 37 30.0000000  0  5G 3G 8G13G23G27
    -44086.94149    -38221.68746  23291936.1644   23291935.8634
       225.2534
   -276930.83649   -210567.70747  22864383.2034   22864382.7114
      1587.2344
    102206.25849     72107.79748  20273170.9384   20273168.8834
      -632.7214
    513308.07449    377445.90647  21430373.5164   21430370.3404
     -3012.8484
    -62116.19549    -50789.93447  21502834.4694   21502833.4844
       340.8324
 04  9 14 20 37 45.0000000  0  5G 3G 8G13G23G27
    -47304.97349    -40729.27346  23291323.0084   23291323.0084
       214.5354
   -300655.78549   -229054.66047  22859867.5634   22859867.0744
      1581.6634
    111840.13749     79614.71148  20275004.0474   20275001.9024
      -642.2594
    558630.16849    412761.80547  21438997.9064   21438994.3554
     -3021.4734
    -67143.45749    -54707.27047  21501877.9614   21501876.2704
       335.1514
 04  9 14 20 38  0.0000000  0  5G 3G 8G13G23G27
    -50364.49649    -43113.28146  23290741.7114   23290741.5164
       203.9684
   -324299.60249   -247478.41047  22855369.2034   22855367.6134
      1576.2544
    121614.89149     87231.39148  20276863.8204   20276862.5744
      -651.6504
    604079.17249    448176.58247  21447647.0164   21447643.0044
     -3029.9344
    -72087.96549    -58560.13347  21500937.0864   21500935.6414
       329.6344
 04  9 14 20 38 15.0000000  0  5G 3G 8G13G23G27
    -53268.16849    -45375.84046  23290187.7974   23290187.8754
       193.5784
   -347865.16449   -265841.15247  22850884.3134   22850883.2624
      1571.0374
    131527.55149     94955.54348  20278750.1954   20278748.9884
      -660.8444
    649652.10549    483687.93847  21456319.0394   21456315.2034
     -3038.1964
    -76952.75849    -62350.88748  21500012.0554   21500010.6374
       324.3204
 04  9 14 20 38 30.0000000  0  5G 3G 8G13G23G27
    -56015.20749    -47516.34846  23289665.7274   23289665.4654
       183.1364
   -371351.96549   -284142.53547  22846413.9384   22846413.3914
      1565.7874
    141578.97349    102787.82048  20280663.2814   20280661.0744
      -670.0954
    695349.33649    519296.13747  21465014.6254   21465010.2814
     -3046.4824
    -81737.19549    -66079.02748  21499101.4064   21499099.8324
       318.9624
 04  9 14 20 38 45.0000000  0  6G 3G 8G13G19G23G27
    -58608.33249    -49536.91846  23289172.4774   23289171.7344
       172.8754
   -394762.98849   -302384.85547  22841960.1804   22841959.2704
      1560.7354
    151766.22749    110725.94148  20282601.7194   20282599.6684
      -679.1504
    -63453.83659    -45383.46556  24212014.7194   24212013.7274

    741167.99649    554998.97747  21473734.2034   21473729.4454
     -3054.5774
    -86444.34849    -69746.91447  21498204.9774   21498203.8524
       313.8104
 04  9 14 20 39  0.0000000  0  6G 3G 8G13G19G23G27
    -61050.65649    -51440.01246  23288707.3594   23288707.4144
       162.8224
   -418101.59449   -320570.77747  22837518.8134   22837518.0784
      1555.9074
    162086.08649    118767.36748  20284565.6884   20284563.2664
      -687.9914
    -88378.69549    -64805.42646  24207272.5474   24207271.2664
      1661.6574
    787104.57049    590793.70347  21482475.1954   21482470.7774
     -3062.4384
    -91077.60549    -73357.24647  21497323.8284   21497321.4264
       308.8844
 04  9 14 20 39 15.0000000  0  6G 3G 8G13G19G23G27
    -63343.69549    -53226.77746  23288271.4304   23288270.7934
       152.8694
   -441369.28149   -338701.42647  22833090.0314   22833090.4734
      1551.1794
    172537.08249    126910.98848  20286554.4774   20286552.5044
      -696.7334
   -113236.15249    -84174.79346  24202541.1174   24202542.5164
      1657.1644
    833157.27749    626678.92647  21491238.8444   21491234.9844
     -3070.1804
    -95638.78149    -76911.40647  21496455.6644   21496454.5234
       304.0784
 04  9 14 20 39 30.0000000  0  6G 3G 8G13G19G23G27
    -65486.09449    -54896.16846  23287863.1094   23287863.5274
       142.8274
   -464565.06649   -356776.04347  22828676.0474   22828677.1764
      1546.3864
    183120.34049    135157.68048  20288568.7344   20288566.5314
      -705.5514
   -138024.55949   -103490.38347  24197825.2584   24197824.2274
      1652.5604
    879327.18049    662655.43047  21500025.1094   21500021.0864
     -3077.9934
   -100126.75049    -80408.52347  21495601.6644   21495600.1954
       299.1984
 04  9 14 20 39 45.0000000  0  6G 3G 8G13G19G23G27
    -67479.59049    -56449.50046  23287485.3524   23287485.2194
       132.9004
   -487690.98449   -374796.21147  22824275.4454   22824276.9024
      1541.7284
    193833.85949    143505.87948  20290606.9614   20290604.7504
      -714.2354
   -162745.81249   -122753.64147  24193120.2894   24193120.5394
      1648.0844
    925612.09849    698721.57447  21508832.8204   21508828.3984
     -3085.6614
   -104543.56249    -83850.18748  21494761.2274   21494759.6454
       294.4544
 04  9 14 20 40  0.0000000  0  6G 3G 8G13G19G23G27
    -69323.97349    -57886.69146  23287132.9064   23287132.7384
       122.9594
   -510746.85249   -392761.80947  22819888.2894   22819888.1334
      1537.0584
    204677.95349    151955.80148  20292670.7034   20292668.1334
      -722.9404
   -187399.25449   -141964.05147  24188429.2424   24188428.8954
      1643.5634
    972011.98849    734877.32447  21517661.2974   21517658.7854
     -3093.3264
   -108889.30949    -87236.49647  21493934.1564   21493932.5004
       289.7164
 04  9 14 20 40 15.0000000  0  6G 3G 8G13G19G23G27
    -71018.86748    -59207.30946  23286809.0004   23286809.7384
       112.9934
   -533732.44549   -410672.66047  22815514.1884   22815513.5554
      1532.3734
    215652.89149    160507.68848  20294759.7424   20294757.4144
      -731.6624
   -211984.43449   -161121.28547  24183750.9694   24183750.7974
      1639.0124
   1018526.96549    771122.72347  21526513.2114   21526510.1484
     -3100.9984
   -113163.76249    -90567.21547  21493120.4534   21493119.0204
       284.9644
 04  9 14 20 40 30.0000000  0  6G 3G 8G13G19G23G27
    -72565.46149    -60412.45746  23286515.9064   23286516.0634
       103.1064
   -556649.40649   -428530.00847  22811154.2504   22811152.9574
      1527.7974
    226757.41449    169160.55548  20296872.2974   20296869.7344
      -740.3024
   -236502.50449   -180226.22347  24179084.0164   24179084.6134
      1634.5384
   1065155.49649    807456.66047  21535386.5084   21535383.2304
     -3108.5694
   -117368.42649    -93843.57847  21492320.5474   21492318.7934
       280.3114
 04  9 14 20 40 45.0000000  0  6G 3G 8G13G19G23G27
    -73964.33649    -61502.40646  23286249.2274   23286250.0274
        93.2584
   -579498.38749   -446334.38347  22806805.6174   22806805.6844
      1523.2654
    237990.93849    177913.95348  20299010.5164   20299007.4614
      -748.9024
   -260953.69949   -199279.07047  24174431.9454   24174432.1134
      1630.0804
   1111896.85949    843878.46547  21544281.5164   21544278.2384
     -3116.0914
   -121504.06649    -97066.14848  21491533.1334   21491532.0044
       275.7094
 04  9 14 20 41  0.0000000  0  6G 3G 8G13G19G23G27
    -75215.51649    -62477.31246  23286012.4384   23286011.6994
        83.4124
   -602279.42649   -464085.82847  22802471.6484   22802471.8054
      1518.7364
    249353.21949    186767.68048  20301172.2504   20301169.8164
      -757.4854
   -285338.06649   -218279.83647  24169792.1884   24169792.1254
      1625.6244
   1158750.65249    880387.90247  21553197.0704   21553194.0204
     -3123.5864
   -125571.03549   -100235.24247  21490760.0234   21490758.9454
       271.1314
 04  9 14 20 41 15.0000000  0  6G 3G 8G13G19G23G27
    -76320.23049    -63338.06246  23285801.9064   23285801.0944
        73.6484
   -624994.29749   -481785.71947  22798147.6564   22798148.2504
      1514.3254
    260842.81349    195720.59048  20303357.9844   20303356.5234
      -765.9734
   -309656.89849   -237229.50047  24165164.0084   24165165.1374
      1621.2554
   1205715.16449    916983.60947  21562134.0554   21562130.1604
     -3130.9674
   -129571.03549   -103352.11347  21489998.7894   21489997.9534
       266.6674
 04  9 14 20 41 30.0000000  0  6G 3G 8G13G19G23G27
    -77278.95749    -64085.10946  23285619.0234   23285620.3164
        63.9154
   -647643.46149   -499434.38747  22793837.9844   22793836.7344
      1509.9444
    272459.21949    204772.35548  20305568.8594   20305566.8054
      -774.4274
   -333910.30549   -256128.19947  24160548.5554   24160549.6254
      1616.8944
   1252789.70349    953665.05947  21571091.9534   21571088.1024
     -3138.3034
   -133504.69949   -106417.29747  21489249.9774   21489248.6484
       262.2444
 04  9 14 20 41 45.0000000  0  6G 3G 8G13G19G23G27
    -78094.63348    -64720.68446  23285462.9534   23285464.7584
        54.3784
   -670230.19549   -517034.41847  22789539.4844   22789537.7114
      1505.7824
    284199.47749    213920.58648  20307802.9144   20307800.8164
      -782.6844
   -358101.02049   -274978.03147  24155945.0474   24155944.3404
      1612.7144
   1299971.03949    990429.69547  21580070.8834   21580066.7424
     -3145.4224
   -137375.07449   -109433.16448  21488513.3594   21488513.1524
       258.0254
 04  9 14 20 42  0.0000000  0  6G 3G 8G13G19G23G27
    -78768.93448    -65246.17646  23285334.0634   23285335.3444
        44.9534
   -692756.67649   -534587.47347  22785252.9454   22785251.6954
      1501.7654
    296061.61349    223163.82048  20310060.3674   20310058.4184
      -790.8094
   -382230.75849   -293780.39547  24151353.7344   24151351.4184
      1608.6494
   1347257.02349   1027275.89847  21589068.8444   21589065.7814
     -3152.3994
   -141184.37949   -112401.46548  21487788.5394   21487787.9614
       253.9544
 04  9 14 20 42 15.0000000  0  6G 3G 8G13G19G23G27
    -79302.34049    -65661.73846  23285233.4304   23285233.1484
        35.5604
   -715223.04349   -552093.70347  22780977.7274   22780978.1994
      1497.7584
    308045.50449    232501.90248  20312340.5234   20312338.5394
      -798.9264
   -406299.50449   -312535.21147  24146773.4694   24146771.0784
      1604.5834
   1394647.27349   1064203.32847  21598087.1024   21598083.3284
     -3159.3504
   -144932.88349   -115322.35947  21487074.9774   21487073.1724
       249.9004
 04  9 14 20 42 30.0000000  0  6G 3G 8G13G19G23G27
    -79695.76249    -65968.25446  23285160.6334   23285158.9614
        26.2284
   -737630.53949   -569554.08647  22776713.8444   22776713.5984
      1493.8334
    320149.76649    241933.78148  20314644.1094   20314642.1844
      -806.9514
   -430308.38349   -331243.36747  24142204.7584   24142203.7194
      1600.5924
   1442140.33649   1101210.89847  21607124.6254   21607121.0314
     -3166.2044
   -148622.03949   -118197.03547  21486373.5004   21486371.2584
       245.9444
 04  9 14 20 42 45.0000000  0  6G 3G 8G13G19G23G27
    -79950.09449    -66166.40646  23285112.5004   23285111.4614
        16.9554
   -759980.31649   -586969.50047  22772461.3204   22772460.3954
      1489.9854
    332373.67249    251458.90248  20316970.3284   20316968.2424
      -814.9274
   -454258.00049   -349905.39846  24137647.5164   24137646.5704
      1596.6414
   1489735.09449   1138297.70347  21616181.9144   21616177.9924
     -3172.9844
   -152252.93049   -121026.29747  21485682.5554   21485680.6414
       242.0594
 04  9 14 20 43  0.0000000  0  6G 3G 8G13G19G23G27
    -80065.88349    -66256.58246  23285089.2424   23285088.8054
         7.7194
   -782272.96149   -604340.36347  22768218.8054   22768217.6024
      1486.1764
    344716.60249    261076.77348  20319319.3054   20319317.2664
      -822.8624
   -478148.63749   -368521.41447  24133100.9694   24133100.2194
      1592.7094
   1537430.73049   1175463.11347  21625257.9844   21625253.8794
     -3179.7094
   -155826.36349   -123810.77747  21485002.2274   21485000.9804
       238.2294
 04  9 14 20 43 15.0000000  0  6G 3G 8G13G19G23G27
    -80044.80548    -66240.12546  23285092.3134   23285092.9844
        -1.4054
   -804510.53949   -621668.32047  22763987.2344   22763987.8094
      1482.5054
    357176.64549    270785.89548  20321690.1644   20321687.9574
      -830.6704
   -501982.00449   -387092.81646  24128566.2034   24128565.0044
      1588.8914
   1585225.30149   1212705.60547  21634352.9694   21634349.7934
     -3186.3054
   -159344.28149   -126552.02048  21484332.7194   21484332.0904
       234.5284
 04  9 14 20 43 30.0000000  0  6G 3G 8G13G19G23G27
    -79886.27749    -66116.58646  23285122.7504   23285123.2074
       -10.5684
   -826692.63749   -638953.03947  22759765.4144   22759765.3834
      1478.8074
    369754.42249    280586.74648  20324083.8444   20324080.8714
      -838.5184
   -525757.09849   -405618.80947  24124040.7034   24124041.3244
      1585.0064
   1633118.96149   1250025.30547  21643466.8754   21643463.5004
     -3192.9114
   -162806.39549   -129249.76248  21483674.5944   21483673.0634
       230.8084
 04  9 14 20 43 45.0000000  0  6G 3G 8G13G19G23G27
    -79590.52748    -65886.16446  23285178.9774   23285178.7274
       -19.7174
   -848819.61349   -656194.81247  22755555.1644   22755554.5124
      1475.1324
    382449.34849    290478.90248  20326499.4534   20326496.9454
      -846.3284
   -549474.34049   -424099.73046  24119528.3204   24119528.1684
      1581.1494
   1681111.05549   1287421.71147  21652599.5554   21652595.0164
     -3199.4734
   -166213.35549   -131904.52347  21483025.5474   21483024.1174
       227.1314
 04  9 14 20 44  0.0000000  0  6G 3G 8G13G19G23G27
    -79158.75848    -65549.67646  23285260.8134   23285261.3444
       -28.7854
   -870892.92249   -673394.78547  22751354.1484   22751354.9184
      1471.5544
    395260.31649    300461.47348  20328937.5164   20328935.6764
      -854.0654
   -573134.57849   -442536.21146  24115024.3364   24115024.2544
      1577.3494
   1729200.26649   1324893.80947  21661750.3754   21661746.3204
     -3205.9474
   -169566.30549   -134517.20347  21482387.7814   21482386.2304
       223.5304
 04  9 14 20 44 15.0000000  0  6G 3G 8G13G19G23G27
    -78591.86749    -65107.93046  23285369.7424   23285368.9534
       -37.7934
   -892913.41049   -690553.59047  22747164.4694   22747164.7234
      1468.0334
    408186.35949    310533.71948  20331396.8444   20331395.1134
      -861.7364
   -596738.35549   -460928.74246  24110532.5784   24110532.7664
      1573.5854
   1777385.37149   1362440.64847  21670919.8754   21670916.7854
     -3212.3404
   -172866.32849   -137088.65247  21481759.4924   21481758.3874
       220.0024
 04  9 14 20 44 30.0000000  0  6G 3G 8G13G19G23G27
    -77888.70749    -64560.04746  23285504.0784   23285501.5784
       -46.8774
   -914880.46549   -707670.74247  22742984.5314   22742984.3364
      1464.4704
    421228.43849    320696.38748  20333878.9064   20333877.3164
      -869.4724
   -620284.57449   -479276.46546  24106052.9304   24106051.7194
      1569.7484
   1825667.27749   1400062.90647  21680106.9144   21680104.1174
     -3218.7944
   -176112.82849   -139618.38747  21481141.6724   21481140.6914
       216.4334
 04  9 14 20 44 45.0000000  0  6G 3G 8G13G19G23G27
    -77052.00849    -63908.08246  23285661.0004   23285660.7304
       -55.7804
   -936796.94949   -724748.51647  22738813.3674   22738813.8634
      1461.0994
    434383.86349    330947.36348  20336382.4924   20336380.4454
      -877.0284
   -643775.77749   -497581.21546  24101582.6484   24101582.0824
      1566.0804
   1874043.03149   1437758.25447  21689312.7974   21689309.7774
     -3225.0504
   -179308.52049   -142108.54747  21480533.9224   21480532.7074
       213.0464
 04  9 14 20 45  0.0000000  0  6G 3G 8G13G19G23G27
    -76079.93749    -63150.57846  23285847.3984   23285846.9184
       -64.8054
   -958661.19549   -741785.54747  22734652.7734   22734653.1764
      1457.6164
    447654.32849    341287.97348  20338907.8674   20338905.5394
      -884.6984
   -667210.16849   -515841.72746  24097124.1414   24097122.5314
      1562.2934
   1922513.99249   1475527.80947  21698536.8134   21698533.6054
     -3231.3974
   -182451.88349   -144557.90247  21479935.3674   21479934.3094
       209.5584
 04  9 14 20 45 15.0000000  0  6G 3G 8G13G19G23G27
    -74974.19949    -62288.96546  23286057.7974   23286058.5124
       -73.7164
   -980475.00849   -758783.32847  22730502.2424   22730501.9734
      1454.2544
    461038.07849    351716.84848  20341454.6484   20341452.3594
      -892.2504
   -690589.07849   -534059.00447  24092674.8054   24092672.7814
      1558.5944
   1971078.25449   1513370.08647  21707778.3674   21707774.6884
     -3237.6174
   -185544.96149   -146968.09047  21479347.4534   21479345.1564
       206.2054
 04  9 14 20 45 30.0000000  0  6G 3G 8G13G19G23G27
    -73735.40249    -61323.71146  23286292.4774   23286294.0234
       -82.5864
  -1002239.27349   -775742.47347  22726360.1804   22726359.9264
      1450.9514
    474534.23449    362233.33248  20344022.7734   20344020.8364
      -899.7444
   -713913.07049   -552233.49247  24088235.9924   24088235.0004
      1554.9334
   2019734.78149   1551284.25047  21717037.3524   21717034.4614
     -3243.7684
   -188588.77349   -149339.87948  21478767.6564   21478765.2304
       202.9214
 04  9 14 20 45 45.0000000  0  6G 3G 8G13G19G23G27
    -72364.35949    -60255.34446  23286554.7424   23286554.5124
       -91.4034
  -1023954.75449   -792663.59847  22722227.7814   22722227.0704
      1447.6994
    488142.20349    372836.95348  20346612.4144   20346610.3164
      -907.1984
   -737182.61349   -570365.54746  24083807.0554   24083806.9844
      1551.3034
   2068482.62149   1589269.53547  21726314.4304   21726310.9694
     -3249.8564
   -191583.85549   -151673.70348  21478197.7034   21478196.1454
       199.6724
 04  9 14 20 46  0.0000000  0  6G 3G 8G13G19G23G27
    -70859.17648    -59082.46146  23286840.3914   23286840.2774
      -100.3464
  -1045620.11749   -809545.70347  22718105.9614   22718104.7114
      1444.3584
    501863.51649    383528.88748  20349223.5004   20349221.1524
      -914.7544
   -760395.82849   -588453.75446  24079391.3134   24079389.5784
      1547.5484
   2117323.15649   1627327.07847  21735608.1644   21735604.6414
     -3256.0364
   -194529.04349   -153968.63748  21477636.9614   21477635.9654
       196.3464
 04  9 14 20 46 15.0000000  0  6G 3G 8G13G19G23G27
    -69220.25849    -57805.43446  23287152.4924   23287151.7664
      -109.2614
  -1067235.75849   -826389.02047  22713992.0394   22713992.3444
      1441.0434
    515697.93849    394308.94948  20351855.7194   20351853.4224
      -922.2954
   -783552.91449   -606498.18446  24074984.4454   24074983.2114
      1543.8064
   2166255.87549   1665456.44547  21744919.0474   21744915.8594
     -3262.1814
   -197424.69549   -156224.99648  21477086.0004   21477085.4344
       193.0434
 04  9 14 20 46 30.0000000  0  6G 3G 8G13G19G23G27
    -67447.63348    -56424.14846  23287487.8204   23287489.8164
      -118.1754
  -1088801.90649   -843193.78947  22709887.3754   22709887.8014
      1437.7434
    529645.29349    405177.02348  20354509.5004   20354507.7704
      -929.8244
   -806653.61349   -624498.69547  24070587.0784   24070586.2114
      1540.0474
   2215280.53549   1703657.45347  21754248.8364   21754245.3714
     -3268.3114
   -200271.13749   -158443.00848  21476544.7114   21476544.0164
       189.7634
 04  9 14 20 46 45.0000000  0  6G 3G 8G13G19G23G27
    -65540.85248    -54938.27756  23287848.7814   23287852.9064
      -127.1194
  -1110318.07049   -859959.60547  22705793.7734   22705792.7384
      1434.4114
    543705.97749    416133.40648  20357185.9454   20357183.1454
      -937.3794
   -829697.30149   -642454.75046  24066202.1094   24066201.3164
      1536.2464
   2264397.31349   1741930.23847  21763595.4064   21763591.6454
     -3274.4524
   -203068.09849   -160622.45347  21476012.1484   21476011.1604
       186.4644
 04  9 14 20 47  0.0000000  0  6G 3G 8G13G19G23G27
    -63499.691 8                  23288240.625
      -136.077
  -1131784.51249   -876686.67647  22701708.4454   22701708.2194
      1431.0964
    557879.90249    427178.03548  20359882.8364   20359879.8244
      -944.9284
   -852683.84449   -660366.24647  24061827.6804   24061827.4344
      1532.4364
   2313605.88349   1780274.57047  21772959.0164   21772955.1454
     -3280.5714
   -205815.82449   -162763.53947  21475489.3134   21475487.8324
       183.1824
 04  9 14 20 47 15.0000000  0  6G 3G 8G13G19G23G27
    -61324.406 9                  23288654.852
      -145.019
  -1153201.34849   -893375.11347  22697633.3754   22697632.3404
      1427.7894
    572167.02049    438310.84048  20362601.8834   20362599.3714
      -952.4744
   -875612.90649   -678233.03147  24057464.9614   24057464.3134
      1528.6044
   2362905.87949   1818690.12547  21782340.8674   21782337.6094
     -3286.6664
   -208514.49649   -164866.39847  21474976.4064   21474974.4144
       179.9114
 04  9 14 20 47 30.0000000  0  6G 3G 8G13G19G23G27
    -59014.102 9                  23289094.297
      -154.020
  -1174568.21949   -910024.60247  22693567.7504   22693567.3204
      1424.4584
    586568.03549    449532.39548  20365342.5394   20365339.7424
      -960.0684
   -898483.83649   -696054.46147  24053111.7274   24053112.7034
      1524.7294
   2412297.95749   1857177.42247  21791739.7274   21791736.7974
     -3292.8054
   -211163.65249   -166930.65647  21474471.9064   21474469.9844
       176.6104
 04  9 14 20 47 45.0000000  0  6G 3G 8G13G19G23G27
    -56571.504 9                  23289559.555
      -162.840
  -1195887.87149   -926637.29747  22689509.4534   22689510.2194
      1421.3104
    601080.09449    460840.49248  20368103.6414   20368101.8484
      -967.4714
   -921298.94149   -713832.43047  24048771.3524   24048770.7664
      1521.0074
   2461779.03949   1895734.08647  21801155.8834   21801153.1644
     -3298.7394
   -213766.16849   -168958.58247  21473976.0864   21473975.5234
       173.5014
 04  9 14 20 48  0.0000000  0  6G 3G 8G13G19G23G27
    -53995.934 9                  23290048.922
      -171.705
  -1217159.96149   -943212.94147  22685462.5234   22685462.3094
      1418.1394
    615703.79349    472235.57848  20370887.1884   20370884.3914
      -974.9134
   -944057.60549   -731566.39847  24044440.6884   24044439.3054
      1517.2444
   2511349.39849   1934360.33647  21810588.8054   21810584.8954
     -3304.6914
   -216321.75449   -170949.95348  21473490.1094   21473489.2194
       170.3724
 04  9 14 20 48 15.0000000  0  6G 3G 8G13G19G23G27
    -51288.012 9                  23290566.172
      -180.528
  -1238385.10549   -959752.00447  22681422.7034   22681422.1804
      1415.0104
    630438.51249    483717.18448  20373690.6334   20373688.4774
      -982.3154
   -966759.93049   -749256.46947  24040120.3674   24040119.3754
      1513.4884
   2561008.23849   1973055.52047  21820038.3204   21820035.7074
     -3310.5894
   -218830.93749   -172905.15248  21473012.6954   21473011.3754
       167.2794
 04  9 14 20 48 30.0000000  0  6G 3G 8G13G19G23G27
    -48445.125 9                  23291105.359
      -189.526
  -1259560.71549   -976252.44947  22677393.7814   22677392.8914
      1411.7074
    645286.80549    495287.27748  20376515.6884   20376514.3204
      -989.8864
   -989403.24249   -766900.55947  24035811.1174   24035810.5314
      1509.5544
   2610757.84849   2011821.44147  21829505.7034   21829502.7734
     -3316.6414
   -221291.52049   -174822.46947  21472543.8754   21472542.4384
       164.0394
 04  9 14 20 48 45.0000000  0  6G 3G 8G13G19G23G27
    -45467.816 9                  23291671.492
      -198.487
  -1280687.56249   -992714.90247  22673373.1724   22673372.9694
      1408.4574
    660248.11749    506945.43848  20379362.8674   20379361.3244
      -997.4214
  -1011987.98849   -784499.02047  24031513.0314   24031513.3484
      1505.6504
   2660597.50849   2050657.51247  21838989.7424   21838986.5164
     -3322.6444
   -223704.16849   -176702.45347  21472085.5234   21472084.0664
       160.8434
 04  9 14 20 49  0.0000000  0  6G 3G 8G13G19G23G27
    -42355.984 9                  23292264.539
      -207.455
  -1301765.89149  -1009139.56647  22669361.7974   22669362.0084
      1405.2224
    675322.39149    518691.62148  20382231.2734   20382230.1094
     -1004.9524
  -1034513.85249   -802051.58247  24027227.5864   24027226.6684
      1501.7244
   2710526.95749   2089563.54747  21848491.2814   21848487.7034
     -3328.6304
   -226069.03549   -178545.20347  21471635.1954   21471633.4924
       157.6584
 04  9 14 20 49 15.0000000  0  6G 3G 8G13G19G23G27
    -39110.043 9                  23292882.500
      -216.396
  -1322796.07849  -1025526.69947  22665360.2034   22665359.9964
      1402.0134
    690509.12149    530525.43448  20385121.4614   20385119.7424
     -1012.4494
  -1056980.84049   -819558.29347  24022951.5314   24022951.8364
      1497.7994
   2760545.54349   2128539.04747  21858009.3054   21858005.1414
     -3334.5724
   -228386.78149   -180351.24647  21471194.0554   21471192.6994
       154.5164
 04  9 14 20 49 30.0000000  0  6G 3G 8G13G19G23G27
    -35730.047 9                  23293525.477
      -225.333
  -1343778.46549  -1041876.59447  22661367.1954   22661366.6884
      1398.8264
    705808.27349    542446.85548  20388032.8834   20388030.6804
     -1019.9434
  -1079389.10949   -837019.24247  24018687.5864   24018686.3244
      1493.8854
   2810652.89549   2167583.71147  21867544.8204   21867540.3594
     -3340.4904
   -230657.64849   -182120.73447  21470761.9694   21470760.8164
       151.3914
 04  9 14 20 49 45.0000000  0  6G 3G 8G13G19G23G27
    -32216.691 9                  23294193.750
      -234.224
  -1364713.90649  -1058189.91047  22657383.1334   22657383.0824
      1395.6964
    721219.04749    554455.25848  20390965.1484   20390962.8554
     -1027.3854
  -1101739.08649   -854434.74647  24014435.1804   24014434.2234
      1489.9984
   2860848.07049   2206696.81347  21877096.5234   21877092.9264
     -3346.3454
   -232882.54749   -183854.41848  21470339.2274   21470338.0904
       148.3274
 04  9 14 20 50  0.0000000  0  6G 3G 8G13G19G23G27
    -28567.387 9                  23294887.922
      -243.287
  -1385600.18449  -1074464.91847  22653409.0164   22653408.5664
      1392.4184
    736743.93849    566552.57848  20393918.9924   20393917.4734
     -1034.9934
  -1124027.90649   -871802.57047  24010193.0394   24010191.8404
      1485.9214
   2911133.29349   2245880.09447  21886665.0314   21886661.7194
     -3352.3484
   -235059.13349   -185550.46148  21469924.5474   21469923.0744
       145.1064
 04  9 14 20 50 15.0010000  0  6G 3G 8G13G19G23G27
    -24784.020 9                  23295607.974
      -252.224
  -1406440.66049  -1090704.23047  22649443.4034   22649442.4354
      1389.3654
    752381.75049    578737.88348  20396895.8884   20396892.9544
     -1042.5214
  -1146259.19549   -889125.63747  24005963.9664   24005960.6854
      1482.0864
   2961509.55949   2285134.28147  21896251.6384   21896247.8644
     -3358.4184
   -237189.96949   -187210.84047  21469518.8804   21469517.3764
       142.0564
 04  9 14 20 50 30.0010000  0  6G 3G 8G13G19G23G27
    -20868.734 9                  23296353.692
      -261.019
  -1427234.46549  -1106907.18047  22645486.2784   22645486.4114
      1386.2544
    768128.58649    591008.14548  20399892.2634   20399888.5794
     -1049.7894
  -1168431.44949   -906402.60946  24001743.4664   24001741.6034
      1478.1504
   3011968.10549   2324452.61347  21905853.1304   21905850.4744
     -3363.9034
   -239276.55549   -188836.73847  21469121.6304   21469120.7554
       139.1064
 04  9 14 20 50 45.0010000  0  6G 3G 8G13G19G23G27
    -16819.398 9                  23297124.325
      -269.956
  -1447981.43049  -1123073.62947  22641538.5364   22641538.4424
      1383.1314
    783987.41849    603365.65248  20402910.0834   20402907.0564
     -1057.2554
  -1190544.03149   -923633.13346  23997535.1304   23997533.0954
      1474.1724
   3062514.02049   2363839.03547  21915471.9504   21915468.5674
     -3369.7284
   -241317.30949   -190426.94947  21468733.4504   21468732.8964
       136.0504
 04  9 14 20 51  0.0010000  0  6G 3G 8G13G19G23G27
    -12635.477 9                  23297921.263
      -278.928
  -1468680.94549  -1139203.10547  22637598.7244   22637599.2004
      1379.9684
    799958.62549    615810.76248  20405948.7554   20405946.1534
     -1064.7474
  -1212596.16849   -940816.49646  23993339.0834   23993336.5714
      1470.1424
   3113147.54749   2403293.71947  21925106.8174   21925104.1384
     -3375.5684
   -243312.02749   -191981.27347  21468353.8024   21468353.0634
       132.9814
 04  9 14 20 51 15.0010000  0  6G 3G 8G13G19G23G27
     -8315.699 9                  23298742.380
      -287.985
  -1489332.10549  -1155294.89547  22633669.4034   22633668.9424
      1376.7444
    816043.50049    628344.42648  20409009.6774   20409007.3374
     -1072.3254
  -1234586.40249   -957951.70347  23989155.0364   23989151.8844
      1466.0164
   3163869.68449   2442817.44947  21934759.6854   21934756.0364
     -3381.4764
   -245259.53549   -193498.81648  21467984.1534   21467983.4194
       129.8344
 04  9 14 20 51 30.0010000  0  6G 3G 8G13G19G23G27
     -3860.785 9                  23299589.810
      -296.994
  -1509935.35249  -1171349.37147  22629749.1774   22629747.5604
      1373.5504
    832241.32049    640966.10548  20412091.6384   20412089.7354
     -1079.8554
  -1256515.27049   -975039.06647  23984980.9504   23984979.6574
      1461.9244
   3214679.48849   2482409.46947  21944428.5524   21944424.9274
     -3387.3204
   -247160.79349   -194980.28948  21467621.7634   21467620.3644
       126.7514
 04  9 14 20 51 45.0010000  0  6G 3G 8G13G19G23G27
       729.602 9                  23300462.888
      -306.026
  -1530490.80949  -1187366.58647  22625837.0834   22625835.8844
      1370.3644
    848552.41449    653676.03948  20415195.9504   20415194.4544
     -1087.4064
  -1278382.15649   -992078.15647  23980819.7394   23980818.9354
      1457.7924
   3265576.96149   2522069.81647  21954114.0054   21954110.1654
     -3393.1654
   -249015.59449   -196425.58647  21467268.8334   21467266.8214
       123.6534
 04  9 14 20 52  0.0010000  0  6G 3G 8G13G19G23G27
      5455.484 9                  23301362.646
      -315.059
  -1550998.56649  -1203346.64847  22621934.3414   22621934.0524
      1367.1844
    864976.70749    666474.19148  20418321.3494   20418319.6104
     -1094.9534
  -1300186.94149  -1009068.85247  23976670.5604   23976669.8104
      1453.6524
   3316561.73049   2561798.18447  21963816.3024   21963812.3804
     -3398.9854
   -250824.18749   -197834.88348  21466924.4664   21466923.1304
       120.5734
 04  9 14 20 52 15.0010000  0  6G 3G 8G13G19G23G27
     10315.473 9                  23302286.989
      -323.999
  -1571460.40249  -1219290.90647  22618040.8174   22618040.5174
      1364.1224
    881512.60949    679359.30148  20421468.8964   20421466.3174
     -1102.3934
  -1321930.87149  -1026012.08247  23972533.1854   23972532.3764
      1449.5954
   3367632.22749   2601593.35247  21973534.7084   21973530.9384
     -3404.7004
   -252588.18749   -199209.42647  21466589.0134   21466587.3024
       117.6004
 04  9 14 20 52 30.0010000  0  6G 3G 8G13G19G23G27
     15310.813 9                  23303238.122
      -333.023
  -1591874.94549  -1235198.32847  22614155.6854   22614155.9544
      1360.9704
    898161.24249    692332.25848  20424636.6694   20424633.8924
     -1109.9094
  -1343612.41049  -1042906.73847  23968406.4664   23968405.9784
      1445.4364
   3418789.52749   2641456.15647  21983269.3564   21983265.7244
     -3410.4874
   -254306.52349   -200548.39147  21466261.3964   21466260.0564
       114.5564
 04  9 14 20 52 45.0010000  0  6G 3G 8G13G19G23G27
     20443.395 9                  23304214.450
      -342.172
  -1612240.57849  -1251067.63347  22610280.6694   22610279.8564
      1357.7094
    914924.53549    705394.56648  20427825.9974   20427824.1734
     -1117.5534
  -1365229.41849  -1059751.07047  23964293.3334   23964291.8844
      1441.1344
   3470035.20749   2681387.84847  21993021.3334   21993017.6144
     -3416.3794
   -255977.48449   -201850.41848  21465944.1304   21465942.8534
       111.3974
 04  9 14 20 53  0.0010000  0  6G 3G 8G13G19G23G27
     25712.320 9                  23305216.950
      -351.262
  -1632558.41049  -1266899.68747  22606414.0364   22606414.2744
      1354.5224
    931801.40649    718545.37148  20431037.9974   20431035.3684
     -1125.1254
  -1386782.80949  -1076545.85247  23960192.2864   23960189.3604
      1436.8934
   3521367.89149   2721387.34047  22002789.3334   22002786.2824
     -3422.1794
   -257602.21149   -203116.44948  21465634.9194   21465634.0994
       108.3154
 04  9 14 20 53 15.0010000  0  6G 3G 8G13G19G23G27
     31118.453 9                  23306245.310
      -360.409
  -1652827.49649  -1282693.76647  22602557.0524   22602556.8064
      1351.2724
    948792.87549    731785.46948  20434271.2474   20434268.2984
     -1132.7654
  -1408271.25849  -1093290.02347  23956103.2394   23956100.9784
      1432.5634
   3572788.35249   2761455.20747  22012573.8174   22012570.9544
     -3428.0314
   -259180.14149   -204345.99248  21465334.1464   21465333.4894
       105.1954
 04  9 14 20 53 30.0010000  0  6G 3G 8G13G19G23G27
     36661.56349     24699.88356  23307300.9814   23307301.0604
      -369.5414
  -1673048.26649  -1298450.20747  22598709.4664   22598708.4744
      1348.0514
    965898.57449    745114.58248  20437525.7714   20437524.0714
     -1140.3804
  -1429694.96949  -1109983.78147  23952026.0054   23952023.5604
      1428.2474
   3624296.03949   2801591.05147  22022376.1304   22022371.6654
     -3433.8464
   -260711.52049   -205539.28148  21465043.1534   21465042.0874
       102.0924
 04  9 14 20 53 45.0010000  0  6G 3G 8G13G19G23G27
     42340.40249     29124.94146  23308381.2084   23308382.1964
      -378.5894
  -1693222.08249  -1314170.05147  22594871.2554   22594869.7634
      1344.9214
    983117.26249    758531.73848  20440802.2714   20440801.0364
     -1147.9124
  -1451054.85249  -1126627.78147  23947960.9354   23947959.4034
      1423.9924
   3675889.58649   2841793.78547  22032193.4664   22032189.9424
     -3439.5704
   -262197.74249   -206697.37548  21464760.8024   21464758.5874
        99.0824
 04  9 14 20 54  0.0010000  0  6G 3G 8G13G19G23G27
     48156.68849     33657.14146  23309487.9504   23309488.9664
      -387.7524
  -1713347.37949  -1329852.07847  22591041.8024   22591039.9114
      1341.6864
   1000450.65249    772038.28148  20444101.1304   20444099.4194
     -1155.5594
  -1472348.89849  -1143220.52047  23943909.2474   23943907.5604
      1419.6034
   3727570.37149   2882064.51647  22042027.4504   22042025.0794
     -3445.3864
   -263637.21949   -207819.03948  21464486.3104   21464484.7394
        95.9654
 04  9 14 20 54 15.0010000  0  6G 3G 8G13G19G23G27
     54109.60949     38295.72746  23310621.5994   23310621.3684
      -396.8614
  -1733425.27749  -1345497.16847  22587220.9274   22587218.9544
      1338.5274
   1017897.65649    785633.34048  20447421.6384   20447419.3924
     -1163.1344
  -1493578.02049  -1159762.60947  23939869.6694   23939867.8924
      1415.2754
   3779337.19149   2922402.28947  22051879.1064   22051875.8374
     -3451.1214
   -265031.11349   -208905.18748  21464221.1464   21464220.1614
        92.9264
 04  9 14 20 54 30.0010000  0  6G 3G 8G13G19G23G27
     60199.83649     43041.43046  23311780.3884   23311780.2044
      -406.0154
  -1753454.78949  -1361104.54347  22583408.0754   22583407.3214
      1335.3014
   1035459.25049    799317.69548  20450762.9424   20450761.0874
     -1170.7734
  -1514740.85549  -1176253.04347  23935842.7084   23935840.4624
      1410.8564
   3831190.78549   2962807.66447  22061746.7944   22061743.1854
     -3456.9064
   -266378.66449   -209955.23448  21463964.7554   21463963.5994
        89.8374
 04  9 14 20 54 45.0010000  0  6G 3G 8G13G19G23G27
     66429.46149     47895.69146  23312966.7394   23312964.9114
      -415.3084
  -1773434.46949  -1376673.11347  22579605.7944   22579606.3334
      1331.9794
   1053137.22349    813092.73448  20454127.0214   20454124.9974
     -1178.5324
  -1535835.52749  -1192690.36347  23931826.8494   23931825.9934
      1406.3114
   3883132.70349   3003281.84847  22071630.4664   22071627.7124
     -3462.7954
   -267678.30149   -210967.93448  21463717.5754   21463716.4504
        86.6424
 04  9 14 20 55  0.0010000  0  6G 3G 8G13G19G23G27
     72797.37949     52857.70346  23314177.3334   23314177.8064
      -424.5284
  -1793365.55549  -1392203.83247  22575813.9424   22575813.4704
      1328.7394
   1070930.48049    826957.62148  20457513.0134   20457511.1224
     -1186.2174
  -1556862.69549  -1209075.14146  23927826.0444   23927824.6184
      1401.8114
   3935161.64849   3043823.86747  22081531.0994   22081529.0834
     -3468.5964
   -268931.22349   -211944.23448  21463479.4114   21463478.5874
        83.5284
 04  9 14 20 55 15.0010000  0  6G 3G 8G13G19G23G27
     79302.82449     57926.90646  23315415.7084   23315416.4544
      -433.6964
  -1813248.77749  -1407697.23847  22572029.3564   22572029.6064
      1325.5484
   1088838.28549    840911.73448  20460920.8564   20460918.5404
     -1193.8544
  -1577823.09849  -1225407.85247  23923836.0754   23923836.4384
      1397.3604
   3987276.48049   3084432.81647  22091448.7864   22091446.0094
     -3474.3224
   -270138.23049   -212884.74648  21463249.6534   21463248.1494
        80.4674
 04  9 14 20 55 30.0010000  0  6G 3G 8G13G19G23G27
     85946.37949     63103.70346  23316679.0674   23316680.7554
      -442.9044
  -1833083.59049  -1423152.93047  22568255.9974   22568255.3604
      1322.3214
   1106860.82449    854955.27048  20464350.6304   20464348.0954
     -1201.5034
  -1598715.93449  -1241687.89846  23919861.0914   23919858.7204
      1392.8564
   4039477.62549   3125109.02047  22101381.9894   22101379.1774
     -3480.0764
   -271299.16849   -213789.37548  21463028.2554   21463026.9034
        77.3964
 04  9 14 20 55 45.0010000  0  6G 3G 8G13G19G23G27
     92728.62549     68388.55546  23317971.0914   23317970.1534
      -452.1504
  -1852869.76649  -1438570.70747  22564490.9974   22564489.8604
      1319.0784
   1124998.80149    869088.77048  20467802.0134   20467800.4784
     -1209.1984
  -1619540.38349  -1257914.69146  23915898.8884   23915896.1654
      1388.2974
   4091765.38349   3165852.71947  22111332.3254   22111329.3534
     -3485.8514
   -272413.46549   -214657.64848  21462816.4744   21462815.6384
        74.2864
 04  9 14 20 56  0.0010000  0  6G 3G 8G13G19G23G27
     99649.02749     73781.12546  23319287.0054   23319287.4664
      -461.3604
  -1872607.77349  -1453950.94547  22560734.5214   22560733.6304
      1315.8674
   1143251.80549    883311.87948  20471275.6694   20471273.3534
     -1216.8674
  -1640296.75849  -1274088.41047  23911949.0054   23911947.1614
      1383.7584
   4144138.83249   3206663.18047  22121298.8104   22121296.0874
     -3491.5634
   -273481.77049   -215490.09048  21462613.5444   21462611.7284
        71.2204
 04  9 14 20 56 15.0010000  0  6G 3G 8G13G19G23G27
    106708.09849     79281.73046  23320630.3254   23320630.8964
      -470.6054
  -1892297.39149  -1469293.48447  22556987.4194   22556987.1384
      1312.6414
   1161620.02049    897624.76248  20474771.1064   20474768.3844
     -1224.5484
  -1660984.25449  -1290208.51647  23908011.9034   23908011.4784
      1379.1664
   4196598.34449   3247540.69947  22131281.5284   22131277.9384
     -3497.3014
   -274503.91449   -216286.58648  21462419.1614   21462416.8844
        68.1434
 04  9 14 20 56 30.0010000  0  6G 3G 8G13G19G23G27
    113905.96949     84890.42646  23321999.5524   23322000.5754
      -479.8584
  -1911938.40249  -1484598.13747  22553249.9114   22553249.0524
      1309.4014
   1180103.73849    912027.65248  20478287.9034   20478286.1924
     -1232.2484
  -1681602.50849  -1306274.64147  23904088.9894   23904088.5834
      1374.5504
   4249143.89849   3288485.27747  22141280.6224   22141277.3174
     -3503.0374
   -275479.68449   -217046.90248  21462233.2474   21462231.4814
        65.0514
 04  9 14 20 56 45.0010000  0  6G 3G 8G13G19G23G27
    121243.28549     90607.80946  23323396.4424   23323397.2984
      -489.1544
  -1931530.36749  -1499864.60547  22549521.7314   22549521.2904
      1306.1314
   1198703.24649    926520.78548  20481827.2004   20481825.7244
     -1239.9674
  -1702150.83649  -1322286.28547  23900178.9034   23900178.6034
      1369.8894
   4301775.64849   3329497.00847  22151296.3804   22151292.2514
     -3508.7834
   -276408.98849   -217771.03948  21462055.7474   21462054.6144
        61.9544
 04  9 14 20 57  0.0010000  0  6G 3G 8G13G19G23G27
    128721.38749     96434.90246  23324818.9814   23324819.5874
      -498.5404
  -1951072.05149  -1515091.87147  22545802.2714   22545802.3494
      1302.7794
   1217420.02049    941105.29348  20485389.2244   20485386.7984
     -1247.7854
  -1722627.63749  -1338242.20747  23896281.9424   23896281.5244
      1365.1204
   4354494.68849   3370576.77347  22161327.7314   22161325.0134
     -3514.6034
   -277290.37149   -218457.83648  21461888.3414   21461886.8064
        58.7594
 04  9 14 20 57 15.0010000  0  6G 3G 8G13G19G23G27
    136337.21149    102369.33646  23326268.6614   23326268.8134
      -507.7224
  -1970566.61749  -1530282.41847  22542093.2554   22542092.2434
      1299.6384
   1236251.10949    955778.84848  20488973.0994   20488970.8644
     -1255.4064
  -1743035.63749  -1354144.48047  23892397.9424   23892396.4234
      1360.5334
   4407297.90249   3411722.10947  22171375.5134   22171373.6104
     -3520.2144
   -278127.19949   -219109.90248  21461728.8334   21461727.5564
        55.7894
 04  9 14 20 57 30.0010000  0  6G 3G 8G13G19G23G27
    144093.14549    108412.89146  23327744.3644   23327745.0994
      -517.0624
  -1990012.01649  -1545434.67247  22538393.2944   22538392.1344
      1296.3604
   1255198.76649    970543.24248  20492577.8494   20492576.0134
     -1263.1774
  -1763372.39149  -1369991.27747  23888527.9744   23888526.9664
      1355.7844
   4460187.23849   3452934.53947  22181441.0994   22181438.3214
     -3525.9564
   -278917.17249   -219725.48048  21461578.6774   21461577.1264
        52.6654
 04  9 14 20 57 45.0010000  0  6G 3G 8G13G19G23G27
    151989.22349    114565.66046  23329247.2394   23329248.0954
      -526.4054
  -2009408.23849  -1560548.59047  22534701.8414   22534700.6424
      1293.0824
   1274262.96149    985398.48448  20496205.7944   20496203.8844
     -1270.9464
  -1783637.44549  -1385782.20347  23884671.5604   23884670.2514
      1351.0044
   4513162.54349   3494213.97347  22191522.4274   22191518.3454
     -3531.6874
   -279660.37149   -220304.58648  21461437.3334   21461435.5174
        49.5474
 04  9 14 20 58  0.0010000  0  6G 3G 8G13G19G23G27
    160024.60249    120827.02746  23330775.3804   23330777.4894
      -535.6924
  -2028755.99249  -1575624.75447  22531019.9584   22531019.3964
      1289.8504
   1293442.73849   1000343.75048  20499855.7634   20499853.8684
     -1278.6524
  -1803831.40649  -1401517.72347  23880829.3104   23880827.0914
      1346.2644
   4566222.66849   3535559.50447  22201618.8174   22201615.3804
     -3537.3424
   -280357.85549   -220848.07848  21461304.8104   21461303.1614
        46.4994
 04  9 14 20 58 15.0010000  0  6G 3G 8G13G19G23G27
    168199.47349    127197.03546  23332332.5524   23332331.5054
      -544.9914
  -2048055.58649  -1590663.37947  22527347.5914   22527346.4814
      1286.6404
   1312738.17649   1015379.14548  20503527.6064   20503525.3764
     -1286.3624
  -1823954.17249  -1417197.75847  23876999.0604   23876998.4354
      1341.5184
   4619367.44549   3576971.00047  22211731.0674   22211727.8534
     -3542.9854
   -281009.83649   -221356.09448  21461180.4194   21461179.1104
        43.4654
 04  9 14 20 58 30.0010000  0  6G 3G 8G13G19G23G27
    176512.23049    133674.53546  23333913.6774   23333912.9034
      -554.1844
  -2067308.73049  -1605665.81247  22523683.4354   22523683.6264
      1283.5434
   1332147.68449   1030503.43848  20507220.8334   20507218.6304
     -1293.9674
  -1844006.91049  -1432823.24247  23873183.3724   23873182.1774
      1336.8494
   4672595.22349   3618447.16447  22221860.5674   22221857.4274
     -3548.5184
   -281617.78549   -221829.82048  21461065.0754   21461063.0564
        40.5304
 04  9 14 20 58 45.0010000  0  6G 3G 8G13G19G23G27
    184963.27349    140259.77046  23335521.7634   23335521.3684
      -563.4034
  -2086514.97349  -1620631.69947  22520029.3964   22520028.6534
      1280.4164
   1351671.58249   1045716.85248  20510936.3644   20510934.5794
     -1301.5934
  -1863988.88749  -1448393.57847  23869381.0444   23869380.2354
      1332.1324
   4725906.23049   3659988.18847  22232005.5604   22232002.1344
     -3554.0674
   -282181.48849   -222269.05948  21460957.3964   21460956.6064
        37.5804
 04  9 14 20 59  0.0010000  0  6G 3G 8G13G19G23G27
    193553.57449    146953.57046  23337156.3254   23337156.8064
      -572.6874
  -2105673.39849  -1635560.32447  22516382.8334   22516382.4934
      1277.2284
   1371311.00849   1061020.29748  20514673.8334   20514671.2554
     -1309.2954
  -1883898.98849  -1463907.90247  23865593.0134   23865590.7634
      1327.3404
   4779300.98849   3701594.47747  22242166.3724   22242163.4154
     -3559.6514
   -282700.13349   -222673.21148  21460858.7714   21460857.5834
        34.5764
 04  9 14 20 59 15.0010000  0  6G 3G 8G13G19G23G27
    202283.63749    153756.18846  23338818.4194   23338817.9544
      -582.0044
  -2124783.41849  -1650451.23447  22512747.2244   22512745.2744
      1274.0014
   1391066.39549   1076414.09848  20518432.7244   20518430.9544
     -1317.0264
  -1903736.54749  -1479365.69547  23861817.5214   23861816.0564
      1322.5044
   4832779.82049   3743266.27047  22252343.1304   22252339.6774
     -3565.2554
   -283173.45749   -223042.03948  21460769.4584   21460767.6064
        31.5554
 04  9 14 20 59 30.0010000  0  6G 3G 8G13G19G23G27
    211154.63349    160668.69546  23340506.4424   23340505.3844
      -591.4004
  -2143844.19949  -1665303.78147  22509119.9274   22509119.0284
      1270.7194
   1410938.85549   1091899.14148  20522214.2314   20522213.0134
     -1324.8314
  -1923500.08249  -1494765.81647  23858056.8254   23858053.4504
      1317.5694
   4886343.73849   3785004.35247  22262536.2004   22262532.7714
     -3570.9284
   -283600.22749   -223374.58648  21460687.7084   21460686.7284
        28.4514
 04  9 14 20 59 45.0010000  0  6G 3G 8G13G19G23G27
    220165.86349    167690.46547  23342221.8334   23342221.0604
      -600.7494
  -2162856.68049  -1680118.69147  22505501.8564   22505501.4074
      1267.4994
   1430927.54349   1107474.74648  20526018.1304   20526016.1774
     -1332.5794
  -1943190.35549  -1510108.85947  23854309.8494   23854307.5914
      1312.6854
   4939991.68849   3826807.93447  22272744.6384   22272741.4314
     -3576.5304
   -283981.48849   -223671.64548  21460614.8804   21460613.8994
        25.4174
 04  9 14 21  0  0.0010000  0  6G 3G 8G13G19G23G27
    229316.83649    174821.11346  23343961.7554   23343963.6264
      -610.0654
  -2181821.32449  -1694896.32047  22501892.6064   22501892.2314
      1264.3104
   1451031.98849   1123140.53948  20529844.3494   20529841.7284
     -1340.2964
  -1962807.18049  -1525394.65647  23850576.9194   23850575.6574
      1307.7884
   4993722.92249   3868676.41047  22282969.8254   22282965.9784
     -3582.0824
   -284317.71549   -223933.65648  21460550.8724   21460549.9314
        22.4154
 04  9 14 21  0 15.0010000  0  6G 3G 8G13G19G23G27
    238608.56349    182061.35946  23345731.4034   23345730.9274
      -619.4484
  -2200737.22349  -1709635.97347  22498293.0054   22498292.1424
      1261.0604
   1471253.07449   1138897.22348  20533692.2004   20533689.8724
     -1348.0724
  -1982349.48849  -1540622.41047  23846856.8334   23846857.3684
      1302.8214
   5047538.09449   3910610.30947  22293210.0754   22293206.7944
     -3587.6784
   -284608.16849   -224159.98048  21460495.2004   21460493.8214
        19.3644
 04  9 14 21  0 30.0010000  0  6G 3G 8G13G19G23G27
    248041.04349    189411.28146  23347525.2864   23347525.9074
      -628.8324
  -2219604.41449  -1724337.66847  22494702.8334   22494701.3104
      1257.8134
   1491590.84049   1154744.82448  20537561.8334   20537560.2084
     -1355.8514
  -2001816.94149  -1555791.88347  23843153.5834   23843152.5994
      1297.8304
   5101437.20749   3952609.57847  22303465.8724   22303463.6884
     -3593.2744
   -284853.03549   -224350.79348  21460449.0284   21460447.4074
        16.3244
 04  9 14 21  0 45.0010000  0  6G 3G 8G13G19G23G27
    257614.81649    196871.39846  23349347.8644   23349346.9584
      -638.2524
  -2238422.56649  -1739001.14547  22491122.4664   22491120.9624
      1254.5434
   1512045.75449   1170683.70348  20541454.2474   20541452.9544
     -1363.6614
  -2021208.75449  -1570902.39847  23839464.4504   23839462.0244
      1292.7874
   5155420.46949   3994674.44147  22313739.3494   22313736.0634
     -3598.8844
   -285051.79749   -224505.67248  21460411.0994   21460410.3724
        13.2514
 04  9 14 21  1  0.0010000  0  6G 3G 8G13G19G23G27
    267328.76649    204440.75446  23351196.6304   23351195.3174
      -647.5974
  -2257192.94149  -1753627.38747  22487549.8104   22487549.8064
      1251.3584
   1532616.64149   1186712.96948  20545369.2714   20545367.1854
     -1371.3924
  -2040525.90249  -1585954.68747  23835787.1924   23835786.1104
      1287.8104
   5209486.51249   4036803.79347  22324028.0444   22324024.7434
     -3604.4034
   -285205.74249   -224625.61348  21460382.2784   21460381.2124
        10.2634
 04  9 14 21  1 15.0010000  0  6G 3G 8G13G19G23G27
    277182.82049    212119.28546  23353070.9814   23353070.1184
      -656.9374
  -2275915.88349  -1768216.69147  22483987.3334   22483986.4504
      1248.1964
   1553303.24649   1202832.39148  20549305.8174   20549303.6734
     -1379.1074
  -2059768.27049  -1600948.71947  23832125.6694   23832124.1184
      1282.8244
   5263634.88749   4078997.30547  22334332.3174   22334329.2594
     -3609.8924
   -285315.23449   -224710.94148  21460361.5214   21460360.3064
         7.2994
 04  9 14 21  1 30.0010000  0  6G 3G 8G13G19G23G27
    287176.33648    219906.40646  23354972.6304   23354971.2474
      -666.2344
  -2294591.96149  -1782769.46947  22480433.4584   22480433.3134
      1245.0724
   1574105.10249   1219041.60548  20553264.2554   20553262.3564
     -1386.7904
  -2078936.32049  -1615884.85546  23828478.0134   23828475.3604
      1277.8704
   5317864.70749   4121254.28947  22344651.6854   22344648.1694
     -3615.3214
   -285380.99649   -224762.17648  21460348.5994   21460347.5214
         4.3844
 04  9 14 21  1 45.0010000  0  6G 3G 8G13G19G23G27
    297308.67249    227801.83646  23356901.4034   23356898.6064
      -675.4894
  -2313221.72349  -1797286.15247  22476887.8494   22476887.6144
      1241.9844
   1595021.54749   1235340.14148  20557244.3884   20557243.3564
     -1394.4304
  -2098030.27349  -1630763.24647  23824845.0214   23824841.4894
      1272.9304
   5372175.27049   4163574.18847  22354986.7394   22354984.2784
     -3620.7044
   -285403.68449   -224779.85247  21460344.4034   21460342.9814
         1.5134
 04  9 14 21  2  0.0010000  0  6G 3G 8G13G19G23G27
    307580.52049    235805.86346  23358856.1224   23358853.7674
      -684.7904
  -2331804.56649  -1811766.28147  22473352.0914   22473350.1034
      1238.8564
   1616053.41849   1251728.60248  20561246.6464   20561244.6384
     -1402.1254
  -2117049.28549  -1645583.23847  23821225.6924   23821221.5054
      1267.9344
   5426567.01649   4205957.33247  22365336.4424   22365334.9744
     -3626.1164
   -285382.70749   -224763.50848  21460348.1854   21460347.0834
        -1.3984
 04  9 14 21  2 15.0010000  0  6G 3G 8G13G19G23G27
    317992.89549    243919.36346  23360834.9894   23360835.7904
      -694.1584
  -2350339.79349  -1826209.30547  22469823.9424   22469823.4784
      1235.6824
   1637201.62149   1268207.72348  20565271.0214   20565268.9664
     -1409.8804
  -2135992.16849  -1660343.90647  23817621.6384   23817619.6694
      1262.8594
   5481040.53549   4248404.21147  22375703.3494   22375699.5834
     -3631.5684
   -285317.32449   -224712.56648  21460361.2084   21460359.4194
        -4.3594
 04  9 14 21  2 30.0010000  0  6G 3G 8G13G19G23G27
    328546.49249    252143.04746  23362843.8414   23362843.7084
      -703.5734
  -2368826.75049  -1840614.73047  22466306.6464   22466304.9464
      1232.4644
   1658466.57049   1284777.80548  20569317.5674   20569316.3564
     -1417.6634
  -2154857.91449  -1675044.46947  23814030.8884   23814030.0794
      1257.7164
   5535596.43049   4290915.27747  22386084.3414   22386080.3924
     -3637.0604
   -285206.90649   -224626.51648  21460381.8884   21460379.9894
        -7.3614
 04  9 14 21  2 45.0010000  0  6G 3G 8G13G19G23G27
    339238.93048    260474.77046  23364879.2864   23364879.1224
      -712.8294
  -2387267.91849  -1854984.45347  22462797.3964   22462795.7714
      1229.4114
   1679845.88349   1301437.00048  20573385.8174   20573383.4664
     -1425.2874
  -2173648.54749  -1689686.50847  23810455.4424   23810454.1654
      1252.7094
   5590232.03949   4333488.47347  22396481.2634   22396478.2244
     -3642.3744
   -285053.91849   -224507.28148  21460411.1224   21460409.6774
       -10.1994
 04  9 14 21  3  0.0010000  0  6G 3G 8G13G19G23G27
    350073.14848    268916.99246  23366940.8964   23366940.9504
      -722.2814
  -2405660.35949  -1869316.20747  22459297.3564   22459295.8604
      1226.1634
   1701342.40649   1318187.53948  20577476.6304   20577473.9234
     -1433.1024
  -2192361.04749  -1704267.63747  23806893.8334   23806892.7634
      1247.5004
   5644950.13349   4376125.91047  22406893.8884   22406891.8134
     -3647.8734
   -284855.61349   -224352.78148  21460448.6924   21460447.3604
       -13.2204
 04  9 14 21  3 15.0010000  0  6G 3G 8G13G19G23G27
    361047.08648    277468.11346  23369028.3254   23369027.7354
      -731.5964
  -2424006.25849  -1883611.68047  22455805.9744   22455805.8804
      1223.0604
   1722954.10949   1335027.80548  20581589.3104   20581586.6924
     -1440.7804
  -2210997.06249  -1718789.17647  23803346.4114   23803345.8064
      1242.4014
   5699748.33649   4418825.79347  22417321.7864   22417319.1104
     -3653.2144
   -284614.21149   -224164.66448  21460494.3964   21460492.9424
       -16.0934
 04  9 14 21  3 30.0010000  0  6G 3G 8G13G19G23G27
    372162.33248    286129.47746  23371142.6924   23371143.8844
      -741.0164
  -2442304.18749  -1897869.82047  22452324.6694   22452323.9664
      1219.8624
   1744682.54349   1351959.05548  20585723.9814   20585721.0794
     -1448.5624
  -2229554.91849  -1733249.85247  23799816.4034   23799813.7474
      1237.1904
   5754628.00049   4461589.13347  22427765.0754   22427762.2674
     -3658.6444
   -284328.28149   -223941.86748  21460549.0994   21460548.1884
       -19.0624
 04  9 14 21  3 45.0010000  0  6G 3G 8G13G19G23G27
    383417.43848    294899.59446  23373285.3104   23373286.2084
      -750.3404
  -2460555.29749  -1912091.47347  22448851.2084   22448850.4624
      1216.7414
   1766526.37949   1368980.21948  20589880.8564   20589878.2474
     -1456.2564
  -2248035.73049  -1747650.48447  23796299.8724   23796298.0954
      1232.0544
   5809587.44149   4504414.63747  22438224.0994   22438219.8994
     -3663.9634
   -283999.27349   -223685.49648  21460611.9274   21460610.3294
       -21.9344
 04  9 14 21  4  0.0010000  0  6G 3G 8G13G19G23G27
    394812.44549    303778.84046  23375453.8724   23375455.3134
      -759.6674
  -2478759.93449  -1926276.86347  22445386.7864   22445385.2394
      1213.6424
   1788485.62949   1386091.32048  20594059.7164   20594056.7394
     -1463.9504
  -2266439.37549  -1761990.96147  23792797.0134   23792795.7244
      1226.9104
   5864626.53149   4547302.23847  22448697.4354   22448693.9504
     -3669.2734
   -283627.28149   -223395.63348  21460682.6694   21460681.4664
       -24.7994
 04  9 14 21  4 15.0010000  0  6G 3G 8G13G19G23G27
    406350.21149    312769.20346  23377649.3254   23377650.4934
      -769.1844
  -2496915.43049  -1940423.98847  22441932.0674   22441931.3064
      1210.3664
   1810562.84449   1403294.31648  20598260.8334   20598257.9074
     -1471.8144
  -2284762.68749  -1776268.85247  23789310.5444   23789308.8964
      1221.5544
   5919747.71149   4590253.76247  22459186.7164   22459182.8414
     -3674.7454
   -283209.73049   -223070.26248  21460761.9814   21460760.0994
       -27.8374
 04  9 14 21  4 30.0010000  0  6G 3G 8G13G19G23G27
    418028.54749    321869.21546  23379871.3724   23379872.3024
      -778.5564
  -2515023.89549  -1954534.46947  22438485.8724   22438486.7044
      1207.2314
   1832756.09049   1420587.74648  20602483.5524   20602481.3884
     -1479.5504
  -2303007.39149  -1790485.49247  23785838.8494   23785836.6494
      1216.3144
   5974948.78949   4633267.56647  22469691.1694   22469688.1534
     -3680.0724
   -282748.67649   -222710.96948  21460849.4424   21460847.4034
       -30.7374
 04  9 14 21  4 45.0010000  0  6G 3G 8G13G19G23G27
    429847.62549    331078.90246  23382120.7314   23382121.5634
      -787.9394
  -2533085.30549  -1968608.28547  22435049.0214   22435049.8134
      1204.0944
   1855065.50849   1437971.71148  20606729.3964   20606726.9424
     -1487.2954
  -2321173.24249  -1804640.69547  23782381.9744   23782379.8374
      1211.0574
   6030229.62949   4676343.51647  22480210.0444   22480207.7004
     -3685.3894
   -282244.19549   -222317.88748  21460945.8564   21460943.8884
       -33.6324
 04  9 14 21  5  0.0010000  0  6G 3G 8G13G19G23G27
    441806.44949    340397.43446  23384397.2634   23384397.9504
      -797.2554
  -2551100.89849  -1982646.38347  22431621.2314   22431619.7634
      1201.0404
   1877489.87549   1455445.23048  20610996.4894   20610994.6424
     -1494.9584
  -2339261.02349  -1818735.05147  23778940.0134   23778938.3564
      1205.8524
   6085588.82049   4719480.50847  22490745.7714   22490742.2864
     -3690.6134
   -281697.47749   -221891.87548  21461049.4504   21461047.9034
       -36.4484
 04  9 14 21  5 15.0010000  0  6G 3G 8G13G19G23G27
    453904.59849    349824.53946  23386700.0364   23386700.1534
      -806.5434
  -2569070.94149  -1996649.01647  22428200.8254   22428200.2244
      1198.0034
   1900028.87149   1473008.08248  20615285.8804   20615283.2824
     -1502.6004
  -2357270.64849  -1832768.51647  23775512.6534   23775511.0524
      1200.6424
   6141025.99649   4762678.27747  22501294.7314   22501291.5714
     -3695.8124
   -281108.93449   -221433.25048  21461161.7784   21461159.5994
       -39.2364
 04  9 14 21  5 30.0010000  0  6G 3G 8G13G19G23G27
    466144.59849    359362.19147  23389029.1924   23389029.9544
      -816.0004
  -2586992.92249  -2010614.19547  22424791.0134   22424789.0754
      1194.7994
   1922684.98849   1490662.19548  20619596.5364   20619594.9814
     -1510.4084
  -2375199.41849  -1846738.96547  23772100.8564   23772099.3254
      1195.2514
   6196543.34449   4805938.53547  22511858.9424   22511855.6104
     -3701.1574
   -280476.05549   -220940.10948  21461281.9894   21461280.4624
       -42.1924
 04  9 14 21  5 45.0010000  0  6G 3G 8G13G19G23G27
    478524.35249    369008.77347  23391385.3254   23391385.9154
      -825.3174
  -2604869.14149  -2024543.69947  22421389.2314   22421388.4034
      1191.7484
   1945456.07849   1508405.89548  20623930.2864   20623927.7984
     -1518.0734
  -2393049.24649  -1860647.91047  23768704.0444   23768701.6924
      1189.9894
   6252138.59849   4849259.48847  22522438.5284   22522435.7394
     -3706.3504
   -279801.18049   -220414.24248  21461410.8564   21461409.3604
       -44.9924
 04  9 14 21  6  0.0010000  0  6G 3G 8G13G19G23G27
    491043.13349    378763.64147  23393767.4584   23393767.9314
      -834.5854
  -2622700.27749  -2038438.07447  22417995.2554   22417995.0214
      1188.7424
   1968341.51649   1526238.70748  20628284.8104   20628282.2204
     -1525.6964
  -2410820.56649  -1874495.68047  23765322.1774   23765320.0364
      1184.7554
   6307810.73449   4892640.36347  22533031.9744   22533029.7354
     -3711.4764
   -279085.06249   -219856.21148  21461547.1614   21461545.7744
       -47.7414
 04  9 14 21  6 15.0010000  0  6G 3G 8G13G19G23G27
    503700.33249    388626.36347  23396175.8964   23396176.0364
      -843.8134
  -2640487.20349  -2052298.01647  22414611.2554   22414610.1144
      1185.7954
   1991340.53149   1544160.00848  20632661.5834   20632659.3804
     -1533.2684
  -2428513.89149  -1888282.68047  23761955.6304   23761953.8924
      1179.5554
   6363558.85249   4936080.42647  22543640.5284   22543637.5484
     -3716.5414
   -278328.54749   -219266.73048  21461690.6614   21461689.6964
       -50.4344
 04  9 14 21  6 30.0010000  0  6G 3G 8G13G19G23G27
    516496.74249    398597.58247  23398610.9034   23398611.4194
      -853.0944
  -2658229.11349  -2066122.87947  22411234.3564   22411234.6034
      1182.7944
   2014454.01649   1562170.49648  20637059.8964   20637058.2434
     -1540.8994
  -2446127.89149  -1902007.86347  23758603.7944   23758602.6424
      1174.2674
   6419383.69149   4979580.27347  22554264.6774   22554261.0874
     -3721.6564
   -277530.87949   -218645.14848  21461842.2554   21461840.8374
       -53.1784
 04  9 14 21  6 45.0010000  0  6G 3G 8G13G19G23G27
    529433.82849    408678.40247  23401072.6854   23401073.3024
      -862.4724
  -2675924.52049  -2079911.49247  22407867.2634   22407866.9784
      1179.6944
   2037683.23449   1580271.19548  20641479.7084   20641478.5794
     -1548.6154
  -2463661.03549  -1915670.04347  23755268.0134   23755266.3494
      1168.8764
   6475286.37949   5023140.78147  22564902.0994   22564898.7124
     -3726.8464
   -276690.71949   -217990.47748  21462002.0834   21462000.5014
       -56.0114
 04  9 14 21  7  0.0010000  0  6G 3G 8G13G19G23G27
    542512.22349    418869.34047  23403562.3564   23403561.4234
      -871.8934
  -2693572.83649  -2093663.40247  22404509.1464   22404509.0794
      1176.5544
   2061028.95349   1598462.65248  20645923.0134   20645920.7084
     -1556.3814
  -2481112.39549  -1929268.45347  23751946.7314   23751944.7244
      1163.4244
   6531267.36349   5066762.30147  22575555.1144   22575551.5914
     -3732.0664
   -275807.45349   -217302.20348  21462170.3174   21462168.5754
       -58.8844
 04  9 14 21  7 15.0010000  0  6G 3G 8G13G19G23G27
    555731.76649    429170.28147  23406077.0834   23406077.3534
      -881.3034
  -2711174.25849  -2107378.78947  22401159.9664   22401159.4934
      1173.4284
   2084490.91049   1616744.68048  20650387.5054   20650385.3644
     -1564.1304
  -2498481.75049  -1942803.00047  23748640.8804   23748639.0954
      1157.9574
   6587326.32849   5110444.57847  22586222.5754   22586220.5404
     -3737.2644
   -274881.28149   -216580.52747  21462346.0834   21462344.8604
       -61.7454
 04  9 14 21  7 30.0010000  0  6G 3G 8G13G19G23G27
    569092.08249    439580.91847  23408619.4744   23408619.2944
      -890.6884
  -2728729.23049  -2121057.97747  22397819.5444   22397819.1614
      1170.3324
   2108068.66449   1635116.94548  20654874.5754   20654872.4814
     -1571.8504
  -2515769.27749  -1956273.80547  23745351.1464   23745349.4114
      1152.5024
   6643462.54749   5154187.06347  22596904.6694   22596902.2904
     -3742.4154
   -273912.78149   -215825.84048  21462531.1534   21462529.3564
       -64.5674
 04  9 14 21  7 45.0010000  0  6G 3G 8G13G19G23G27
    582592.52749    450100.72746  23411187.7314   23411188.7944
      -900.0304
  -2746238.50049  -2134701.57047  22394487.6534   22394486.9934
      1167.2854
   2131761.65649   1653579.01248  20659383.0674   20659381.1224
     -1579.5334
  -2532975.33649  -1969681.10247  23742076.3564   23742075.1104
      1147.0714
   6699675.23849   5197989.11747  22607602.2314   22607599.7044
     -3747.5134
   -272902.60949   -215038.70348  21462722.9664   21462721.6774
       -67.3454
 04  9 14 21  8  0.0010000  0  6G 3G 8G13G19G23G27
    596233.52749    460730.03946  23413784.2714   23413785.4894
      -909.4004
  -2763701.84049  -2148309.33647  22391164.2554   22391163.1654
      1164.2234
   2155570.22349   1672131.13748  20663913.5994   20663911.4274
     -1587.2384
  -2550099.37949  -1983024.51247  23738818.2244   23738815.6854
      1141.6034
   6755964.49249   5241850.84447  22618312.8964   22618310.7634
     -3752.6174
   -271850.73849   -214219.04748  21462923.2004   21462922.2434
       -70.1254
 04  9 14 21  8 15.0010000  0  6G 3G 8G13G19G23G27
    610017.30149    471470.64146  23416406.5674   23416407.7824
      -918.9184
  -2781117.00449  -2161879.57847  22387849.3804   22387849.8644
      1161.0114
   2179496.61749   1690775.09048  20668466.5284   20668464.4034
     -1595.0934
  -2567138.74649  -1996301.92247  23735575.5674   23735573.6064
      1135.9584
   6812332.52349   5285773.97347  22629039.9194   22629037.7824
     -3757.8694
   -270754.67249   -213364.97748  21463131.6304   21463130.6264
       -73.0714
 04  9 14 21  8 30.0010000  0  6G 3G 8G13G19G23G27
    623941.15649    482320.37546  23419056.7554   23419055.6774
      -928.2574
  -2798486.87149  -2175414.55147  22384545.0994   22384543.7554
      1157.9914
   2203538.11749   1709508.70748  20673041.2394   20673039.2164
     -1602.7674
  -2584096.02349  -2009515.35547  23732349.3254   23732348.0914
      1130.4854
   6868776.27049   5329756.08647  22639781.3024   22639778.8064
     -3762.9164
   -269617.30549   -212478.72748  21463348.1464   21463347.4424
       -75.8244
 04  9 14 21  8 45.0010000  0  6G 3G 8G13G19G23G27
    638004.04349    493278.52046  23421733.0054   23421731.0484
      -937.5264
  -2815812.21949  -2188914.80547  22381247.7164   22381246.8684
      1155.0234
   2227693.63349   1728331.18448  20677638.1224   20677635.8334
     -1610.3684
  -2600971.75849  -2022665.29347  23729138.2554   23729135.6574
      1125.0494
   6925294.50849   5373796.22347  22650535.9814   22650534.0604
     -3767.8834
   -268439.73849   -211561.12148  21463572.6304   21463571.1064
       -78.5044
 04  9 14 21  9  0.0010000  0  6G 3G 8G13G19G23G27
    652206.93849    504345.71546  23424434.7784   23424433.6104
      -946.8604
  -2833092.31249  -2202379.80947  22377960.0674   22377959.4934
      1152.0064
   2251964.28149   1747243.37148  20682256.5834   20682254.6534
     -1618.0434
  -2617764.75849  -2035750.69947  23725942.6224   23725939.1964
      1119.5334
   6981888.06649   5417895.09047  22661304.9894   22661302.7354
     -3772.9044
   -267221.05949   -210611.49248  21463804.3724   21463802.8684
       -81.2454
 04  9 14 21  9 15.0010000  0  6G 3G 8G13G19G23G27
    666552.08649    515523.77746  23427164.3334   23427164.1064
      -956.3434
  -2850324.91849  -2215807.79747  22374680.6774   22374680.6424
      1148.8404
   2276352.12949   1766246.87948  20686897.7244   20686895.2354
     -1625.8574
  -2634472.71149  -2048769.84047  23722763.6774   23722761.0054
      1113.8644
   7038558.71149   5462054.01247  22672089.5054   22672087.3494
     -3778.0434
   -265959.27349   -209628.29348  21464043.9664   21464043.1424
       -84.1194
 04  9 14 21  9 30.0010000  0  6G 3G 8G13G19G23G27
    681036.48849    526810.26646  23429921.3254   23429921.7634
      -965.6274
  -2867513.05549  -2229201.14147  22371409.9194   22371408.7904
      1145.8764
   2300854.18049   1785339.36348  20691560.6464   20691557.6854
     -1633.4704
  -2651098.21949  -2061724.73047  23719599.3564   23719597.4624
      1108.3674
   7095303.29349   5506270.54747  22682887.4744   22682885.3024
     -3782.9724
   -264657.38349   -208613.82448  21464291.9814   21464290.3174
       -86.7934
 04  9 14 21  9 45.0010000  0  6G 3G 8G13G19G23G27
    695661.61349    538206.43046  23432705.0914   23432703.8334
      -975.0084
  -2884655.20349  -2242558.64847  22368146.9894   22368146.6494
      1142.8104
   2325471.77349   1804521.89548  20696244.6774   20696242.4354
     -1641.1734
  -2667639.53549  -2074614.05547  23716450.8564   23716450.0054
      1102.7544
   7152123.24249   5550545.78147  22693699.7634   22693697.1694
     -3787.9974
   -263314.01649   -207567.04348  21464547.8644   21464546.6464
       -89.5584
 04  9 14 21 10  0.0010000  0  6G 3G 8G13G19G23G27
    710427.78949    549712.58646  23435514.8024   23435513.5524
      -984.4124
  -2901751.34849  -2255880.31247  22364894.0364   22364891.9384
      1139.7434
   2350205.36349   1823794.82448  20700951.8104   20700949.9784
     -1648.9064
  -2684095.91049  -2087437.19947  23713319.6224   23713317.7554
      1097.0924
   7209018.64149   5594879.84447  22704527.0914   22704524.3174
     -3793.0274
   -261928.80549   -206487.65248  21464811.2944   21464810.3414
       -92.3474
 04  9 14 21 10 15.0010000  0  6G 3G 8G13G19G23G27
    725336.20349    561329.53146  23438351.2864   23438351.0054
      -993.8944
  -2918800.34849  -2269165.23047  22361650.2944   22361648.8334
      1136.6004
   2375056.16849   1843159.07448  20705680.4034   20705678.6734
     -1656.7204
  -2700466.02349  -2100193.11747  23710204.6854   23710202.9074
      1091.3414
   7265990.36749   5639273.36747  22715368.4974   22715365.3924
     -3798.1154
   -260500.79749   -205374.92648  21465083.0054   21465082.2674
       -95.2014
 04  9 14 21 10 30.0010000  0  6G 3G 8G13G19G23G27
    740385.78949    573056.45746  23441215.3964   23441214.6814
     -1003.3064
  -2935803.31649  -2282414.27347  22358413.9194   22358413.6344
      1133.5314
   2400023.03549   1862613.78548  20710431.4424   20710428.7394
     -1664.4584
  -2716750.69549  -2112882.43047  23707104.7394   23707103.6814
      1085.6454
   7323037.24249   5683725.42647  22726223.6694   22726220.6264
     -3803.1254
   -259030.98049   -204229.62948  21465362.5754   21465362.4464
       -97.9884
 04  9 14 21 10 45.0010000  0  6G 3G 8G13G19G23G27
    755576.47349    584893.39546  23444105.9814   23444105.3764
     -1012.7124
  -2952760.09449  -2295627.35247  22355187.9974   22355186.7164
      1130.4524
   2425105.87949   1882158.85248  20715204.2864   20715202.5954
     -1672.1904
  -2732949.66049  -2125504.97747  23704022.7314   23704021.0484
      1079.9314
   7380159.03549   5728235.89147  22737093.3724   22737090.5284
     -3808.1204
   -257519.61349   -203051.93047  21465650.5834   21465649.3604
      -100.7584
 04  9 14 21 11  0.0010000  0  6G 3G 8G13G19G23G27
    770908.39549    596840.34846  23447024.0444   23447023.6854
     -1022.1284
  -2969670.62949  -2308804.39547  22351970.0524   22351968.6614
      1127.3694
   2450304.88749   1901794.43048  20719999.9974   20719998.1384
     -1679.9344
  -2749062.56649  -2138060.47347  23700957.3024   23700956.0834
      1074.1944
   7437355.58249   5772804.58647  22747977.8884   22747975.2984
     -3813.1034
   -255966.44549   -201841.68448  21465946.1384   21465944.1144
      -103.5454
 04  9 14 21 11 15.0010000  0  6G 3G 8G13G19G23G27
    786381.89849    608897.64146  23449968.4194   23449967.8884
     -1031.5674
  -2986534.64849  -2321945.16447  22348760.4504   22348759.6304
      1124.2684
   2475620.32049   1921520.75048  20724817.0994   20724815.4274
     -1687.6964
  -2765088.75449  -2150548.39547  23697907.0994   23697906.1344
      1068.4134
   7494627.08249   5817431.70347  22758876.6774   22758874.2204
     -3818.1004
   -254371.37549   -200598.76248  21466249.6614   21466248.0604
      -106.3384
 04  9 14 21 11 30.0010000  0  6G 3G 8G13G19G23G27
    801997.25049    621065.45746  23452939.8254   23452939.5444
     -1041.0234
  -3003352.00849  -2335049.58247  22345559.9274   22345559.2744
      1121.1574
   2501052.42649   1941337.95748  20729656.5834   20729654.3494
     -1695.4744
  -2781027.60549  -2162968.26247  23694873.9114   23694872.5444
      1062.5904
   7551973.68049   5862117.32847  22769789.5994   22769786.9354
     -3823.1074
   -252734.21549   -199323.03948  21466561.4584   21466559.2474
      -109.1444
 04  9 14 21 11 45.0010000  0  6G 3G 8G13G19G23G27
    817754.32449    633343.69146  23455937.2244   23455938.3334
     -1050.4724
  -3020122.67249  -2348117.61747  22342368.3644   22342367.5134
      1118.0444
   2526600.93849   1961245.87948  20734518.1384   20734516.6964
     -1703.2344
  -2796879.17649  -2175320.10547  23691857.8174   23691855.4664
      1056.7714
   7609394.86349   5906861.06647  22780716.8024   22780713.4934
     -3828.0794
   -251055.07049   -198014.60948  21466880.8724   21466878.6774
      -111.9434
 04  9 14 21 12  0.0010000  0  6G 3G 8G13G19G23G27
    833654.03149    645733.03146  23458964.2784   23458963.6854
     -1059.9804
  -3036845.93449  -2361148.73847  22339187.0994   22339186.6734
      1114.8844
   2552267.09849   1981245.48448  20739402.4504   20739400.5794
     -1711.0774
  -2812642.07049  -2187602.83247  23688857.8334   23688856.6144
      1050.8604
   7666891.35949   5951663.52047  22791657.6144   22791655.5754
     -3833.1004
   -249333.18449   -196672.86748  21467208.0674   21467206.2434
      -114.7924
 04  9 14 21 12 15.0010000  0  6G 3G 8G13G19G23G27
    849693.07049    658230.98446  23462015.7164   23462015.3764
     -1069.2694
  -3053525.14549  -2374145.52747  22336012.8174   22336012.1654
      1111.9474
   2578047.51649   2001334.10948  20744308.3024   20744306.2944
     -1718.6954
  -2828319.38749  -2199818.89847  23685875.0834   23685873.0994
      1045.1544
   7724459.77049   5996522.00447  22802612.6694   22802609.3924
     -3837.8944
   -247571.76649   -195300.33248  21467543.4114   21467542.0874
      -117.4284
 04  9 14 21 12 30.0010000  0  6G 3G 8G13G19G23G27
    865872.48049    670838.29346  23465094.6384   23465094.5014
     -1078.6274
  -3070159.38349  -2387107.26247  22332847.3564   22332846.5714
      1108.9494
   2603943.00849   2021512.41848  20749236.0754   20749233.9894
     -1726.3664
  -2843909.72749  -2211967.18747  23682908.0524   23682905.8334
      1039.3564
   7782100.83249   6041437.09847  22813581.1144   22813578.3884
     -3842.7374
   -245770.01649   -193896.37948  21467886.2864   21467884.9194
      -120.1174
 04  9 14 21 12 45.0010000  0  6G 3G 8G13G19G23G27
    882189.76249    683553.09446  23468201.0674   23468200.6184
     -1087.8194
  -3086750.94549  -2400035.74647  22329689.7394   22329689.1424
      1106.1044
   2629951.30949   2041778.60548  20754185.1464   20754183.0954
     -1733.8874
  -2859415.19949  -2224049.33647  23679957.2944   23679954.2904
      1033.6984
   7839811.91049   6086406.72347  22824563.5284   22824560.8764
     -3847.4054
   -243930.28949   -192462.82048  21468236.3104   21468234.5054
      -122.6484
 04  9 14 21 13  0.0010000  0  6G 3G 8G13G19G23G27
    898646.19549    696376.28146  23471333.0604   23471332.4744
     -1097.0964
  -3103298.75049  -2412930.11347  22326540.8804   22326540.8104
      1103.1874
   2656073.60549   2062133.64848  20759156.4974   20759153.9744
     -1741.4864
  -2874834.34449  -2236064.25847  23677023.3494   23677021.2944
      1027.9434
   7897594.14549   6131431.79747  22835558.8964   22835555.3964
     -3852.1494
   -242051.46149   -190998.80148  21468594.2314   21468592.2354
      -125.2554
 04  9 14 21 13 15.0010000  0  6G 3G 8G13G19G23G27
    915242.77749    709308.69946  23474490.0134   23474490.0564
     -1106.4394
  -3119801.86349  -2425789.69147  22323400.4504   22323401.1574
      1100.2084
   2682310.81349   2082578.19948  20764148.9194   20764146.7784
     -1749.1474
  -2890165.98049  -2248010.93447  23674104.6534   23674104.4354
      1022.1094
   7955448.15649   6176512.80547  22846568.0914   22846564.8644
     -3856.9344
   -240132.64849   -189503.60548  21468959.2004   21468956.9664
      -127.9214
 04  9 14 21 13 30.0010000  0  6G 3G 8G13G19G23G27
    931978.18049    722349.27046  23477673.2244   23477673.5244
     -1115.6934
  -3136261.55949  -2438615.40647  22320268.1144   22320267.6144
      1097.3134
   2708661.60249   2103111.28148  20769163.3174   20769161.1224
     -1756.7194
  -2905411.07849  -2259890.22747  23671204.0604   23671204.4314
      1016.3404
   8013372.29749   6221648.49647  22857590.5524   22857588.0604
     -3861.6094
   -238175.33649   -187978.42648  21469331.5914   21469329.3174
      -130.4884
 04  9 14 21 13 45.0010000  0  6G 3G 8G13G19G23G27
    948853.89549    735499.14146  23480886.3564   23480885.0524
     -1125.0484
  -3152676.37149  -2451406.14547  22317143.8414   22317143.8644
      1094.3214
   2735127.32449   2123733.91448  20774199.4894   20774197.3024
     -1764.3824
  -2920568.06649  -2271700.84447  23668320.1144   23668318.4314
      1010.4664
   8071368.10949   6266839.99647  22868626.6384   22868623.8924
     -3866.3874
   -236178.09049   -186422.12948  21469711.2714   21469710.1464
      -133.1504
 04  9 14 21 14  0.0010000  0  6G 3G 8G13G19G23G27
    965873.54349    748761.17246  23484123.8414   23484123.7434
     -1134.6434
  -3169042.43749  -2464158.93047  22314030.2554   22314029.4354
      1091.0714
   2761711.88349   2144449.14548  20779258.7634   20779256.3024
     -1772.3044
  -2935632.64149  -2283439.44547  23665453.5674   23665451.5634
      1004.3054
   8129439.20749   6312090.17647  22879677.1464   22879674.7164
     -3871.4074
   -234136.90249   -184831.60548  21470099.5134   21470098.4194
      -136.0794
 04  9 14 21 14 15.0010000  0  6G 3G 8G13G19G23G27
    983036.36749    762134.83646  23487390.2474   23487389.9154
     -1144.1884
  -3185360.67649  -2476874.43447  22310925.4114   22310923.6104
      1087.8834
   2788414.44949   2165256.34448  20784340.0754   20784337.5054
     -1780.1714
  -2950605.43049  -2295106.52047  23662604.2474   23662601.6304
       998.1864
   8187584.25049   6357397.97747  22890741.9274   22890739.5834
     -3876.3364
   -232052.96149   -183207.77048  21470496.6224   21470494.7434
      -138.9294
 04  9 14 21 14 30.0010000  0  6G 3G 8G13G19G23G27
   1000340.44148    775618.46946  23490682.1064   23490683.2824
     -1153.6054
  -3201633.18049  -2489554.28147  22307828.6614   22307827.3454
      1084.8344
   2815233.11349   2186153.98848  20789443.4504   20789441.6494
     -1787.9114
  -2965488.08249  -2306703.37147  23659772.2554   23659770.3104
       992.1774
   8245801.29349   6402761.87947  22901819.8804   22901817.8884
     -3881.1364
   -229928.05949   -181551.98447  21470900.8104   21470898.9234
      -141.6604
 04  9 14 21 14 45.0010000  0  6G 3G 8G13G19G23G27
   1017787.24649    789213.31646  23494003.3104   23494003.6574
     -1163.1204
  -3217858.35549  -2502197.26247  22304740.7714   22304739.9784
      1081.6784
   2842169.28149   2207143.19548  20794569.1774   20794567.1264
     -1795.7454
  -2980278.90249  -2318228.65647  23656958.6384   23656955.3134
       986.0554
   8304091.65649   6448182.88347  22912913.0054   22912909.9314
     -3886.0244
   -227760.89549   -179863.28548  21471313.3104   21471311.5214
      -144.4784
 04  9 14 21 15  0.0010000  0  6G 3G 8G13G19G23G27
   1035374.91449    802918.03546  23497350.0054   23497349.5244
     -1172.5114
  -3234038.21949  -2514804.93747  22301662.0994   22301661.7514
      1078.6584
   2869221.16449   2228222.58248  20799717.2394   20799714.6464
     -1803.4594
  -2994979.42249  -2329683.58647  23654160.8494   23654159.0634
       980.0354
   8362453.34449   6493659.49247  22924018.7004   22924016.0954
     -3890.7794
   -225553.28149   -178143.05948  21471733.2084   21471731.7984
      -147.1744
 04  9 14 21 15 15.0010000  0  6G 3G 8G13G19G23G27
   1053103.08249    816732.19946  23500723.5524   23500722.4274
     -1181.8784
  -3250173.14549  -2527377.60947  22298592.1144   22298591.4384
      1075.6624
   2896388.30549   2249391.76248  20804886.5054   20804884.9504
     -1811.1434
  -3009589.67249  -2341068.14547  23651379.9424   23651377.7354
       974.0174
   8420885.67249   6539191.12947  22935138.7004   22935135.3684
     -3895.4894
   -223305.62149   -176391.63347  21472160.7084   21472159.9744
      -149.8444
 04  9 14 21 15 30.0010000  0  6G 3G 8G13G19G23G27
   1070975.02349    830658.37946  23504124.3254   23504122.3604
     -1191.4634
  -3266259.77749  -2539912.65647  22295530.5054   22295529.4974
      1072.4424
   2923674.00849   2270653.34848  20810078.7554   20810076.8024
     -1819.0474
  -3024106.07849  -2352379.61747  23648616.8174   23648615.4354
       967.7604
   8479391.64849   6584780.17247  22946272.0134   22946268.9424
     -3900.3984
   -221014.71949   -174606.53148  21472596.6064   21472595.8964
      -152.7274
 04  9 14 21 15 45.0010000  0  6G 3G 8G13G19G23G27
   1088989.03549    844695.25046  23507552.1464   23507550.7204
     -1200.9344
  -3282300.02349  -2552411.53547  22292477.3964   22292476.7124
      1069.3504
   2951076.60249   2292006.01648  20815293.6854   20815291.2984
     -1826.8404
  -3038530.02749  -2363619.02347  23645871.9424   23645871.5324
       961.5974
   8537969.44149   6630425.20747  22957418.0284   22957415.6854
     -3905.1864
   -218682.42649   -172789.14548  21473040.7474   21473039.2674
      -155.4864
 04  9 14 21 16  0.0010000  0  6G 3G 8G13G19G23G27
   1107146.41449    858843.83646  23511007.5754   23511007.8134
     -1210.4924
  -3298292.05949  -2564872.86747  22289434.8414   22289433.8174
      1066.1364
   2978597.30549   2313450.70348  20820530.8254   20820528.2714
     -1834.7144
  -3052859.93449  -2374785.19547  23643145.3414   23643144.2634
       955.3274
   8596620.26249   6676127.09447  22968579.6774   22968577.4354
     -3910.0554
   -216307.26649   -170938.37948  21473492.9744   21473491.1424
      -158.3444
 04  9 14 21 16 15.0010000  0  6G 3G 8G13G19G23G27
   1125447.91049    873104.74646  23514489.4744   23514490.7554
     -1220.1004
  -3314235.68749  -2577296.44547  22286401.1464   22286399.4074
      1062.9094
   3006236.82449   2334987.96548  20825790.1304   20825787.9464
     -1842.6354
  -3067094.88349  -2385877.33647  23640436.8884   23640435.0714
       948.9974
   8655344.58249   6721886.27047  22979754.6694   22979751.9314
     -3914.9554
   -213888.62149   -169053.72748  21473953.1384   21473951.8064
      -161.2434
 04  9 14 21 16 30.0010000  0  6G 3G 8G13G19G23G27
   1143894.98049    887479.07446  23518000.1614   23518000.2594
     -1229.8054
  -3330129.19549  -2589680.98047  22283376.1924   22283374.6854
      1059.5674
   3033996.74249   2356619.07048  20831072.6144   20831070.6064
     -1850.6614
  -3081233.02349  -2396894.00847  23637746.8964   23637745.1184
       942.5434
   8714143.73849   6767703.75447  22990943.6534   22990939.6534
     -3919.9444
   -211425.06649   -167134.07448  21474421.6464   21474420.6464
      -164.2374
 04  9 14 21 16 45.0010000  0  6G 3G 8G13G19G23G27
   1162488.71949    901967.70746  23521538.8174   23521538.3104
     -1239.5834
  -3345971.71949  -2602025.78147  22280361.7634   22280359.9274
      1056.1684
   3061878.09049   2378344.78548  20836378.4894   20836376.6734
     -1858.7574
  -3095272.93049  -2407834.18047  23635074.7314   23635073.2944
       935.9944
   8773018.59849   6813580.23447  23002147.2944   23002143.5524
     -3924.9914
   -208915.46149   -165178.54748  21474898.9424   21474898.3804
      -167.3074
 04  9 14 21 17  0.0010000  0  6G 3G 8G13G19G23G27
   1181225.86349    916568.03946  23525103.8804   23525104.9854
     -1249.1434
  -3361766.09449  -2614333.10547  22277356.5524   22277355.1534
      1052.9584
   3089877.80149   2400162.74248  20841706.6464   20841704.9234
     -1866.6474
  -3109217.44149  -2418699.98447  23632421.6854   23632419.1964
       929.6344
   8831965.78149   6859513.07047  23013364.3174   23013361.3374
     -3929.8124
   -206363.07849   -163189.68048  21475385.0054   21475384.3334
      -170.1594
 04  9 14 21 17 15.0010000  0  7G 3G 8G13G10G19G23G27
   1200108.28549    931281.63346  23528696.9974   23528698.0324
     -1258.8284
  -3377510.75849  -2626601.67647  22274359.9354   22274359.5834
      1049.6444
   3117997.61349   2422074.26248  20847057.7004   20847055.7434
     -1874.6544
    -49062.50818                  24460696.341

  -3123064.49649  -2429489.86747  23629786.9664   23629783.5284
       923.1374
   8890986.93449   6905503.55947  23024596.1694   23024593.6734
     -3934.7434
   -203766.19549   -161166.12548  21475879.6304   21475878.0174
      -173.1264
 04  9 14 21 17 30.0010000  0  7G 3G 8G13G10G19G23G27
   1219135.28149    946107.86346  23532318.5604   23532318.3414
     -1268.4664
  -3393206.31649  -2638831.97747  22271373.2864   22271372.7354
      1046.3714
   3146236.89849   2444078.88348  20852430.9744   20852429.5444
     -1882.6194
    -66792.03518                  24457321.028

  -3136814.57849  -2440204.17247  23627169.7244   23627168.1144
       916.6724
   8950081.22749   6951551.02047  23035841.5214   23035839.4934
     -3939.6204
   -201125.44549   -159108.39848  21476381.5914   21476380.1064
      -176.0504
 04  9 14 21 17 45.0020000  0  7G 3G 8G13G10G19G23G27
   1238310.30549    961049.46946  23535967.2444   23535966.8574
     -1278.3354
  -3408851.52749  -2651023.03147  22268395.8224   22268395.4754
      1043.0144
   3174599.56349   2466179.67248  20857828.0184   20857826.6114
     -1890.8444
    -84401.523 8                  24453971.486
      1173.966
  -3150465.91849  -2450841.57047  23624571.7054   23624571.5534
       910.0894
   9009254.59849   6997660.11747  23047101.8934   23047098.7094
     -3944.8914
   -198438.32449   -157014.53547  21476893.1114   21476891.6704
      -179.1414
 04  9 14 21 18  0.0020000  0  7G 3G 8G13G10G19G23G27
   1257627.33249    976101.69147  23539643.8934   23539643.3114
     -1287.8024
  -3424447.90649  -2663176.05947  22265428.2684   22265427.6194
      1039.7594
   3203078.51249   2488371.05548  20863247.4394   20863246.3734
     -1898.5974
   -101892.324 8                  24450642.533
      1166.053
  -3164020.01649  -2461403.19547  23621991.8384   23621991.2324
       903.6074
   9068495.30549   7043821.66447  23058374.6114   23058371.6234
     -3949.3804
   -195709.05149   -154887.84448  21477412.2214   21477410.9204
      -181.9524
 04  9 14 21 18 15.0020000  0  7G 3G 8G13G10G19G23G27
   1277089.47749    991267.01247  23543347.3694   23543347.0764
     -1297.4764
  -3439994.58649  -2675290.34847  22262470.0334   22262469.2754
      1036.4454
   3231677.53549   2510656.01248  20868690.1504   20868688.2794
     -1906.6024
   -119263.184 8                  24447336.518
      1158.057
  -3177475.52349  -2471887.97747  23619432.6664   23619429.7994
       897.0344
   9127809.23849   7090040.28147  23069661.2834   23069658.9984
     -3954.2624
   -192935.28949   -152726.46948  21477940.0964   21477938.5374
      -184.9174
 04  9 14 21 18 30.0020000  0  7G 3G 8G13G10G19G23G27
   1296695.19149   1006544.20746  23547077.0494   23547078.3894
     -1307.0484
  -3455493.12149  -2687367.09847  22259520.6894   22259519.2754
      1033.2364
   3260394.84449   2533033.10948  20874155.3144   20874152.4984
     -1914.4874
   -136515.645 8                  24444053.010
      1150.164
  -3190833.91049  -2482297.08247  23616891.3224   23616889.1504
       890.5594
   9187194.52049   7136314.48847  23080961.8934   23080959.6744
     -3959.0194
   -190118.92249   -150531.89548  21478476.3224   21478474.4474
      -187.7584
 04  9 14 21 18 45.0020000  0  7G 3G 8G13G10G19G23G27
   1316444.27349   1021933.10546  23550835.6664   23550835.9044
     -1316.6054
  -3470943.77749  -2699406.54347  22256580.4794   22256578.6784
      1030.0444
   3289230.35949   2555502.34048  20879641.7134   20879639.7644
     -1922.3684
   -153648.74218                  24440791.932
      1142.271
  -3204095.05149  -2492630.43747  23614366.2054   23614365.5844
       884.0764
   9246650.70749   7182643.96147  23092276.2834   23092273.6434
     -3963.7464
   -187260.04349   -148304.21148  21479020.7754   21479018.3544
      -190.5924
 04  9 14 21 19  0.0020000  0  7G 3G 8G13G10G19G23G27
   1336335.60249   1037432.82446  23554621.7444   23554620.0614
     -1326.0894
  -3486347.67649  -2711409.57847  22253649.2604   22253648.0104
      1026.9274
   3318183.03949   2578062.84848  20885151.7994   20885149.8074
     -1930.1794
   -170665.043 8                  24437554.314
      1134.420
  -3217259.58649  -2502888.48047  23611861.5964   23611860.2794
       877.6364
   9306176.52349   7229027.66847  23103604.0964   23103599.8894
     -3968.3884
   -184359.83649   -146044.30148  21479572.2444   21479570.5644
      -193.3474
 04  9 14 21 19 15.0020000  0  6G 3G 8G13G19G23G27
   1356369.76649   1053043.90246  23558433.0494   23558432.9904
     -1335.6114
  -3501704.01249  -2723375.55547  22250726.9474   22250725.3814
      1023.7564
   3347253.51249   2600715.14148  20890683.5414   20890681.9204
     -1938.0324
  -3230326.54749  -2513070.51647  23609374.3144   23609373.0184
       871.1314
   9365772.48049   7275466.07047  23114943.8074   23114941.5494
     -3973.0644
   -181417.54349   -143751.60948  21480132.0644   21480130.9084
      -196.1534
 04  9 14 21 19 30.0020000  0  6G 3G 8G13G19G23G27
   1376547.24249   1068766.59846  23562273.3144   23562274.0144
     -1345.1654
  -3517012.71949  -2735304.40647  22247813.8304   22247812.9984
      1020.5804
   3376442.10249   2623459.47748  20896237.8694   20896236.1074
     -1945.9064
  -3243295.40249  -2523176.09047  23606906.3144   23606905.1824
       864.5904
   9425438.79749   7321959.26647  23126298.2914   23126295.7014
     -3977.7544
   -178432.87549   -141425.90648  21480700.2754   21480698.7684
      -198.9784
 04  9 14 21 19 45.0020000  0  6G 3G 8G13G19G23G27
   1396867.74649   1084600.78546  23566139.9394   23566141.0374
     -1354.7004
  -3532273.91449  -2747196.25447  22244909.7684   22244909.2324
      1017.4134
   3405748.52349   2646295.66048  20901814.4714   20901813.0214
     -1953.7614
  -3256165.98849  -2533205.11347  23604458.2994   23604455.3614
       858.0394
   9485175.01249   7368506.92647  23137666.1824   23137663.7254
     -3982.4144
   -175405.98849   -139067.27748  21481275.9084   21481274.6194
      -201.7924
 04  9 14 21 20  0.0020000  0  6G 3G 8G13G19G23G27
   1417331.14849   1100546.27746  23570033.9864   23570033.5184
     -1364.2274
  -3547487.51649  -2759051.00047  22242014.4394   22242013.7134
      1014.2404
   3435172.79749   2669223.64548  20907414.2294   20907411.6624
     -1961.6184
  -3268938.14149  -2543157.40647  23602027.2914   23602025.0884
       851.4774
   9544980.89149   7415108.85547  23149045.5884   23149044.6784
     -3987.0594
   -172337.09849   -136675.93448  21481860.2134   21481859.1434
      -204.5934
 04  9 14 21 20 15.0020000  0  6G 3G 8G13G19G23G27
   1437938.06349   1116603.57446  23573954.8074   23573955.1274
     -1373.7944
  -3562652.72749  -2770868.04747  22239128.1824   22239127.0144
      1011.0144
   3464715.46949   2692243.89848  20913035.5804   20913034.2214
     -1969.5114
  -3281610.93449  -2553032.30547  23599615.8934   23599613.6464
       844.8534
   9604856.75449   7461765.35247  23160440.0414   23160438.0214
     -3991.7244
   -169225.64549   -134251.44148  21482452.1894   21482451.3694
      -207.4304
 04  9 14 21 20 30.0020000  0  6G 3G 8G13G19G23G27
   1458688.46149   1132772.71946  23577903.7054   23577904.2134
     -1383.3604
  -3577769.96149  -2782647.69147  22236252.0254   22236250.1824
      1007.8164
   3494376.54349   2715356.41448  20918679.9164   20918677.6314
     -1977.4054
  -3294184.10249  -2562829.56647  23597222.7684   23597220.6624
       838.2114
   9664802.55149   7508476.35247  23171848.4864   23171845.3964
     -3996.3864
   -166071.62149   -131793.75448  21483052.2604   21483051.7324
      -210.2684
 04  9 14 21 20 45.0020000  0  6G 3G 8G13G19G23G27
   1479581.28149   1149052.81646  23581879.3304   23581880.9434
     -1392.8554
  -3592840.05149  -2794390.61747  22233383.9004   22233382.7444
      1004.6734
   3524155.08649   2738560.47748  20924346.6744   20924344.6824
     -1985.2364
  -3306658.25049  -2572549.64547  23594849.1974   23594846.5254
       831.6104
   9724817.13349   7555240.94147  23183268.7294   23183265.5804
     -4000.9724
   -162875.84049   -129303.54348  21483660.5334   21483659.5844
      -213.0524
 04  9 14 21 21  0.0020000  0  6G 3G 8G13G19G23G27
   1500615.91049   1165443.44546  23585882.9394   23585882.8504
     -1402.3094
  -3607863.51249  -2806097.18747  22230525.4944   22230524.0414
      1001.5644
   3554050.35949   2761855.46948  20930036.2134   20930033.8574
     -1993.0184
  -3319033.84049  -2582192.96947  23592494.5884   23592492.7214
       825.0394
   9784899.64549   7602058.44147  23194702.4714   23194699.1434
     -4005.5014
   -159639.18749   -126781.47748  21484276.8384   21484274.9634
      -215.7774
 04  9 14 21 21 15.0020000  0  6G 3G 8G13G19G23G27
   1521792.48049   1181944.67246  23589913.0644   23589912.3574
     -1411.7714
  -3622840.21149  -2817767.35947  22227675.5254   22227674.3304
       998.4474
   3584062.53149   2785241.56648  20935747.0414   20935745.3854
     -2000.8114
  -3331310.38749  -2591759.08247  23590158.5024   23590156.6194
       818.4364
   9845049.94949   7648928.76247  23206148.7444   23206146.2134
     -4010.0204
   -156361.43049   -124227.39148  21484900.4084   21484898.3034
      -218.5174
 04  9 14 21 21 30.0020000  0  7G 3G 8G13G10G19G23G27
   1543108.83649   1198554.77346  23593968.3774   23593968.9864
     -1421.0904
  -3637772.31649  -2829402.74647  22224834.3854   22224832.9984
       995.4744
   3614189.77749   2808717.33248  20941479.9474   20941478.1004
     -2008.4834
                                  24406421.932

  -3343489.63349  -2601249.39847  23587840.3224   23587838.3964
       811.9504
   9905265.85549   7695850.21147  23217607.2054   23217603.9674
     -4014.3944
   -153044.58249   -121642.81648  21485531.1974   21485529.7994
      -221.1234
 04  9 14 21 21 45.0020000  0  6G 3G 8G13G19G23G27
   1564568.32449   1215276.45346  23598051.3144   23598052.7834
     -1430.6334
  -3652656.46549  -2841000.78147  22222001.4554   22222000.4324
       992.2774
   3644435.12549   2832285.11348  20947235.4324   20947233.1504
     -2016.3574
  -3355567.79749  -2610660.98447  23585542.7214   23585540.0614
       805.2114
   9965550.62949   7742825.30947  23229078.1974   23229075.9434
     -4018.9854
   -149685.41049   -119025.27748  21486170.4864   21486169.3144
      -223.9454
 04  9 14 21 22  0.0020000  0  7G 3G 8G13G10G19G23G27
   1586170.21948   1232109.19146  23602161.2364   23602163.0924
     -1440.1264
  -3667493.50049  -2852562.08647  22219177.8384   22219177.5214
       989.1364
   3674797.70749   2855944.25448  20953012.9244   20953011.3424
     -2024.1724
                                  24400468.057

  -3367545.73449  -2619994.42247  23583264.1274   23583261.1194
       798.5294
  10025903.06649   7789853.17247  23240563.6274   23240559.6004
     -4023.4964
   -146284.83249   -116375.47348  21486817.7684   21486816.4434
      -226.7054
 04  9 14 21 22 15.0020000  0  7G 3G 8G13G10G19G23G27
   1607913.62948   1249051.96146  23606299.8384   23606301.0024
     -1449.5614
  -3682284.08649  -2864087.21547  22216363.8774   22216362.5844
       986.0394
   3705276.90249   2879694.25848  20958813.3544   20958811.6044
     -2031.9464
    -26665.402 8                  24397525.463
      1030.809
  -3379423.81649  -2629250.04347  23581002.4714   23581000.6584
       791.8724
  10086322.23049   7836932.98047  23252062.2214   23252057.0844
     -4027.9444
   -142843.53149   -113693.94548  21487472.7524   21487470.8614
      -229.4204
 04  9 14 21 22 30.0020000  0  7G 3G 8G13G10G19G23G27
   1629798.92648   1266105.51246  23610464.1354   23610465.7444
     -1459.0204
  -3697027.89149  -2875575.87947  22213557.6114   22213556.7684
       982.9204
   3735873.02349   2903535.37948  20964635.2364   20964633.8224

     -2039.7414                   24394602.783
      2061.618
  -3391201.33649  -2638427.32047  23578761.2134   23578759.0104
       785.1684
  10146808.36749   7884065.01647  23263571.0334   23263567.6464
     -4032.4094
   -139361.13749   -110980.40648  21488135.1974   21488133.7324
      -232.1604
 04  9 14 21 22 45.0020000  0  7G 3G 8G13G10G19G23G27
   1651825.945 8                  23614656.924
     -1468.468
  -3711724.75049  -2887027.96547  22210761.0494   22210760.0214
       979.7914
   3766586.06349   2927467.61748  20970479.5724   20970478.2324

     -2047.5364     -57227.781 8  24391710.018
      1014.709
  -3402877.87149  -2647525.87547  23576539.3144   23576537.2994
       778.4364
  10207361.34049   7931249.10947  23275093.9164   23275090.9754
     -4036.8654
   -135837.62549   -108234.78948  21488805.3224   21488804.0254
      -234.9014
 04  9 14 21 23  0.0020000  0  7G 3G 8G13G10G19G23G27
   1673992.234 8                  23618875.150
     -1477.753
  -3726377.37149  -2898445.59047  22207972.3854   22207972.6074
       976.8414
   3797413.53549   2951489.02048  20976345.9084   20976344.4084

     -2055.1654     -72329.957 9  24388836.307
      1006.812
  -3414455.78549  -2656547.63747  23574335.3464   23574333.2954
       771.8614
  10267978.32449   7978483.10947  23286628.8934   23286625.2914
     -4041.1324
   -132275.57449   -105459.17248  21489483.4394   21489482.8934
      -237.4704
 04  9 14 21 23 15.0020000  0  7G 3G 8G13G10G19G23G27
   1696298.109 9                  23623120.205
     -1487.058
  -3740985.30149  -2909828.39547  22205192.5104   22205192.5574
       973.8624
   3828355.69549   2975599.77348  20982234.3224   20982232.3934
     -2062.8114
    -87313.00449   -239380.98456  24385984.9164   24385989.4004
       998.8704
  -3425934.38349  -2665491.99647  23572151.3074   23572149.7874
       765.2404
  10328659.50049   8025767.09847  23298176.4084   23298173.1824
     -4045.4124
   -128674.70749   -102653.30548  21490168.4394   21490168.1044
      -240.0584
 04  9 14 21 23 30.0020000  0  7G 3G 8G13G10G19G23G27
   1718745.664 8                  23627391.518
     -1496.504
  -3755546.57449  -2921174.84847  22202422.2054   22202421.4434
       970.7524
   3859414.65249   2999801.55548  20988144.8464   20988142.9244
     -2070.5974
   -102174.72349   -250961.53546  24383157.5724   24383160.3614
       990.7814
  -3437311.31249  -2674357.10247  23569987.3224   23569984.8424
       758.4624
  10389406.85249   8073102.63747  23309736.8074   23309732.8344
     -4049.8234
   -125032.89849    -99815.53948  21490861.4324   21490860.6354
      -242.7874
 04  9 14 21 23 45.0020000  0  7G 3G 8G13G10G19G23G27
   1741334.10218                  23631687.330
     -1505.949
  -3770061.85249  -2932485.44547  22199659.5574   22199658.4904
       967.6854
   3890589.53949   3024093.66448  20994076.9794   20994075.1004
     -2078.3264
   -116915.51649   -262447.83246  24380352.8144   24380353.8654
       982.7204
  -3448587.14549  -2683143.44147  23567841.2524   23567838.7294
       751.7224
  10450219.34049   8120488.97747  23321308.1664   23321305.6664
     -4054.1664
   -121350.95749    -96946.50048  21491562.8614   21491561.1664
      -245.4634
 04  9 14 21 24  0.0020000  0  7G 3G 8G13G10G19G23G27
   1764062.320 8                  23636014.432
     -1515.215
  -3784532.07449  -2943760.92247  22196906.1894   22196904.7484
       964.6824
   3921879.43849   3048475.39148  21000031.5334   21000028.6744
     -2085.9934
   -131536.12148   -273840.58646  24377568.8304   24377570.4864
       974.7074
  -3459762.45349  -2691851.46547  23565714.8074   23565711.8814
       745.0214
  10511095.93449   8167925.21547  23332891.5964   23332890.4204
     -4058.4404
   -117629.79349    -94046.88348  21492270.4634   21492269.0104
      -248.0784
 04  9 14 21 24 15.0020000  0  7G 3G 8G13G10G19G23G27
   1786931.324 9                  23640367.439
     -1524.600
  -3798956.30549  -2955000.58647  22194161.1044   22194161.1354
       961.6154
   3953285.35249   3072947.50448  21006007.9084   21006005.4754
     -2093.7284
   -146035.53148   -285138.98046  24374812.0254   24374811.0414
       966.6274
  -3470836.06649  -2700480.25047  23563607.6974   23563605.3734
       738.2414
  10572037.22749   8215411.90647  23344490.0644   23344487.1824
     -4062.7534
   -113868.48449    -91115.98448  21492986.2444   21492984.4944
      -250.7544
 04  9 14 21 24 30.0020000  0  7G 3G 8G13G10G19G23G27
   1809941.008 9                  23644745.369
     -1533.979
  -3813334.44949  -2966204.30147  22191425.2054   22191424.8384
       958.5434
   3984807.34049   3097510.07848  21012006.3384   21012003.7874
     -2101.4664
   -160413.42249   -296342.35946  24372074.7294   24372074.3774
       958.5264
  -3481807.59449  -2709029.49247  23561518.9944   23561517.2994
       731.4354
  10633043.19549   8262948.99647  23356098.7364   23356095.7604
     -4067.0654
   -110067.03149    -88153.81248  21493709.5104   21493707.9434
      -253.4304
 04  9 14 21 24 45.0020000  0  7G 3G 8G13G10G19G23G27
   1833089.996 9                  23649150.846
     -1543.266
  -3827667.83649  -2977373.17647  22188698.0884   22188697.3504
       955.5594
   4016443.86749   3122161.92248  21018026.4714   21018024.4984
     -2109.1024
   -174670.96549   -307452.13746  24369362.5494   24369361.9394
       950.5034
  -3492678.26249  -2717500.11747  23559450.7754   23559449.0254
       724.7114
  10694112.08649   8310535.10247  23367719.3224   23367717.7834
     -4071.2594
   -106226.84849    -85161.46948  21494440.2214   21494438.6544
      -256.0124
 04  9 14 21 25  0.0020000  0  7G 3G 8G13G10G19G23G27
   1856379.750 9                  23653584.221
     -1552.650
  -3841955.13749  -2988506.11747  22185979.0024   22185978.1314
       952.4874
   4048196.41449   3146904.16048  21024068.5964   21024066.0574
     -2116.8364
   -188806.39159   -318466.70356  24366672.5804   24366671.8464
       942.4804
  -3503446.20749  -2725890.72747  23557400.9244   23557400.4554
       717.8634
  10755245.35549   8358171.36347  23379353.6584   23379350.6074
     -4075.5514
   -102346.45749    -82137.77748  21495178.9794   21495177.7644
      -258.6934
 04  9 14 21 25 15.0020000  0  7G 3G 8G13G10G19G23G27
   1879810.922 9                  23658041.705
     -1562.078
  -3856195.52049  -2999602.52047  22183268.9944   22183268.3654
       949.3594
   4080065.67649   3171737.32848  21030133.5104   21030131.4324
     -2124.6174
   -202818.99248   -329385.48446  24364002.7444   24364005.8694
       934.1734
  -3514110.46549  -2734200.52747  23555372.8384   23555370.4864
       710.9514
  10816443.40249   8405858.11347  23390998.7524   23390996.0184
     -4079.8704
    -98425.16049    -79082.23848  21495924.7134   21495922.8934
      -261.4204
 04  9 14 21 25 30.0020000  0  7G 3G 8G13G10G19G23G27
   1903381.910 9                  23662525.455
     -1571.399
  -3870390.69149  -3010663.68747  22180567.6664   22180566.5574
       946.3454
   4112050.05549   3196660.21948  21036219.1824   21036217.2214
     -2132.2924
                                  24361359.7914   24361361.0024
       925.8674
  -3524672.25449  -2742430.46947  23553362.2604   23553360.0534
       704.1194
  10877704.51649   8453593.99247  23402656.9634   23402653.8264
     -4084.0744
    -94464.52049    -75996.03548  21496678.7834   21496677.0144
      -264.0434
 04  9 14 21 25 45.0020000  0  7G 3G 8G13G10G19G23G27
   1927094.480 8                  23667035.385
     -1580.838
  -3884538.49249  -3021687.96147  22177874.8464   22177874.7054
       943.1874
   4144151.44149   3221674.27348  21042328.1584   21042326.0724
     -2140.0924
   -230477.29749   -350937.46946  24358743.3464   24358740.4004
       917.8164
  -3535129.46549  -2750578.94947  23551372.6194   23551369.8184
       697.1474
  10939030.37549   8501380.32447  23414326.8854   23414324.1664
     -4088.3914
    -90462.66449    -72877.68748  21497440.4864   21497439.3614
      -266.7904
 04  9 14 21 26  0.0020000  0  7G 3G 8G13G10G19G23G27
   1950945.789 8                  23671577.689
     -1590.087
  -3898642.07049  -3032677.74647  22175191.3304   22175191.0494
       940.2394
   4176366.85949   3246777.19548  21048458.7364   21048456.7794
     -2147.6954
   -244123.68448   -361571.06646  24356146.7834   24356143.1194
       909.7594
  -3545484.90249  -2758648.08247  23549401.9394   23549398.9754
       690.3624
  11000417.86349   8549214.71547  23426007.8224   23426004.7404
     -4092.4994
    -86422.47349    -69729.48848  21498209.1824   21498208.1044
      -269.3464
 04  9 14 21 26 15.0020000  0  7G 3G 8G13G10G19G23G27
   1974937.402 9                  23676143.838
     -1599.441
  -3912699.61349  -3043631.66847  22172516.2834   22172516.0574
       937.1704
   4208698.14149   3271970.39148  21054611.7914   21054609.1114
     -2155.4194
   -257647.15648   -372108.75846  24353570.4084   24353568.8934
       901.5654
  -3555736.34449  -2766636.22347  23547451.5644   23547448.6314
       683.4294
  11061868.62949   8597098.41047  23437701.3144   23437698.5374
     -4096.7184
    -82342.26649    -66550.12148  21498985.2834   21498983.7914
      -272.0144
 04  9 14 21 26 30.0020000  0  7G 3G 8G13G10G19G23G27
   1999069.379 8                  23680733.619
     -1608.798
  -3926710.84049  -3054549.48047  22169850.8384   22169849.5064
       934.0824
   4241145.23449   3297253.80548  21060786.0334   21060783.5804
     -2163.1404
                                  24351020.229
       893.371
  -3565883.49249  -2774543.06247  23545520.7524   23545517.7684
       676.4774
  11123382.46149   8645031.21147  23449408.2604   23449404.7874
     -4100.9224
    -78221.98449    -63339.50448  21499769.7444   21499768.3074
      -274.6854
 04  9 14 21 26 45.0020000  0  6G 3G 8G13G19G23G27
   2023342.051 9                  23685354.252
     -1618.178
  -3940675.52749  -3065431.05547  22167193.1894   22167192.0884
       930.9794
   4273708.37149   3322627.66448  21066982.6894   21066980.2754
     -2170.8764
  -3575925.63349  -2782368.08247  23543609.4864   23543607.1974
       669.4764
  11184959.52349   8693013.26247  23461125.8304   23461122.6504
     -4105.1374
    -74061.20749    -60097.34848  21500561.2684   21500560.0764
      -277.3854
 04  9 14 21 27  0.0020000  0  7G 3G 8G13G10G19G23G27
   2047754.941 9                  23690000.955
     -1627.526
  -3954594.15249  -3076276.73047  22164544.5574   22164543.5184
       927.9084
   4306387.32049   3348091.76648  21073200.6824   21073198.9204
     -2178.5974
    -10332.92218                  24345994.033

  -3585862.89849  -2790111.39547  23541717.6824   23541717.4594
       662.4844
  11246599.25449   8741044.16447  23472855.1504   23472853.9124
     -4109.3154
    -69860.42649    -56824.00448  21501360.6434   21501359.8694
      -280.0524
 04  9 14 21 27 15.0020000  0  7G 3G 8G13G10G19G23G27
   2072306.781 8                  23694672.088
     -1636.789
  -3968468.05149  -3087087.54347  22161903.4714   22161903.8574
       924.9274
   4339180.63349   3373644.98048  21079441.5184   21079439.5334
     -2186.2214
    -23363.707 8                  24343513.572
       868.719
  -3595696.39149  -2797773.89147  23539847.7054   23539845.2994
       655.5664
  11308300.03149   8789122.68847  23484596.0184   23484594.6974
     -4113.3854
    -65620.91049    -53520.50848  21502167.7914   21502166.6074
      -282.6344
 04  9 14 21 27 30.0020000  0  7G 3G 8G13G10G19G23G27
                                  23699370.463
     -1646.053
  -3982297.19949  -3097863.52047  22159272.7444   22159272.2794
       921.9434
   4372088.09049   3399287.15648  21085703.2214   21085701.4754

     -2193.8304                   24341057.143
      1737.438
  -3605425.99649  -2805355.36747  23537995.7444   23537993.0294
       648.6404
  11370061.51649   8837248.49247  23496348.4394   23496347.1464
     -4117.4324
    -61342.98849    -50187.05148  21502981.5964   21502980.2874
      -285.1954
 04  9 14 21 27 45.0020000  0  6G 3G 8G13G19G23G27
   2121825.824 8                  23704096.854
     -1655.252
  -3996081.69149  -3108604.66447  22156649.7754   22156649.0454
       918.9664
   4405109.77749   3425018.32048  21091987.4864   21091985.6544
     -2201.4464
  -3615051.48849  -2812855.73847  23536163.8384   23536161.3344
       641.6994
  11431883.49649   8885421.41447  23508113.2604   23508110.3114
     -4121.4654
    -57026.54349    -46823.57848  21503803.1744   21503801.6934
      -287.7634
 04  9 14 21 28  0.0020000  0  6G 3G 8G13G19G23G27
   2146792.301 8                  23708845.205
     -1664.432
  -4009822.46549  -3119311.75047  22154034.9944   22154033.4044
       916.0524
   4438244.67249   3450837.71548  21098292.9394   21098291.4244
     -2208.9934
  -3624573.48449  -2820275.44547  23534350.9634   23534350.2254
       634.8004
  11493764.95749   8933640.66847  23519888.9714   23519885.6434
     -4125.4314
    -52672.46949    -43430.77748  21504631.5254   21504630.2604
      -290.2724
 04  9 14 21 28 15.0020000  0  7G 3G 8G13G10G19G23G27
   2171898.488 8                  23713625.057
     -1673.746
  -4023517.01249  -3129982.82047  22151428.9244   22151427.3854
       912.9704
   4471495.03549   3476747.08248  21104619.9244   21104618.5184
     -2216.6914
     -7508.45318                  24333824.986

  -3633989.44149  -2827612.53947  23532559.7444   23532557.8964
       627.7304
  11555708.02049   8981907.96147  23531676.6434   23531673.0184
     -4129.5384
    -48278.44949    -40006.87148  21505467.6974   21505466.7134
      -292.9354
 04  9 14 21 28 30.0020000  0  7G 3G 8G13G10G19G23G27
   2197142.039 8                  23718427.041
     -1682.903
  -4037168.14149  -3140620.05147  22148830.3694   22148830.5924
       910.0754
   4504858.25049   3502744.36748  21110969.2214   21110966.8074
     -2224.2144
    -19925.531 8                  24331464.455
       827.805
  -3643301.62949  -2834868.75847  23530787.8934   23530785.6274
       620.8134
  11617709.88349   9030221.05147  23543474.7294   23543472.4674
     -4133.4584
    -43847.03149    -36553.82848  21506311.0104   21506309.5574
      -295.4284
 04  9 14 21 28 45.0020000  0  7G 3G 8G13G10G19G23G27
   2222522.164 8                  23723256.275
     -1692.008
  -4050776.11749  -3151223.65647  22146241.6044   22146240.9904
       907.1984
   4538333.83249   3528829.23448  21117338.9794   21117336.9244
     -2231.7054
    -32220.977 8                  24329123.713
       819.696
  -3652510.15649  -2842044.22747  23529035.7134   23529032.8934
       613.9024
  11679769.84049   9078579.38747  23555284.6044   23555283.1824
     -4137.3304
    -39378.87149    -33072.13747  21507161.0494   21507159.4984
      -297.8774
 04  9 14 21 29  0.0020000  0  7G 3G 8G13G10G19G23G27
   2248038.973 8                  23728111.111
     -1701.121
  -4064340.93449  -3161793.64547  22143660.3304   22143658.6934
       904.3214
   4571921.82049   3555001.66448  21123730.2364   21123728.7094
     -2239.1994
    -44394.309 8                  24326807.057
       811.555
  -3661614.73449  -2849138.68747  23527303.4084   23527300.4364
       606.9724
  11741887.77749   9126982.94547  23567106.3854   23567103.7134
     -4141.1964
    -34873.62949    -29561.57448  21508018.1434   21508017.5064
      -300.3494
 04  9 14 21 29 15.0020000  0  7G 3G 8G13G10G19G23G27
   2273693.539 8                  23732993.314
     -1710.304
  -4077861.39549  -3172329.07047  22141087.4164   22141086.2714
       901.3644
   4605623.22349   3581262.50048  21130143.2214   21130141.7444
     -2246.7604
    -56444.469 9                  24324515.244
       803.344
  -3670614.01649  -2856151.11747  23525591.6504   23525588.3424
       599.9524
  11804064.64149   9175432.42247  23578937.1894   23578935.6194
     -4145.1244
    -30330.39849    -26021.40248  21508883.1894   21508881.8894
      -302.8824
 04  9 14 21 29 30.0020000  0  8G 3G 8G13G10G19G28G23G27
   2299483.262 8                  23737902.580
     -1719.315
  -4091339.76249  -3182831.69947  22138522.8854   22138521.1114
       898.5584
   4639435.73849   3607609.90248  21136577.8384   21136575.6234
     -2254.1684
    -68373.441 9                  24322244.846
       795.265
  -3679510.02349  -2863083.05147  23523897.2834   23523896.1114
       593.0674
   -101218.56219                  24246970.564

  11866297.96549   9223925.89147  23590779.3384   23590778.2644
     -4148.8884
    -25751.47349    -22453.39548  21509754.9864   21509753.1314
      -305.2624
 04  9 14 21 29 45.0020000  0  8G 3G 8G13G10G19G28G23G27
   2325409.449 8                  23742835.721
     -1728.412
  -4104775.08649  -3193300.73447  22135965.9714   22135964.8614
       895.6884
   4673360.46549   3634044.71948  21143033.8224   21143031.9324
     -2261.6484
    -80179.879 8                  24319997.877
       787.096
  -3688301.36349  -2869933.44547  23522224.5804   23522222.6824
       586.0894
   -135173.746 9                  24240509.104
      2263.679
  11928588.55149   9272463.97347  23602633.4714   23602631.5574
     -4152.7064
    -21135.72349    -18856.69948  21510632.8074   21510630.8614
      -307.7174
 04  9 14 21 30  0.0020000  0  8G 3G 8G13G10G19G28G23G27
   2351472.781 9                  23747798.135
     -1737.555
  -4118166.47749  -3203735.59047  22133417.2834   22133416.6624
       892.7594
   4707398.10549   3660567.54748  21149510.7604   21149509.4634
     -2269.1764
    -91862.820 9                  24317775.205
       778.863
  -3696987.06649  -2876701.50847  23520571.7684   23520570.5494
       579.0474
   -169084.520 9                  24234055.268
      2260.718
  11990936.87149   9321047.03147  23614497.6824   23614495.7364
     -4156.5554
    -16482.41049    -15230.75048  21511518.3384   21511517.2364
      -310.2214
 04  9 14 21 30 15.0020000  0  8G 3G 8G13G10G19G28G23G27
   2377672.469 9                  23752782.502
     -1746.646
  -4131514.64149  -3214136.75847  22130877.9084   22130876.7444
       889.8784
   4741548.23449   3687178.03548  21156009.5494   21156007.6074
     -2276.6754
                                  24315572.541
       770.630
  -3705567.27049  -2883387.39847  23518939.2054   23518937.0184
       572.0144
   -202950.945 9                  24227611.752
      2257.762
  12053342.41449   9369674.66447  23626373.3224   23626371.1194
     -4160.3704
    -11791.94149    -11575.83248  21512410.6274   21512409.5214
      -312.6984
 04  9 14 21 30 30.0020000  0  7G 3G 8G13G19G28G23G27
   2404008.121 9                  23757794.385
     -1755.710
  -4144819.72349  -3224504.32847  22128345.6744   22128345.2254
       887.0054
   4775810.16849   3713875.62948  21162529.2604   21162527.2524
     -2284.1294
  -3714042.26649  -2889991.25047  23517326.4714   23517323.4514
       565.0004
   -236773.342 9                  24221174.979
      2254.826
  12115804.43049   9418346.31647  23638258.6744   23638257.5214
     -4164.1344
     -7064.86749     -7892.40248  21513309.7754   21513309.0454
      -315.1384
 04  9 14 21 30 45.0020000  0  7G 3G 8G13G19G28G23G27
   2430478.867 8                  23762831.275
     -1764.716
  -4158082.59049  -3234839.05147  22125821.9084   22125821.4714
       884.1914
   4810183.39849   3740659.96148  21169070.2054   21169068.2014
     -2291.5494
  -3722412.25449  -2896513.31647  23515733.7994   23515730.9794
       557.9994
   -270552.10249   -279630.05156  24214747.2214   24214745.7254
      2251.9174
  12178322.11749   9467061.36347  23650155.0964   23650153.9794
     -4167.8464
     -2301.72749     -4180.88348  21514217.0414   21514215.6004
      -317.5434
 04  9 14 21 31  0.0020000  0  6G 8G13G19G28G23G27
  -4171300.47749  -3245138.70747  22123306.2604   22123305.8074
       881.1924
   4844670.48849   3767532.99248  21175632.5884   21175631.0494
     -2299.1394
  -3730674.52749  -2902951.42647  23514161.0644   23514159.7014
       550.8184
   -304284.50449   -305915.01246  24208327.5644   24208326.3574
      2248.8274
  12240897.95749   9515821.69147  23662063.8304   23662061.9434
     -4171.7234
      2500.02049      -439.27747  21515130.5884   21515128.9044
      -320.1164
 04  9 14 21 31 15.0020000  0  7G 8G13G10G19G28G23G27
  -4184473.27049  -3255403.21547  22120799.5254   22120798.8544
       878.1864
   4879271.19949   3794494.57448  21182217.2364   21182215.4514
     -2306.7144
     -3967.90618                  24307010.635

  -3738828.82049  -2909305.41847  23512609.4394   23512607.7254
       543.6204
   -337970.55549   -332163.79346  24201917.4864   24201916.8504
      2245.7374
  12303531.56649   9564627.03947  23673983.6114   23673980.2444
     -4175.5744
      7340.36349      3332.43848  21516052.1354   21516050.3964
      -322.6904
 04  9 14 21 31 30.0020000  0  8G 3G 8G13G10G19G28G23G27
                                  23778103.721

  -4197602.94149  -3265634.11347  22118301.4244   22118300.0184
       875.3114
   4913983.66049   3821543.24648  21188822.6434   21188820.6274

     -2314.1644                   24304928.408
     -2321.614
  -3746876.78149  -2915576.56647  23511078.6114   23511076.0764
       536.5314
   -371611.89149   -358377.79346  24195515.7914   24195515.4124
      2242.7564
  12366220.85949   9613475.83647  23685912.1584   23685910.1744
     -4179.2864
     12217.37549      7132.73848  21516979.3384   21516978.0454
      -325.1344
 04  9 14 21 31 45.0020000  0  8G 3G 8G13G10G19G28G23G27
     54256.54718                  23783241.807

  -4210685.63349  -3275828.40647  22115811.3144   22115810.0804
       872.1794
   4948811.72749   3848681.97348  21195450.0574   21195448.4984

     -2321.8714     -25721.246 8  24302872.400
       720.855
  -3754814.37949  -2921761.68747  23509567.4474   23509565.4394
       529.1734
   -405204.31249   -384553.65646  24189123.3694   24189122.9044
      2239.4954
  12428969.53549   9662370.83647  23697853.1894   23697850.1664
     -4183.2454
     17134.80949     10964.48848  21517915.3384   21517913.9984
      -327.8294
 04  9 14 21 32  0.0020000  0  7G 3G 8G13G19G28G23G27
     81416.246 8                  23788409.939
     -1810.647
  -4223722.43749  -3285986.96147  22113331.0574   22113329.7834
       869.1204
   4983754.19549   3875909.85948  21202099.4394   21202098.1584
     -2329.4984
  -3762642.36749  -2927861.39847  23508077.8074   23508075.1934
       521.8664
   -438748.81649   -410692.19146  24182739.7684   24182739.8384
      2236.3004
  12491776.30949   9711311.11347  23709805.2994   23709802.3934
     -4187.1184
     22091.72749     14827.02348  21518858.4944   21518857.3694
      -330.4614
 04  9 14 21 32 15.0020000  0  7G 3G 8G13G19G28G23G27
    108712.13718                  23793603.213
     -3621.293
  -4236715.21949  -3296111.19547  22110858.2604   22110857.0214
       866.1854
   5018809.15249   3903225.39848  21208770.2134   21208768.2564
     -2336.9974
  -3770362.27049  -2933876.88347  23506609.0964   23506605.5764
       514.6604
   -472247.10949   -436794.75446  24176365.7754   24176364.7604
      2233.2204
  12554639.16449   9760295.12947  23721767.5724   23721764.8264
     -4190.8574
     27086.31349     18718.90248  21519809.4084   21519808.1234
      -332.9724
 04  9 14 21 32 30.0020000  0  8G 3G 8G13G10G19G28G23G27
                                  23798820.400
     -5431.940
  -4249663.99249  -3306201.13747  22108394.7214   22108393.1894
       863.2524
   5053976.68849   3930628.66448  21215462.8544   21215460.0574
     -2344.5024
                                  24296843.580

  -3777973.77349  -2939807.88747  23505160.3694   23505157.9364
       507.4344
   -505699.08249   -462861.17646  24169999.6354   24169998.6274
      2230.1324
  12617557.80149   9809322.57047  23733740.4164   23733738.2874
     -4194.5764
     32118.49649     22640.09448  21520766.7134   21520765.8614
      -335.4794
 04  9 14 21 32 45.0020000  0  7G 8G13G10G19G28G23G27
  -4262569.17249  -3316257.10947  22105939.1354   22105937.4394
       860.3454
   5089256.21949   3958119.18448  21222176.1194   21222174.3934
     -2351.9694
    -19063.652 8                  24294881.158
       687.385
  -3785477.27349  -2945654.78147  23503732.5884   23503731.0184
       500.2334
   -539105.12549   -488891.84046  24163642.7294   24163641.6234
      2227.0704
  12680531.45749   9858392.89547  23745723.9944   23745721.7604
     -4198.2444
     37187.73849     26590.13748  21521731.5804   21521730.0494
      -337.9494
 04  9 14 21 33  0.0020000  0  7G 8G13G10G19G28G23G27
  -4275428.64849  -3326277.46147  22103491.3384   22103490.3774
       857.2984
   5124649.73449   3985698.53148  21228911.3074   21228909.1704
     -2359.5684
    -29247.32018                  24292944.322
      1374.769
  -3792870.38349  -2951415.62547  23502326.0574   23502324.4634
       492.8744
   -572462.80549   -514884.80947  24157295.1504   24157294.4434
      2223.8454
  12743562.20349   9907507.67647  23757717.9794   23757716.5414
     -4202.0504
     42296.14149     30570.71548  21522703.3774   21522701.9674
      -340.5604
 04  9 14 21 33 15.0020000  0  7G 8G13G10G19G28G23G27
  -4288244.87949  -3336264.14147  22101052.7604   22101051.2054
       854.4154
   5160154.70749   4013364.73448  21235667.3074   21235665.5064
     -2366.9984
    -39306.152 8                  24291027.893
       670.589
  -3800155.31649  -2957092.18047  23500939.5804   23500938.0064
       485.6624
   -605774.58249   -540842.00047  24150956.1584   24150955.9754
      2220.7854
  12806647.29749   9956664.85247  23769722.1114   23769721.7444
     -4205.6734
     47441.19949     34579.85548  21523682.6664   21523680.9674
      -343.0044
 04  9 14 21 33 30.0020000  0  7G 8G13G10G19G28G23G27
  -4301015.12149  -3346214.97347  22098621.9944   22098621.6664
       851.3494
   5195773.77749   4041119.84848  21242445.3774   21242443.5104
     -2374.6054
                                  24289138.596
       -33.592
  -3807329.25849  -2962682.23447  23499574.4004   23499572.3074
       478.2634
   -639037.45349   -566761.07847  24144626.0414   24144626.0184
      2217.5254
  12869789.10249  10005866.19547  23781738.8854   23781738.0064
     -4209.4544
     52625.76249     38619.75048  21524668.8074   21524667.6784
      -345.6374
 04  9 14 21 33 45.0020000  0  7G 8G13G10G19G28G23G27
  -4313740.62149  -3356130.93447  22096200.9324   22096199.9554
       848.3674
   5231505.68449   4068962.87548  21249245.3544   21249244.2604
     -2382.1274
    -59041.38318                  24287274.471
      -737.772
  -3814393.00449  -2968186.44947  23498229.4554   23498228.9364
       470.9164
   -672252.41049   -592642.81647  24138305.1274   24138305.4714
      2214.3304
  12932986.30949  10055110.76247  23793764.9714   23793763.3144
     -4213.1474
     57848.45749     42689.39148  21525662.8774   21525661.5644
      -348.1804
 04  9 14 21 34  0.0020000  0  8G 3G 8G13G10G19G28G23G27
     13950.74618                  23830695.924

  -4326421.75849  -3366012.33247  22093787.5334   22093787.1044
       845.4094
   5267350.09049   4096893.57448  21256066.3774   21256064.9474
     -2389.6274
                                  24285430.408
     -2397.127
  -3821346.50849  -2973604.74247  23496906.4714   23496905.0964
       463.5674
   -705419.56249   -618487.31647  24131994.7604   24131994.2364
      2211.1434
  12996238.46549  10104398.07847  23805802.3074   23805799.7014
     -4216.8104
     63109.11749     46788.60248  21526663.9634   21526662.5964
      -350.7114
 04  9 14 21 34 15.0020000  0  6G 8G13G19G28G23G27
  -4339057.09449  -3375858.05147  22091383.4794   22091382.2794
       842.3564
   5303308.30149   4124912.95348  21262908.8774   21262907.4754
     -2397.2144
  -3828188.43749  -2978936.09847  23495604.8544   23495601.6584
       456.1294
   -738537.50049   -644293.47747  24125691.8144   24125692.1704
      2207.8634
  13059546.65649  10153729.07447  23817848.9714   23817846.5064
     -4220.5464
     68409.11349     50918.47348  21527672.1114   21527671.1704
      -353.3334
 04  9 14 21 34 30.0020000  0  6G 8G13G19G28G23G27
  -4351647.49249  -3385668.75047  22088987.5804   22088986.5334
       839.3604
   5339379.32049   4153020.21548  21269773.1274   21269770.9674
     -2404.7354
  -3834919.25849  -2984180.88347  23494323.7684   23494320.4324
       448.7214
   -771606.88749   -670061.77047  24119399.2834   24119399.2174
      2204.6264
  13122909.85549  10203102.98047  23829905.2994   23829904.5374
     -4224.2134
     73747.55149     55078.30948  21528688.6504   21528686.6044
      -355.8964
 04  9 14 21 34 45.0020000  0  7G 8G13G10G19G28G23G27
  -4364190.72749  -3395442.70347  22086600.1824   22086599.8424
       836.2164
   5375565.19949   4181216.99248  21276658.7604   21276657.3694
     -2412.3924
    -15568.11318                  24280056.627

  -3841536.69149  -2989337.29747  23493064.1744   23493062.2754
       441.1624
   -804625.48049   -695790.52047  24113115.6274   24113115.4944
      2201.2404
  13186329.85249  10252521.13747  23841974.5494   23841972.8424
     -4228.0004
     79126.34049     59269.56347  21529711.9084   21529709.9824
      -358.5864
 04  9 14 21 35  0.0020000  0  7G 8G13G10G19G28G23G27
  -4376689.41849  -3405181.92247  22084222.1354   22084220.9044
       833.2464
   5411863.35249   4209501.25048  21283566.3304   21283564.7874

     -2419.8774                   24278314.088

  -3848043.05149  -2994407.14147  23491826.2914   23491824.5104
       433.7574
   -837595.86749   -721481.69947  24106841.3224   24106840.7604
      2198.0264
  13249803.77749  10301981.26647  23854053.3854   23854051.4754
     -4231.5954
     84543.01249     63490.34048  21530743.0964   21530740.9474
      -361.1114
 04  9 14 21 35 15.0020000  0  6G 8G13G19G28G23G27
  -4389142.56649  -3414885.67647  22081852.1744   22081851.0024
       830.2104
   5448274.60249   4237873.62948  21290494.8304   21290493.6004
     -2427.4174
  -3854436.97349  -2999389.45347  23490609.3934   23490607.8464
       426.2614
   -870516.71549   -747134.28546  24100576.6434   24100575.8614
      2194.7234
  13313332.52349  10351484.14147  23866142.0104   23866139.3734
     -4235.2504
     89998.59449     67741.46148  21531781.4324   21531779.2404
      -363.7054
 04  9 14 21 35 30.0020000  0  6G 8G13G19G28G23G27
  -4401549.94149  -3424553.74247  22079491.0724   22079489.8964
       827.1584
   5484799.19149   4266334.34048  21297445.1974   21297444.1704
     -2434.9734
  -3860718.10549  -3004283.82047  23489414.7054   23489412.1664
       418.7424
   -903387.51649   -772747.84846  24094321.6354   24094320.5494
      2191.3874
  13376916.13749  10401029.73047  23878242.4164   23878239.0144
     -4238.9084
     95493.41449     72023.13348  21532826.8544   21532824.8344
      -366.3214
 04  9 14 21 35 45.0020000  0  7G 3G 8G13G19G28G23G27
     33080.94918                  23869051.291

  -4413911.73449  -3434186.30147  22077138.8694   22077138.3344
       824.1204
   5521437.02349   4294883.27348  21304417.6974   21304415.7564
     -2442.5224
  -3866886.42649  -3009090.27347  23488240.9634   23488238.2754
       411.2214
   -936208.30549   -798322.44547  24088076.7754   24088075.0764
      2188.0534
  13440554.14149  10450617.73847  23890352.0494   23890350.3934
     -4242.5344
    101027.15649     76335.14847  21533879.1044   21533877.9554
      -368.9164
 04  9 14 21 36  0.0020000  0  6G 8G13G19G28G23G27
  -4426227.09449  -3443782.70347  22074795.9394   22074794.5614
       821.0244
   5558188.75849   4323520.98448  21311411.3854   21311409.9754
     -2450.1164
  -3872940.77349  -3013807.91447  23487088.9164   23487086.0924
       403.6234
   -968978.12149   -823857.32847  24081840.5644   24081840.0144
      2184.6544
  13504247.28549  10500248.69547  23902472.4864   23902470.1314
     -4246.2104
    106600.81649     80678.23848  21534940.3544   21534939.2214
      -371.5774
 04  9 14 21 36 15.0020000  0  6G 8G13G19G28G23G27
  -4438497.12949  -3453343.75847  22072461.0254   22072459.3504
       818.0024
   5595052.85549   4352246.24648  21318425.8464   21318424.8304
     -2457.6074
  -3878882.33249  -3018437.66447  23485958.4164   23485955.7364
       396.1044
  -1001698.14149   -849353.43447  24075613.2994   24075613.5214
      2181.3354
  13567993.94549  10549921.39147  23914603.3144   23914600.0494
     -4249.7774
    112213.00449     85051.39548  21536007.7754   21536006.9714
      -374.1464
 04  9 14 21 36 30.0020000  0  6G 8G13G19G28G23G27
  -4450719.90649  -3462868.00047  22070135.3074   22070133.4824
       814.8524
   5632031.44149   4381060.71548  21325463.1194   21325461.3544
     -2465.2394
  -3884708.65649  -3022977.64547  23484849.3854   23484846.9634
       388.4224
  -1034366.24649   -874809.09047  24069397.6354   24069397.6664
      2177.8744
  13631796.09049  10599637.30547  23926743.4714   23926741.9754
     -4253.4764
    117865.67249     89456.05548  21537083.6664   21537082.3734
      -376.8454
 04  9 14 21 36 45.0020000  0  6G 8G13G19G28G23G27
  -4462897.28149  -3472356.83247  22067817.3614   22067816.5104
       811.8254
   5669122.93849   4409963.17248  21332521.2134   21332519.4944
     -2472.7664
  -3890421.24249  -3027428.97347  23483761.8074   23483759.5764
       380.8394
  -1066983.73049   -900225.30946  24063190.6894   24063190.1864
      2174.4994
  13695651.68449  10649394.83247  23938895.4794   23938894.2604
     -4257.0404
    123557.28149     93891.07848  21538166.4394   21538165.4124
      -379.4414
 04  9 14 21 37  0.0020000  0  7G 8G13G10G19G28G23G27
  -4475027.93449  -3481809.28147  22065508.8854   22065507.9244
       808.7104
   5706328.09449   4438954.18448  21339601.0724   21339599.0644
     -2480.3444
                                  24265242.674

  -3896018.79349  -3031790.67647  23482696.5254   23482694.7214
       373.1704
  -1099549.51649   -925601.19146  24056992.6974   24056992.5644
      2171.0524
  13759561.53949  10699194.63347  23951057.5024   23951056.1824
     -4260.6574
    129288.84449     98357.22348  21539257.9244   21539256.7014
      -382.1044
 04  9 14 21 37 15.0020000  0  7G 3G 8G13G19G28G23G27
     26013.48018                  23902944.939

  -4487112.28949  -3491225.66447  22063209.1434   22063208.7364
       805.6244
   5743646.42249   4468033.38348  21346702.2834   21346700.8614
     -2487.8894
  -3901501.62149  -3036063.04347  23481653.8614   23481652.2054
       365.5224
  -1132063.91849   -950937.07046  24050806.7834   24050805.5374
      2167.6274
  13823525.00049  10749036.25847  23963229.6824   23963227.8304
     -4264.2314
    135059.85549    102854.11748  21540355.6584   21540354.3894
      -384.7344
 04  9 14 21 37 30.0020000  0  7G 3G 8G13G19G28G23G27
                                  23908682.307

  -4499151.68749  -3500607.02047  22060918.1894   22060917.5214
       802.6274
   5781076.63349   4497199.78148  21353825.0964   21353823.8304
     -2495.3474
  -3906870.64549  -3040246.68447  23480632.1114   23480630.3144
       357.9354
  -1164527.92249   -976233.68447  24044628.0254   24044627.3114
      2164.2674
  13887540.66849  10798918.54347  23975411.8144   23975409.7444
     -4267.7114
    140869.05149    107380.77048  21541461.1434   21541460.0374
      -387.2804
 04  9 14 21 37 45.0020000  0  6G 8G13G19G28G23G27
  -4511144.87949  -3509952.36347  22058635.4084   22058634.9044
       799.5464
   5818619.86349   4526454.23048  21360969.0574   21360967.9044
     -2502.8824
  -3912124.46549  -3044340.52047  23479632.0334   23479630.2444
       350.2554
  -1196940.22749  -1001489.96947  24038460.0024   24038460.1824
      2160.8204
  13951609.60949  10848842.36347  23987602.7604   23987600.7754
     -4271.2634
    146717.80949    111938.24248  21542573.7214   21542572.4904
      -389.9174
 04  9 14 21 38  0.0020000  0  6G 8G13G19G28G23G27
  -4523090.93449  -3519260.96547  22056362.9714   22056361.8734
       796.4044
   5856277.02349   4555797.44548  21368135.3304   21368134.0064
     -2510.4774
  -3917261.92649  -3048343.73447  23478655.1114   23478652.0884
       342.4974
  -1229299.68049  -1026705.10247  24032302.5964   24032302.4984
      2157.2974
  14015732.37149  10898808.07847  23999805.4394   23999802.6314
     -4274.8514
    152606.95749    116527.18048  21543694.6274   21543692.9004
      -392.6104
 04  9 14 21 38 15.0020000  0  7G 8G13G10G19G28G23G27
  -4534993.54749  -3528535.72347  22054097.6664   22054096.9864
       793.5084
   5894044.42649   4585226.58248  21375322.4004   21375320.9474
     -2517.8274
                                  24257873.697

  -3922286.58249  -3052259.00847  23477698.2914   23477695.2484
       334.9774
  -1261609.94549  -1051881.88747  24026154.1434   24026154.2014
      2154.0184
  14079905.04749  10948812.69947  24012016.4944   24012014.3694
     -4278.1784
    158532.79349    121144.71148  21544822.4474   21544820.8424
      -395.0564
 04  9 14 21 38 30.0020000  0  7G 8G13G10G19G28G23G27
  -4546852.79749  -3537776.66847  22051841.0964   22051839.4004
       790.6174
   5931921.57849   4614741.23048  21382530.5884   21382528.6314
     -2525.1434
     -6167.46518                  24256475.549

  -3927198.26649  -3056086.27747  23476763.9554   23476761.6274
       327.4464
  -1293870.84849  -1077020.20347  24020014.2914   24020015.5104
      2150.7274
  14144127.31649  10998855.98447  24024237.2994   24024235.2954
     -4281.4854
    164495.14849    125790.70748  21545957.4324   21545955.8694
      -397.4904
 04  9 14 21 38 45.0020000  0  7G 8G13G10G19G28G23G27
  -4558665.41449  -3546981.29747  22049593.3224   22049592.1074
       787.5084
   5969911.75449   4644343.95748  21389759.7444   21389758.2174
     -2532.6784
    -13389.375 9                  24255103.400
       481.461
  -3931993.55149  -3059822.84847  23475851.0964   23475848.7094
       319.6864
  -1326079.16049  -1102117.57447  24013886.9944   24013886.5724
      2147.2214
  14208402.10949  11048940.18447  24036468.8774   24036466.7174
     -4284.9864
    170497.29349    130467.68048  21547100.0494   21547097.7914
      -400.1434
 04  9 14 21 39  0.0020000  0  7G 8G13G10G19G28G23G27
  -4570431.93749  -3556150.01647  22047354.0494   22047353.1704
       784.4354
   6008014.48449   4674034.36748  21397010.5104   21397008.5024
     -2540.1824
    -20480.223 9                  24253753.572
       472.723
  -3936672.50049  -3063468.76247  23474960.6664   23474959.0334
       311.9304
  -1358234.96549  -1127174.00047  24007766.7134   24007767.0454
      2143.7204
  14272728.94949  11099064.94147  24048709.6194   24048706.9674
     -4288.4564
    176538.83649    135175.41048  21548249.1194   21548247.6704
      -402.7704
 04  9 14 21 39 15.0020000  0  7G 8G13G10G19G28G23G27
  -4582154.33249  -3565284.35247  22045123.4004   22045122.0844
       781.4934
   6046227.45349   4703810.70748  21404281.5104   21404280.0254
     -2547.5314
    -27442.059 9                  24252428.064
       464.122
  -3941237.16049  -3067025.62947  23474092.1044   23474089.5144
       304.3114
  -1390340.24649  -1152191.08247  24001657.7604   24001657.3734
      2140.3524
  14337105.45749  11149228.36347  24060960.5964   24060957.9204
     -4291.7674
    182617.62549    139912.11348  21549405.9554   21549404.6004
      -405.2534
 04  9 14 21 39 30.0020000  0  7G 8G13G10G19G28G23G27
  -4593832.01249  -3574383.83247  22042901.4944   22042900.3504
       778.5124
   6084551.43049   4733673.52048  21411574.6274   21411573.2484
     -2554.9324
    -34273.855 8                  24251127.213
       455.453
  -3945686.48849  -3070492.61347  23473245.9794   23473242.8344
       296.6224
  -1422394.15249  -1177168.12947  23995557.9714   23995557.5414
      2136.9274
  14401532.10249  11199430.89547  24073220.2754   24073218.1934
     -4295.1104
    188734.43449    144678.47348  21550570.1354   21550568.3694
      -407.7874
 04  9 14 21 39 45.0020000  0  7G 8G13G10G19G28G23G27
  -4605464.30949  -3583447.95347  22040687.3544   22040686.8774
       775.4864
   6122986.62949   4763623.01247  21418888.3774   21418887.2174
     -2562.3474
    -40975.270 8                  24249852.947
       446.761
  -3950019.80149  -3073869.20747  23472420.3614   23472418.8114
       288.8884
  -1454396.05149  -1202104.63747  23989468.9394   23989468.1504
      2133.4604
  14466009.18449  11249672.73047  24085490.1974   24085488.6504
     -4298.4724
    194889.86349    149474.88748  21551741.2054   21551739.5214
      -410.3624
 04  9 14 21 40  0.0020000  0  8G 3G 8G13G10G19G28G23G27
     16408.64118                  23967487.361

  -4617049.96149  -3592475.72347  22038483.1824   22038481.9714
       772.3774
   6161534.25449   4793660.12148  21426223.4554   21426222.3544
     -2569.8424
    -47544.871 9                  24248603.299
       437.973
  -3954235.82849  -3077154.43747  23471618.1194   23471616.2714
       281.0684
  -1486344.69149  -1226999.65247  23983388.7834   23983387.8694
      2129.9094
  14530537.62549  11299954.57847  24097770.0884   24097767.8464
     -4301.8964
    201084.88349    154302.19148  21552920.4794   21552918.0724
      -413.0014
 04  9 14 21 40 15.0020000  0  8G 3G 8G13G10G19G28G23G27
     48044.754 8                  23973507.127
     -2109.074
  -4628591.86749  -3601469.41447  22036287.3544   22036286.5574
       769.4604
   6200191.88349   4823782.93448  21433579.8934   21433579.5534
     -2577.1754
    -53985.12518                  24247373.963
       429.186
  -3958336.89549  -3080350.07047  23470838.3854   23470835.8464
       273.4044
  -1518242.59449  -1251855.12947  23977318.8224   23977318.3934
      2126.5274
  14595114.40649  11350274.08247  24110058.3464   24110056.3774
     -4305.1194
    207316.90649    159158.28948  21554105.4554   21554104.4594
      -415.4684
 04  9 14 21 40 30.0020000  0  7G 8G13G10G19G28G23G27
  -4640088.60949  -3610427.91847  22034099.2834   22034098.4634
       766.4494
   6238960.40249   4853992.14548  21440957.7294   21440956.6864
     -2584.5684
    -60294.758 8                  24246174.588
       420.642
  -3962321.43749  -3083454.85247  23470080.0884   23470076.7324
       265.6364
  -1550088.09049  -1276669.79347  23971258.1434   23971257.6784
      2123.0334
  14659740.72749  11400632.20347  24122356.2134   24122354.8894
     -4308.4214
    213587.27749    164044.29748  21555299.0414   21555297.2294
      -418.0254
 04  9 14 21 40 45.0020000  0  7G 8G13G10G19G28G23G27
  -4651540.71549  -3619351.61747  22031919.1354   22031918.0254
       763.4744
   6277839.18049   4884287.27748  21448356.2524   21448354.9364
     -2591.9184
    -66473.93019                  24244998.580
       412.098
  -3966189.79749  -3086469.15247  23469344.5184   23469340.8544
       257.8914
  -1581881.83249  -1301444.10947  23965208.2294   23965207.5574
      2119.5834
  14724415.79349  11451028.30147  24134664.0254   24134662.0964
     -4311.6714
    219895.28149    168959.63748  21556499.1744   21556497.3774
      -420.5344
 04  9 14 21 41  0.0020000  0  7G 8G13G10G19G28G23G27
  -4662946.63749  -3628239.34847  22029748.6274   22029747.4594
       760.3954
   6316829.70749   4914669.48848  21455776.0254   21455774.0844
     -2599.3684
    -72521.180 9                  24243849.533
       403.150
  -3969940.44149  -3089391.71547  23468629.6504   23468627.6744
       250.0434
  -1613621.97749  -1326176.64847  23959167.7444   23959167.9324
      2116.0104
  14789141.00849  11501463.48447  24146979.4714   24146978.8184
     -4315.0144
    226242.73049    173905.68848  21557707.1354   21557705.3964
      -423.1634
 04  9 14 21 41 15.0020000  0  7G 8G13G10G19G28G23G27
  -4674306.66849  -3637091.31247  22027587.4474   22027586.5884
       757.3354
   6355931.37949   4945138.30948  21463217.4324   21463215.0104
     -2606.7784
    -78436.641 9                  24242724.018
       394.364
  -3973573.37949  -3092222.57047  23467938.9084   23467936.3544
       242.1964
  -1645308.81249  -1350867.66847  23953137.9864   23953138.0724
      2112.4564
  14853915.61749  11551937.12547  24159306.3464   24159304.9284
     -4318.3074
    232629.16849    178882.13748  21558922.6504   21558920.9714
      -425.7624
 04  9 14 21 41 30.0020000  0  7G 8G13G10G19G28G23G27
  -4685620.35249  -3645907.15247  22025434.7364   22025433.3934
       754.2464
   6395144.63349   4975694.08247  21470678.5884   21470676.7604
     -2614.2174
    -84219.996 9                  24241622.846
       385.557
  -3977087.99249  -3094961.21947  23467269.7054   23467267.3694
       234.3084
  -1676941.82449  -1375516.71147  23947118.6114   23947118.5574
      2108.8674
  14918739.90649  11602449.50047  24171642.1194   24171640.1744
     -4321.6194
    239054.77349    183889.09848  21560144.5024   21560144.2564
      -428.3744
 04  9 14 21 41 45.0020000  0  7G 8G13G10G19G28G23G27
  -4696888.27749  -3654687.35947  22023290.1434   22023289.9634
       751.1954
   6434468.96949   5006336.39847  21478161.7444   21478160.0924
     -2621.6224
    -89871.33249   -663235.63756  24240547.7294   24240545.4634
       376.7564
  -3980484.53149  -3097607.85547  23466623.2364   23466620.6664
       226.4364
  -1708521.23049  -1400124.01647  23941109.0884   23941108.4824
      2105.2944
  14983613.09049  11652999.97347  24183987.0184   24183985.3814
     -4324.8794
    245519.41849    188926.49248  21561375.0724   21561374.1544
      -430.9764
 04  9 14 21 42  0.0020000  0  7G 8G13G10G19G28G23G27
  -4708109.34049  -3663431.03947  22021154.7134   22021153.2644
       748.0714
   6473905.26249   5037065.95748  21485666.5574   21485664.3114
     -2629.0864
    -95389.68048   -667535.63746  24239497.2834   24239497.4324
       367.8904
  -3983761.85549  -3100161.59047  23466000.0884   23465997.4674
       218.4884
  -1740045.91449  -1424688.68047  23935110.2054   23935110.1394
      2101.6464
  15048535.98449  11703589.18847  24196341.3544   24196340.5064
     -4328.1934
    252023.99249    193994.97348  21562613.2834   21562611.8504
      -433.6384
 04  9 14 21 42 15.0020000  0  7G 8G13G10G19G28G23G27
  -4719285.05949  -3672139.39547  22019029.0644   22019026.6314
       745.0484
   6513451.71149   5067881.36348  21493191.2754   21493189.7994
     -2636.4304
   -100776.46949   -671733.10246  24238473.4794   24238472.7684
       359.1194
  -3986921.26249  -3102623.46147  23465398.9324   23465396.0184
       210.6274
  -1771517.28149  -1449211.79347  23929121.0804   23929121.5184
      2098.0914
  15113506.73049  11754215.65647  24208704.7994   24208703.5614
     -4331.3834
    258566.86749    199093.33648  21563858.2754   21563857.0414
      -436.1924
 04  9 14 21 42 30.0020000  0  7G 8G13G10G19G28G23G27
  -4730413.56249  -3680810.92647  22016910.8774   22016909.3464
       741.9004
   6553110.27749   5098784.12548  21500738.7364   21500736.5214
     -2643.9044
   -106029.67249   -675826.46546  24237472.6974   24237472.5144
       350.2144
  -3989960.68449  -3104991.84847  23464819.8614   23464817.8034
       202.6284
  -1802933.21549  -1473691.71547  23923143.6504   23923143.3344
      2094.3964
  15178527.16849  11804880.88747  24221077.6664   24221076.4084
     -4334.6964
    265149.97349    204223.01248  21565111.1044   21565109.6114
      -438.8744
 04  9 14 21 42 45.0020000  0  7G 8G13G10G19G28G23G27
  -4741496.35949  -3689446.85548  22014801.6194   22014801.0374
       738.8534
   6592879.55149   5129773.15647  21508306.6044   21508303.8424
     -2651.2854
   -111150.49249   -679816.69946  24236499.4084   24236498.1394
       341.3884
  -3992881.30149  -3107267.62147  23464263.6974   23464261.9714
       194.7084
  -1834294.92249  -1498129.39147  23917175.1114   23917174.9754
      2090.7804
  15243595.64149  11855583.53547  24233460.1274   24233459.2714
     -4337.8984
    271772.02049    209383.03948  21566370.6504   21566369.9594
      -441.4704
 04  9 14 21 43  0.0020000  0  7G 8G13G10G19G28G23G27
  -4752533.10249  -3698046.89848  22012701.3384   22012700.6894
       735.7834
   6632759.55149   5160848.45747  21515896.0254   21515893.4904
     -2658.6674
   -116138.64549   -683703.59846  24235551.3854   24235548.7014
       332.5434
  -3995682.79749  -3109450.59447  23463731.4004   23463728.0644
       186.7664
  -1865602.25449  -1522524.67647  23911217.6044   23911217.0964
      2087.1554
  15308711.97349  11906323.46547  24245851.5414   24245850.9164
     -4341.0894
    278433.03149    214573.44548  21567639.1744   21567637.0884
      -444.0674
 04  9 14 21 43 15.0020000  0  7G 8G13G10G19G28G23G27
  -4763523.84049  -3706611.10547  22010609.3854   22010608.9514
       732.7164
   6672750.27049   5192010.05147  21523505.3854   21523503.3264
     -2666.0484
   -120994.06649   -687486.99646  24234624.4864   24234623.9284
       323.6954
  -3998364.68749  -3111540.37947  23463221.1114   23463218.4554
       178.7934
  -1896854.75449  -1546877.26247  23905270.5964   23905270.1004
      2083.5004
  15373876.17649  11957100.68847  24258252.4324   24258250.4044
     -4344.2804
    285133.25849    219794.38748  21568914.0964   21568911.7714
      -446.6824
 04  9 14 21 43 30.0020000  0  7G 8G13G10G19G28G23G27
  -4774470.33249  -3715140.82447  22008526.0964   22008525.8144
       729.7664
   6712849.70349   5223256.33648  21531136.2914   21531134.2994
     -2673.2964
   -125718.42248   -691168.28546  24233724.4634   24233725.7174
       314.9574
  -4000928.81649  -3113538.37547  23462732.7214   23462731.4084
       170.9424
  -1928054.32049  -1571188.57847  23899333.6974   23899333.4084
      2079.9714
  15439085.94549  12007913.43046  24270661.0644   24270658.3964
     -4347.3184
    291870.80949    225044.43448  21570196.0414   21570194.0334
      -449.1704
 04  9 14 21 43 45.0020000  0  7G 8G13G10G19G28G23G27
  -4785372.39149  -3723635.93747  22006451.9944   22006451.4474
       726.8044
   6753057.77749   5254587.28948  21538787.4084   21538785.4204
     -2680.5384
   -130311.39848   -694747.23846  24232852.0804   24232852.3734
       306.1984
  -4003374.83649  -3115444.36347  23462266.8144   23462264.9514
       163.0684
  -1959200.68449  -1595458.44547  23893406.4794   23893405.9754
      2076.4244
  15504341.44549  12058761.84046  24283078.5104   24283075.5884
     -4350.3674
    298645.78149    230323.61748  21571484.9004   21571483.8574
      -451.6654
 04  9 14 21 44  0.0020000  0  7G 8G13G10G19G28G23G27
  -4796230.69149  -3732096.96147  22004385.6434   22004384.7684
       723.8874
   6793373.68849   5286002.27048  21546459.7604   21546457.9714
     -2687.7274
   -134773.77349   -698224.46146  24232003.4634   24232002.7954
       297.4924
  -4005703.21949  -3117258.68047  23461824.7364   23461822.0454
       155.2264
  -1990294.39849  -1619687.28147  23887489.5254   23887489.4164
      2072.9144
  15569641.35549  12109644.82847  24295505.4474   24295501.6784
     -4353.3274
    305457.36349    235631.34448  21572781.0964   21572780.1354
      -454.1054
 04  9 14 21 44 15.0020000  0  7G 8G13G10G19G28G23G27
  -4807046.41849  -3740524.78948  22002328.2214   22002326.9044
       721.0484
   6833796.27049   5317500.37148  21554151.4864   21554149.3964
     -2694.8394
   -139106.48049   -701600.56646  24231178.1504   24231178.4364
       288.8474
  -4007914.84449  -3118981.99247  23461403.1744   23461400.1934
       147.4424
  -2021336.36349  -1643875.78547  23881581.5184   23881581.7484
      2069.4644
  15634984.63749  12160561.60247  24307939.9244   24307937.5144
     -4356.2194
    312304.61749    240966.87948  21574083.7444   21574083.3034
      -456.4844
 04  9 14 21 44 30.0020000  0  8G 3G 8G13G10G19G28G23G27
     25294.50418                  24079715.408

  -4817816.04749  -3748916.70347  22000278.9864   22000277.7094
       717.9754
   6874328.85549   5349084.19547  21561864.2214   21561863.0064
     -2702.1724
   -143306.00049   -704872.91846  24230379.2054   24230378.8184
       279.9684
  -4010006.08249  -3120611.51647  23461005.6744   23461003.1234
       139.4164
  -2052323.00449  -1668021.21147  23875685.3384   23875684.6894
      2065.7764
  15700374.43849  12211514.62147  24320383.5184   24320381.2644
     -4359.3204
    319190.94549    246332.83248  21575394.5334   21575393.6974
      -459.0894
 04  9 14 21 44 45.0020000  0  7G 8G13G10G19G28G23G27
  -4828542.00849  -3757274.58647  21998237.6664   21998236.2404
       715.0644
   6914969.05949   5380751.86347  21569597.8694   21569596.3424
     -2709.3474
   -147374.39848   -708043.09046  24229605.3074   24229604.7364
       271.2274
  -4011979.02349  -3122148.88747  23460629.7604   23460626.9904
       131.5294
  -2083256.55549  -1692125.25047  23869799.5964   23869798.2174
      2062.2374
  15765808.29749  12262501.94547  24332834.8614   24332833.5214
     -4362.2574
    326114.06349    251727.45348  21576712.1114   21576710.7294
      -461.5414
 04  9 14 21 45  0.0030000  0  7G 8G13G10G19G28G23G27
  -4839226.50449  -3765600.16047  21996204.2654   21996203.3974
       712.3004
   6955717.87549   5412504.17247  21577352.9444   21577350.1474
     -2716.5884
   -151313.57849   -711112.61346  24228855.1634   24228854.2724
       262.6124
  -4013835.39549  -3123595.37947  23460276.8974   23460273.6474
       123.7584
  -2114140.46149  -1716190.59447  23863922.5224   23863921.6284
      2058.9274
  15831288.54349  12313525.47347  24345295.2884   24345294.4374
     -4365.3504
    333072.79749    257149.86748  21578036.1474   21578034.9794
      -463.9164
 04  9 14 21 45 15.0030000  0  7G 8G13G10G19G28G23G27
  -4849868.20749  -3773892.39147  21994178.6794   21994177.8864
       709.4474
   6996569.49249   5444336.57447  21585126.4444   21585124.2654
     -2723.4414
   -155123.29748   -714081.09446  24228129.2414   24228128.7884
       253.9814
  -4015574.76649  -3124950.70347  23459946.5934   23459943.0974
       115.9584
  -2144970.72749  -1740214.15247  23858055.3744   23858054.7184
      2055.3514
  15896806.00449  12364577.99247  24357763.0074   24357762.3664
     -4367.8314
    340066.07049    262599.16448  21579367.2104   21579366.1554
      -466.2184
 04  9 14 21 45 30.0030000  0  7G 8G13G10G19G28G23G27
  -4860465.82449  -3782150.27747  21992162.2414   21992161.0854
       706.5084
   7037528.60249   5476252.75448  21592920.8584   21592918.9524
     -2730.6074
   -158801.24648   -716947.08646  24227429.3664   24227429.8544
       245.1974
  -4017195.18449  -3126213.36747  23459637.1794   23459635.0384
       108.0284
  -2175747.20349  -1764195.80947  23852199.0934   23852198.7764
      2051.7654
  15962366.98849  12415664.44547  24370238.4294   24370237.7614
     -4370.7324
    347096.27049    268077.22748  21580705.2964   21580703.5304
      -468.6804
 04  9 14 21 45 45.0030000  0  7G 8G13G10G19G28G23G27
  -4871018.97749  -3790373.50847  21990154.2724   21990152.9444
       703.5434
   7078595.53949   5508252.94548  21600735.4374   21600733.9174
     -2737.7964
   -162347.12549   -719710.07446  24226756.9684   24226754.6044
       236.3924
  -4018696.06249  -3127382.87147  23459351.4604   23459349.2724
       100.0594
  -2206469.34849  -1788135.11747  23846352.9994   23846352.1674
      2048.1434
  16027971.65249  12466784.85947  24382723.3124   24382721.0694
     -4373.6444
    354163.99249    273584.54348  21582050.0854   21582048.7694
      -471.1824
 04  9 14 21 46  0.0030000  0  7G 8G13G10G19G28G23G27
  -4881526.85949  -3798561.46147  21988154.4214   21988152.8584
       700.5264
   7119771.08649   5540337.78148  21608570.3824   21608569.5854
     -2745.0364
   -165760.02749   -722369.46946  24226106.9604   24226105.1124
       227.5274
  -4020076.17649  -3128458.26247  23459089.2574   23459086.6834
        92.0084
  -2237136.09049  -1812031.25047  23840517.1474   23840516.6944
      2044.4494
  16093620.56349  12517939.80147  24395215.2804   24395212.6084
     -4376.5944
    361270.00049    279121.68448  21583402.4374   21583400.9994
      -473.7344
 04  9 14 21 46 15.0030000  0  7G 8G13G10G19G28G23G27
  -4891989.48849  -3806714.16047  21986163.3044   21986162.5114
       697.5094
   7161054.95749   5572507.02047  21616426.6084   21616425.5894
     -2752.2584
   -169039.86759   -724925.18456  24225482.1634   24225480.3944
       218.6624
  -4021335.53149  -3129439.57047  23458850.3584   23458847.8044
        83.9574
  -2267747.45349  -1835884.24247  23834691.8824   23834691.9174
      2040.7584
  16159313.34849  12569128.85947  24407717.1474   24407713.7414
     -4379.5194
    368414.17249    284688.58648  21584761.6244   21584760.2924
      -476.2784
 04  9 14 21 46 30.0030000  0  7G 8G13G10G19G28G23G27
  -4902406.63749  -3814831.41847  21984180.9444   21984179.6554
       694.4774
   7202447.13749   5604760.65648  21624303.4914   21624301.8234
     -2759.4794
   -172186.55148   -727377.17246  24224883.1324   24224882.0774
       209.7794
  -4022473.95749  -3130326.66447  23458632.9214   23458630.9334
        75.8954
  -2298303.20349  -1859693.89547  23828877.2884   23828877.8234
      2037.0504
  16225049.90249  12620352.08647  24420225.8434   24420223.9604
     -4382.4374
    375596.65249    290285.30548  21586128.3194   21586127.1474
      -478.8324
 04  9 14 21 46 45.0030000  0  7G 8G13G10G19G28G23G27
  -4912778.70349  -3822913.53547  21982207.3904   21982206.0224
       691.4714
   7243947.26249   5637098.39147  21632200.7884   21632198.3864
     -2766.6754
   -175200.25448   -729725.49646  24224308.1874   24224309.3514
       200.9144
  -4023491.46149  -3131119.48847  23458438.8824   23458436.1284
        67.8344
  -2328803.54349  -1883460.35947  23823073.5074   23823074.1404
      2033.3564
  16290829.74249  12671609.03147  24432743.4374   24432741.4724
     -4385.3234
    382817.12549    295911.64848  21587502.5544   21587501.2724
      -481.3654
 04  9 14 21 47  0.0030000  0  7G 8G13G10G19G28G23G27
  -4923104.89149  -3830959.93047  21980242.6634   21980241.4404
       688.4134
   7285555.99249   5669520.75847  21640118.7804   21640116.9374
     -2773.9154
   -178079.93749   -731969.40246  24223761.7494   24223761.6984
       191.9794
  -4024387.00449  -3131817.32447  23458269.4444   23458266.2024
        59.7034
  -2359247.35549  -1907182.80147  23817280.7574   23817279.9724
      2029.5884
  16356653.42249  12722900.14147  24445269.7494   24445267.0424
     -4388.2454
    390076.50449    301568.31648  21588884.1794   21588882.9404
      -483.9594
 04  9 14 21 47 15.0030000  0  7G 8G13G10G19G28G23G27
  -4933386.20749  -3838971.32447  21978285.9604   21978284.5934
       685.4214
   7327272.25449   5702026.91847  21648056.7804   21648055.6984
     -2781.0844
   -180826.68049   -734109.68046  24223239.4294   24223239.2924
       183.1164
  -4025161.43749  -3132420.77047  23458120.6554   23458119.3944
        51.6294
  -2389635.58649  -1930861.91447  23811497.8974   23811496.6164
      2025.8824
  16422519.73049  12774224.48047  24457803.4764   24457801.8584
     -4391.0874
    397373.82049    307254.53947  21590272.3744   21590271.0584
      -486.4884
 04  9 14 21 47 30.0030000  0  8G 3G 8G13G10G19G28G23G27
     42965.30918                  24158992.390

  -4943621.46549  -3846946.84847  21976338.6164   21976337.5504
       682.3514
   7369096.87149   5734617.52347  21656015.3664   21656014.2654
     -2788.3084
   -183439.21549   -736145.42647  24222741.9994   24222742.4794
       174.1694
  -4025813.50449  -3132928.89847  23457997.1324   23457995.9294
        43.4714
  -2419967.04749  -1954496.77747  23805725.0544   23805724.0974
      2022.0974
  16488429.35549  12825582.56347  24470344.9054   24470344.6904
     -4393.9754
    404710.00449    312971.04748  21591668.1244   21591667.1324
      -489.0794
 04  9 14 21 47 45.0030000  0  7G 8G13G10G19G28G23G27
  -4953812.08649  -3854887.58247  21974399.2654   21974398.3474
       679.3754
   7411028.29349   5767291.33647  21663995.2724   21663993.6794
     -2795.4284
   -185919.18049   -738077.85946  24222270.1474   24222270.7334
       165.3314
  -4026344.64549  -3133342.73047  23457897.2804   23457892.9134
        35.4094
  -2450243.10549  -1978088.50047  23799964.4524   23799962.6834
      2018.4044
  16554380.76649  12876973.21147  24482896.1944   24482894.8974
     -4396.7614
    412083.74649    318716.80148  21593071.7184   21593070.4334
      -491.5834
 04  9 14 21 48  0.0030000  0  7G 8G13G10G19G28G23G27
  -4963956.82049  -3862792.55547  21972469.1244   21972467.7764
       676.3164
   7453067.84049   5800049.39847  21671994.9054   21671993.3514
     -2802.6364
   -188265.00049   -739905.75046  24221823.5694   24221824.1674
       156.3884
  -4026753.30149  -3133661.16847  23457819.2804   23457816.9484
        27.2444
  -2480462.34849  -2001635.90647  23794213.4294   23794211.7534
      2014.6164
  16620374.91449  12928397.16047  24495454.2334   24495453.2724
     -4399.6104
    419496.21549    324492.75448  21594482.2964   21594481.2184
      -494.1654
 04  9 14 21 48 15.0030000  0  7G 8G13G10G19G28G23G27
  -4974057.77049  -3870663.43447  21970546.3434   21970545.7964
       673.3974
   7495213.25049   5832889.96147  21680014.8904   21680012.7104
     -2809.6944
   -190478.68449   -741630.71946  24221402.3354   24221403.0224
       147.5794
  -4027041.30149  -3133885.57047  23457763.9374   23457762.2884
        19.2004
  -2510626.57049  -2025140.45347  23788473.9134   23788471.8234
      2010.9484
  16686409.57449  12979852.68446  24508019.2184   24508019.3514
     -4402.3114
    426945.43449    330297.32848  21595900.2964   21595898.8864
      -496.6154
 04  9 14 21 48 30.0030000  0  7G 8G13G10G19G28G23G27
  -4984113.75849  -3878499.26247  21968632.4134   21968631.7454
       670.3994
   7537465.32849   5865813.64547  21688055.5384   21688053.5854
     -2816.8054
   -192559.18049   -743251.84446  24221006.2964   24221005.9094
       138.7004
  -4027207.52749  -3134015.07847  23457732.1014   23457730.5074
        11.0824
  -2540734.74249  -2048601.34447  23782743.7654   23782742.7064
      2007.2114
  16752485.43049  13031340.31646  24520593.0934   24520592.9874
     -4405.0574
    434432.48849    336131.39548  21597324.7494   21597323.3624
      -499.1374
 04  9 14 21 48 45.0030000  0  7G 8G13G10G19G28G23G27
  -4994122.47349  -3886298.28947  21966728.6164   21966727.4444
       667.2484
   7579826.21549   5898822.10547  21696116.9054   21696114.8474
     -2824.0594
   -194504.04349   -744767.31246  24220636.6794   24220636.1984
       129.6584
  -4027249.57849  -3134047.83647  23457724.2964   23457722.3584
         2.8034
  -2570784.45749  -2072016.66447  23777025.3664   23777025.0424
      2003.3144
  16818604.40249  13082861.53546  24533175.7724   24533174.2064
     -4407.9324
    441959.44949    341996.54348  21598757.0624   21598755.6674
      -501.7974
 04  9 14 21 49  0.0030000  0  7G 8G13G10G19G28G23G27
  -5004084.40249  -3894060.80547  21964832.7414   21964831.9374
       664.1294
   7622295.39549   5931914.96547  21704197.8274   21704196.5344
     -2831.2794
   -196313.62549   -746177.39547  24220291.9134   24220291.7294
       120.6394
  -4027167.62949  -3133983.98447  23457739.6084   23457737.3354
        -5.4634
  -2600775.91849  -2095386.60947  23771318.9604   23771318.5154
      1999.4314
  16884765.97349  13134415.97346  24545766.2264   24545764.7764
     -4410.7714
    449526.07449    347892.62148  21600196.7804   21600195.2534
      -504.4424
 04  9 14 21 49 15.0030000  0  7G 8G13G10G19G28G23G27
  -5014001.02049  -3901788.02747  21962945.5384   21962944.2144
       661.1084
   7664871.38349   5965091.04347  21712299.9524   21712298.8474
     -2838.3994
   -197989.30949   -747483.11746  24219973.0224   24219973.2184
       111.7124
  -4026962.77049  -3133824.37947  23457778.5774   23457776.6904
       -13.6574
  -2630710.44949  -2118712.19547  23765621.5544   23765622.0654
      1995.6354
  16950968.56649  13186002.35547  24558364.3974   24558362.6444
     -4413.5064
    457131.05549    353818.57448  21601644.1164   21601642.3704
      -506.9994
 04  9 14 21 49 30.0030000  0  7G 8G13G10G19G28G23G27
  -5023873.87549  -3909481.16447  21961067.1714   21961065.3824
       658.1904
   7707552.57049   5998349.10547  21720421.5624   21720420.5934
     -2845.4124
   -199532.61349   -748685.71946  24219679.7024   24219678.5074
       102.8874
  -4026636.62149  -3133570.22747  23457840.5694   23457838.1514
       -21.7434
  -2660589.41849  -2141994.49247  23759936.0854   23759935.5654
      1991.9314
  17017210.24249  13237619.16847  24570968.6164   24570967.8354
     -4416.1124
    464772.71549    359773.12948  21603098.2414   21603096.9294
      -509.4444
 04  9 14 21 49 45.0030000  0  7G 8G13G10G19G28G23G27
  -5033700.69149  -3917138.40647  21959196.4684   21959195.9954
       655.1214
   7750341.02749   6031690.75047  21728564.0694   21728562.2024
     -2852.5644
   -200941.12149   -749783.20746  24219411.1084   24219411.8864
        93.9014
  -4026186.61349  -3133219.57047  23457926.2414   23457923.1634
       -30.0014
  -2690410.37949  -2165231.57847  23754261.0464   23754260.3864
      1988.0644
  17083493.27749  13289268.21546  24583582.8194   24583580.9874
     -4418.8694
    472453.35949    365758.03148  21604559.7964   21604558.7144
      -512.0434
 04  9 14 21 50  0.0030000  0  7G 8G13G10G19G28G23G27
  -5043483.09849  -3924761.05547  21957335.6324   21957334.3084
       652.1604
   7793234.97749   6065114.57447  21736727.1324   21736725.2964
     -2859.5974
   -202216.47349   -750776.98046  24219167.8904   24219168.9214
        85.0234
  -4025614.40649  -3132773.66847  23458035.2104   23458031.8624
       -38.1474
  -2720174.94149  -2188424.71547  23748596.9604   23748596.8664
      1984.3044
  17149815.54349  13340947.80146  24596203.0624   24596201.3744
     -4421.4844
    480171.34449    371772.05148  21606028.2804   21606026.8704
      -514.5324
 04  9 14 21 50 15.0030000  0  7G 8G13G10G19G28G23G27
  -5053220.35249  -3932348.52747  21955482.0774   21955481.2494
       649.1504
   7836234.52349   6098620.70347  21744909.3904   21744907.7294
     -2866.6364
   -203358.16849   -751666.60946  24218951.2414   24218950.6044
        76.1134
  -4024919.31249  -3132232.02347  23458167.2804   23458164.2804
       -46.3404
  -2749882.63749  -2211573.54747  23742944.3194   23742943.3974
      1980.5134
  17216177.30549  13392658.15646  24608832.5624   24608829.4874
     -4424.1174
    487927.09049    377815.49248  21607504.5224   21607502.9174
      -517.0504
 04  9 14 21 50 30.0030000  0  7G 8G13G10G19G28G23G27
  -5062911.56649  -3939900.11747  21953638.4134   21953637.3864
       646.0814
   7879340.96949   6132210.12547  21753111.9054   21753109.7844
     -2873.7634
   -204364.87949   -752451.09446  24218759.7334   24218759.0584
        67.1144
  -4024099.99249  -3131593.59447  23458323.3664   23458321.2374
       -54.6214
  -2779532.10549  -2234677.00447  23737302.0934   23737301.6244
      1976.6314
  17282579.43849  13444400.02047  24621467.8974   24621466.2694
     -4426.8094
    495721.74649    383889.24248  21608987.7724   21608986.3124
      -519.6444
 04  9 14 21 50 45.0030000  0  7G 8G13G10G19G28G23G27
  -5072559.72749  -3947418.14547  21951801.8584   21951800.9684
       643.2114
   7922551.28149   6165880.47347  21761334.8974   21761332.9684
     -2880.6874
   -205239.60249   -753132.70746  24218594.2184   24218592.1324
        58.3154
  -4023159.23849  -3130860.52347  23458502.7104   23458500.0544
       -62.7174
  -2809126.16449  -2257737.27747  23731670.7654   23731670.2534
      1972.9374
  17349018.72349  13496170.82047  24634110.4054   24634109.6364
     -4429.2864
    503552.46549    389991.10948  21610477.5544   21610476.6204
      -522.0484
 04  9 14 21 51  0.0030000  0  7G 8G13G10G19G28G23G27
  -5082163.62149  -3954901.71948  21949974.8514   21949974.3744
       640.2604
   7965866.21149   6199632.34447  21769578.2414   21769575.5734
     -2887.6624
   -205981.12549   -753710.50846  24218452.7104   24218451.5344
        49.4354
  -4022095.80149  -3130031.85547  23458704.9684   23458703.0584
       -70.8964
  -2838663.50849  -2280753.37947  23726050.2724   23726049.2024
      1969.1564
  17415496.00849  13547971.22747  24646760.6794   24646760.3234
     -4431.8194
    511420.29749    396121.89548  21611974.7724   21611973.1984
      -524.5224
 04  9 14 21 51 15.0030000  0  7G 8G13G10G19G28G23G27
  -5091722.59849  -3962350.25447  21948155.3194   21948154.0034
       637.2654
   8009286.10949   6233466.02347  21777840.3824   21777838.3864
     -2894.6604
   -206588.94949   -754184.12546  24218336.8584   24218335.4174
        40.5224
  -4020909.14149  -3129107.16847  23458931.0384   23458928.3514
       -79.1114
  -2868143.73449  -2303724.96947  23720439.9764   23720439.4214
      1965.3484
  17482011.54749  13599801.42247  24659418.0694   24659417.4214
     -4434.3694
    519325.74649    402281.97748  21613479.1474   21613477.6404
      -527.0304
 04  9 14 21 51 30.0030000  0  7G 8G13G10G19G28G23G27
  -5101237.62549  -3969764.55147  21946345.2494   21946343.8744
       634.3354
   8052810.02349   6267380.73447  21786122.9054   21786121.1794
     -2901.5944
   -207063.90249   -754554.26246  24218245.7654   24218244.1944
        31.6644
  -4019599.85549  -3128086.94947  23459179.6714   23459177.5774
       -87.2864
  -2897567.39549  -2326652.43747  23714840.5544   23714839.7224
      1961.5774
  17548564.19149  13651660.56646  24672082.9134   24672082.1714
     -4436.8434
    527267.92649    408470.68847  21614990.2724   21614988.8084
      -529.4794
 04  9 14 21 51 45.0030000  0  7G 8G13G10G19G28G23G27
  -5110707.37949  -3977143.57047  21944542.9524   21944542.2264
       631.3174
   8096439.07049   6301377.38747  21794425.0304   21794423.6474
     -2908.6034
   -207404.69149   -754819.77046  24218180.2964   24218180.7104
        22.7194
  -4018166.46549  -3126970.00847  23459451.8044   23459449.6984
       -95.5594
  -2926933.13349  -2349534.79347  23709252.7264   23709252.0224
      1957.7164
  17615155.00449  13703549.43047  24684755.0304   24684753.8544
     -4439.3874
    535248.22349    414689.09847  21616509.3354   21616507.8664
      -532.0204
 04  9 14 21 52  0.0030000  0  7G 8G13G10G19G28G23G27
  -5120133.34849  -3984488.48447  21942749.2184   21942747.6554
       628.3984
   8140171.66849   6335454.70747  21802747.3044   21802746.2574
     -2915.5074
   -207612.54349   -754981.74646  24218141.3974   24218141.2844
        13.8574
  -4016610.45749  -3125757.53947  23459749.0544   23459745.7844
      -103.7344
  -2956242.21949  -2372373.01247  23703675.4214   23703674.4994
      1953.9394
  17681782.30149  13755466.72746  24697434.0854   24697432.7534
     -4441.8204
    543265.03549    420935.96548  21618034.4994   21618033.4214
      -534.4544
 04  9 14 21 52 15.0030000  0  7G 8G13G10G19G28G23G27
  -5129515.55949  -3991799.28147  21940963.4054   21940961.8824
       625.4814
   8184007.49249   6369612.48447  21811088.0694   21811086.9484
     -2922.3884
   -207687.64549   -755040.25447  24218127.8904   24218128.3784
         5.0074
  -4014931.75849  -3124449.46547  23460067.9294   23460066.2374
      -111.9134
  -2985494.69149  -2395167.11347  23698108.4914   23698108.4794
      1950.1654
  17748445.64149  13807412.10946  24710119.2574   24710118.5194
     -4444.2234
    551318.35549    427211.28148  21619567.0074   21619565.6944
      -536.8884
 04  9 14 21 52 30.0030000  0  7G 8G13G10G19G28G23G27
  -5138852.42649  -3999074.77347  21939187.5464   21939185.8664
       622.4584
   8227948.10949   6403851.93047  21819449.8124   21819448.9174
     -2929.3744
   -207628.26249   -754993.97747  24218139.6014   24218139.6014
        -3.9594
  -4013128.55549  -3123044.35247  23460411.2334   23460409.2494
      -120.2144
  -3014688.86749  -2417915.80547  23692553.2264   23692553.0424
      1946.2784
  17815146.43049  13859386.69546  24722812.9444   24722812.1904
     -4446.7194
    559409.84049    433516.32048  21621106.9764   21621105.6794
      -539.4324
 04  9 14 21 52 45.0030000  0  7G 8G13G10G19G28G23G27
  -5148145.55949  -4006316.17648  21937418.9834   21937417.6364
       619.5424
   8271991.98049   6438171.80547  21827831.8434   21827830.4134
     -2936.2584
   -207435.68449   -754843.87547  24218175.2494   24218175.5194
       -12.8394
  -4011202.07049  -3121543.20347  23460777.7724   23460776.0894
      -128.4324
  -3043826.10249  -2440620.10247  23687007.9994   23687008.0624
      1942.4824
  17881883.06349  13911389.22346  24735511.7884   24735511.8004
     -4449.1094
    567538.10549    439850.03548  21622654.0694   21622652.2654
      -541.8844
 04  9 14 21 53  0.0030000  0  7G 8G13G10G19G28G23G27
  -5157395.23849  -4013523.70348  21935658.8354   21935656.9334
       616.6454
   8316138.32849   6472571.54748  21836232.2654   21836231.1834
     -2943.0904
   -207110.38749   -754590.43046  24218238.1244   24218236.5974
       -21.6864
  -4009152.74249  -3119946.34847  23461167.7414   23461164.9374
      -136.6224
  -3072906.67649  -2463280.24647  23681474.8744   23681473.7534
      1938.7054
  17948654.71149  13963419.05146  24748218.0074   24748217.6084
     -4451.4434
    575702.48849    446211.90248  21624207.1944   21624206.1514
      -544.2924
 04  9 14 21 53 15.0030000  0  7G 8G13G10G19G28G23G27
  -5166600.30549  -4020696.47348  21933906.9294   21933905.7104
       613.6714
   8360388.10549   6507051.87547  21844652.8974   21844651.0224
     -2949.9854
   -206651.52349   -754232.87146  24218324.4134   24218324.4794
       -30.5914
  -4006979.51649  -3118252.89847  23461581.4214   23461579.0694
      -144.8824
  -3101929.36749  -2485895.34447  23675952.1794   23675950.1044
      1934.8464
  18015462.23049  14015476.77746  24760931.9374   24760930.6984
     -4453.8354
    583904.25049    452602.86748  21625768.2574   21625767.1594
      -546.7844
 04  9 14 21 53 30.0030000  0  7G 8G13G10G19G28G23G27
  -5175760.16049  -4027834.01247  21932163.6794   21932162.4484
       610.6574
   8404741.93449   6541613.25847  21853093.2804   21853091.4014
     -2956.9224
   -206057.97349   -753770.35246  24218437.4054   24218437.3474
       -39.5704
  -4004681.28149  -3116462.06247  23462018.4054   23462016.2144
      -153.2164
  -3130893.41449  -2508464.70747  23670439.5624   23670438.5974
      1930.9364
  18082306.09849  14067562.83246  24773650.8744   24773651.2184
     -4456.2584
    592144.01249    459023.46548  21627335.9764   21627335.2494
      -549.3174
 04  9 14 21 53 45.0030000  0  7G 8G13G10G19G28G23G27
  -5184875.64849  -4034936.98047  21930428.8664   21930427.9444
       607.6994
   8449198.81349   6576254.98847  21861552.4134   21861551.3394
     -2963.7924
   -205330.51249   -753203.52347  24218576.2724   24218576.3394
       -48.4974
  -4002258.72749  -3114574.36747  23462479.8824   23462476.8124
      -161.5044
  -3159799.44949  -2530988.85247  23664939.1404   23664938.7064
      1927.0694
  18149185.22749  14119676.35246  24786378.4374   24786376.5074
     -4458.6094
    600421.10949    465473.14848  21628911.2964   21628910.0114
      -551.8074
 04  9 14 21 54  0.0030000  0  7G 8G13G10G19G28G23G27
  -5193946.15649  -4042004.91447  21928703.3194   21928702.1904
       604.7014
   8493759.15249   6610977.30547  21870031.9914   21870030.7844
     -2970.6894
   -204468.89149   -752532.10547  24218739.5464   24218739.5974
       -57.4414
  -3999711.41849  -3112589.40247  23462964.6324   23462961.6244
      -169.8214
  -3188646.89149  -2553467.35947  23659449.8664   23659448.7454
      1923.1634
  18216099.81349  14171817.52046  24799111.3824   24799109.3704
     -4460.9724
    608735.82049    471952.14548  21630493.3354   21630492.4374
      -554.3144
 04  9 14 21 54 15.0030000  0  7G 8G13G10G19G28G23G27
  -5202971.35249  -4049037.50047  21926985.4764   21926985.0894
       601.6804
   8538423.21149   6645780.46547  21878531.7184   21878530.1754
     -2977.6044
   -203472.65249   -751755.84047  24218929.4994   24218928.7844
       -66.4164
  -3997038.69549  -3110506.75847  23463473.2184   23463469.9994
      -178.1824
  -3217435.28549  -2575899.84047  23653970.8124   23653969.7144
      1919.2264
  18283050.00449  14223986.37946  24811851.3974   24811849.3584
     -4463.3464
    617088.66049    478460.84448  21632082.7414   21632081.5504
      -556.8564
 04  9 14 21 54 30.0030000  0  7G 8G13G10G19G28G23G27
  -5211950.63749  -4056034.35547  21925277.2494   21925276.1124
       598.6194
   8583191.25049   6680664.63347  21887050.6794   21887049.5624
     -2984.5364
   -202341.32049   -750874.26247  24219145.7264   24219144.1514
       -75.4224
  -3994239.96949  -3108325.95347  23464005.6084   23464002.6444
      -186.5824
  -3246163.91849  -2598285.75047  23648504.4914   23648503.6514
      1915.2424
  18350035.99249  14276183.16847  24824599.4914   24824596.6514
     -4465.7334
    625480.17249    484999.66048  21633679.9994   21633678.7614
      -559.4344
 04  9 14 21 54 45.0030000  0  7G 8G13G10G19G28G23G27
  -5220885.53549  -4062996.62148  21923577.3044   21923575.1084
       595.6604
   8628061.73449   6715628.62148  21895589.3514   21895588.4404
     -2991.3664
   -201076.03949   -749888.30947  24219386.4054   24219384.9794
       -84.3524
  -3991316.37949  -3106047.81247  23464561.2024   23464558.1984
      -194.9064
  -3274834.14849  -2620626.16447  23643048.6874   23643047.4994
      1911.3494
  18417056.25849  14328406.65647  24837353.3124   24837350.8124
     -4468.0184
    633908.94149    491567.53148  21635283.9914   21635282.0464
      -561.9184
 04  9 14 21 55  0.0030000  0  7G 8G13G10G19G28G23G27
  -5229775.58649  -4069923.92247  21921885.1794   21921883.8194
       592.6704
   8673034.71949   6750672.48847  21904147.4134   21904145.3194
     -2998.1994
   -199676.59849   -748797.84847  24219651.5934   24219651.5194
       -93.2964
  -3988267.59049  -3103672.10947  23465142.1554   23465138.6984
      -203.2534
  -3303445.59449  -2642920.75047  23637603.6244   23637603.2764
      1907.4304
  18484110.78549  14380656.84447  24850112.6164   24850112.1244
     -4470.3024
    642375.19549    498164.63348  21636894.8514   21636893.5464
      -564.4174
 04  9 14 21 55 15.0030000  0  7G 8G13G10G19G28G23G27
  -5238618.81249  -4076814.74248  21920202.5694   21920200.3664
       589.5484
   8718112.27349   6785797.84447  21912725.3974   21912724.1474
     -3005.1704
   -198140.71949   -747601.09446  24219944.8664   24219942.5654
      -102.3924
  -3985091.41849  -3101197.13747  23465746.2334   23465743.8704
      -211.7454
  -3331996.02349  -2665167.82447  23632170.9764   23632170.0694
      1903.3624
  18551201.39549  14432935.16447  24862879.8514   24862879.1984
     -4472.7074
    650881.21149    504792.69948  21638512.8274   21638511.6084
      -567.0684
 04  9 14 21 55 30.0030000  0  7G 8G13G10G19G28G23G27
  -5247415.12549  -4083669.01247  21918527.8974   21918526.4564
       586.4214
   8763294.03549   6821004.39147  21921323.2574   21921322.1474
     -3012.1174
   -196468.66449   -746298.18046  24220262.2964   24220261.0384
      -111.4704
  -3981787.85249  -3098622.92647  23466375.1874   23466372.1554
      -220.2384
  -3360485.40649  -2687367.32047  23626750.0464   23626749.0074
      1899.2924
  18618327.62549  14485241.27347  24875653.9764   24875652.4954
     -4475.0824
    659426.79749    511451.59048  21640139.5154   21640138.0694
      -569.7064
 04  9 14 21 55 45.0030000  0  7G 8G13G10G19G28G23G27
  -5256165.38749  -4090487.39147  21916863.0694   21916861.5654
       583.3514
   8808578.86749   6856291.24647  21929940.6324   21929939.2924
     -3018.9894
   -194661.23049   -744889.79746  24220606.3974   24220604.4334
      -120.4964
  -3978357.64549  -3095950.02347  23467027.7654   23467025.3194
      -228.6804
  -3388914.53149  -2709519.84847  23621339.3124   23621339.9484
      1895.2754
  18685488.48449  14537574.30947  24888433.8744   24888432.9684
     -4477.3914
    668011.13749    518140.67648  21641773.1474   21641772.0194
      -572.2894
 04  9 14 21 56  0.0030000  0  7G 8G13G10G19G28G23G27
  -5264868.57449  -4097269.07447  21915207.2184   21915205.9174
       580.2134
   8853967.68849   6891659.14547  21938578.3194   21938576.4644
     -3025.9214
   -192717.33649   -743375.11346  24220976.3044   24220975.5074
      -129.5934
  -3974799.55949  -3093177.50047  23467704.4524   23467703.0264
      -237.2064
  -3417282.21149  -2731624.51647  23615941.6874   23615940.5974
      1891.1794
  18752684.75449  14589934.96547  24901220.6084   24901220.1164
     -4479.7514
    676635.20749    524860.73448  21643414.3824   21643412.8744
      -574.9384
 04  9 14 21 56 15.0030000  0  7G 8G13G10G19G28G23G27
  -5273525.73049  -4104014.92247  21913559.4054   21913558.7924
       577.1444
   8899459.69149   6927107.43847  21947234.7104   21947232.8784
     -3032.8004
   -190637.82849   -741754.71547  24221372.2104   24221372.3044
      -138.6344
  -3971114.41449  -3090305.96547  23468406.1474   23468403.8974
      -245.6764
  -3445589.23449  -2753681.91847  23610555.3904   23610554.5934
      1887.1354
  18819915.17649  14642322.25047  24914014.7494   24914014.0304
     -4482.0284
    685298.19549    531611.09448  21645063.4914   21645061.5304
      -577.5334
 04  9 14 21 56 30.0030000  0  7G 8G13G10G19G28G23G27
  -5282135.52749  -4110723.84047  21911920.7724   21911920.5694
       573.9864
   8945055.94149   6962636.97747  21955910.9684   21955909.6444
     -3039.7504
   -188421.20749   -740027.48447  24221793.9054   24221794.2764
      -147.7754
  -3967300.82049  -3087334.30547  23469132.3044   23469129.3864
      -254.2404
  -3473834.06249  -2775690.84047  23605180.3354   23605180.0624
      1882.9894
  18887180.84449  14694736.97347  24926815.1404   24926813.4954
     -4484.3784
    694001.43049    538392.82048  21646719.2964   21646717.9954
      -580.2164
 04  9 14 21 56 45.0030000  0  7G 8G13G10G19G28G23G27
  -5290697.29349  -4117395.33647  21910291.5774   21910290.6324
       570.7844
   8990756.71949   6998247.95747  21964607.6084   21964606.2024
     -3046.7184
   -186067.35949   -738193.31647  24222241.6014   24222241.6324
      -156.9234
  -3963358.15649  -3084262.08647  23469881.8584   23469879.7024
      -262.8444
  -3502016.32449  -2797651.02747  23599816.8584   23599816.6554
      1878.8174
  18954481.98449  14747179.34046  24939621.9444   24939620.1444
     -4486.7434
    702745.31349    545206.26248  21648382.6794   21648382.0734
      -582.9264
 04  9 14 21 57  0.0030000  0  7G 8G13G10G19G28G23G27
  -5299212.42249  -4124030.50847  21908670.8664   21908671.0424
       567.6754
   9036560.53549   7033939.21147  21973323.9764   21973322.6044
     -3053.5884
   -183577.18449   -736252.92247  24222716.0624   24222715.9484
      -166.0124
  -3959287.54749  -3081090.19547  23470656.4134   23470655.0264
      -271.3744
  -3530137.12149  -2819563.30147  23594466.8044   23594465.2804
      1874.7204
  19021817.08649  14799648.14146  24952435.4604   24952433.0734
     -4489.0074
    711528.60549    552050.37548  21650054.1634   21650053.3474
      -585.5534
 04  9 14 21 57 15.0030000  0  7G 8G13G10G19G28G23G27
  -5307681.58649  -4130629.85247  21907059.0774   21907058.6364
       564.6114
   9082466.44149   7069710.03147  21982060.0854   21982058.5074
     -3060.3944
   -180951.54349   -734206.98447  24223215.9134   24223214.6944
      -175.0434
  -3955089.60549  -3077819.05547  23471455.3274   23471453.0464
      -279.8634
  -3558196.93749  -2841428.05547  23589126.3194   23589125.3044
      1870.6544
  19089185.03949  14852142.55946  24965254.7264   24965252.9484
     -4491.1974
    720350.66049    558924.69548  21651733.1714   21651732.0504
      -588.1374
 04  9 14 21 57 30.0030000  0  7G 8G13G10G19G28G23G27
  -5316103.70749  -4137192.54347  21905456.7574   21905456.2144
       561.4754
   9128475.60949   7105561.30947  21990814.8824   21990813.5584
     -3067.2784
   -178189.26649   -732054.55147  24223741.4134   24223740.7104
      -184.1524
  -3950763.03549  -3074447.73047  23472278.1634   23472274.9094
      -288.4384
  -3586194.63749  -2863244.41847  23583798.5774   23583797.2534
      1866.5134
  19156586.87949  14904663.40646  24978081.1324   24978080.3944
     -4493.4564
    729212.60549    565830.08648  21653419.4604   21653418.4954
      -590.7964
 04  9 14 21 57 45.0030000  0  6G 8G13G10G19G28G27
  -5324478.43749  -4143718.31647  21903864.2104   21903862.5304
       558.3154
   9174588.12549   7141493.12147  21999590.0464   21999588.4444
     -3074.1684
   -175290.03149   -729795.38747  24224292.6404   24224292.0034
      -193.2824
  -3946307.58249  -3070975.89847  23473127.2024   23473122.8904
      -297.0304
  -3614129.82049  -2885012.08247  23578482.9914   23578481.7964
      1862.3464
    738114.80149    572766.87547  21655113.3274   21655111.7694
      -593.4804
 04  9 14 21 58  0.0030000  0  6G 8G13G10G19G28G27
  -5332805.96549  -4150207.28147  21902278.7264   21902277.9794
       555.1684
   9220803.53549   7177505.09847  22008384.8044   22008383.1404
     -3081.0274
   -172254.06249   -727429.71146  24224869.0854   24224869.5694
      -202.3984
  -3941723.23849  -3067403.71147  23473999.7654   23473996.2884
      -305.6234
  -3642002.60549  -2906731.11347  23573178.5934   23573177.9604
      1858.1864
    747056.87949    579734.72347  21656814.9444   21656813.3434
      -596.1394
 04  9 14 21 58 15.0030000  0  6G 8G13G10G19G28G27
  -5341084.97749  -4156658.46147  21900703.8044   21900702.1244
       551.9344
   9267122.73449   7213597.98447  22017198.7724   22017197.3194
     -3087.9474
   -169080.09449   -724956.50447  24225474.8274   24225473.4404
      -211.5984
  -3937008.76649  -3063730.08647  23474896.3044   23474893.8584
      -314.2984
  -3669811.74249  -2928400.53947  23567887.0154   23567886.3514
      1853.9424
    756040.24649    586734.74648  21658524.3194   21658522.3974
      -598.8914
 04  9 14 21 58 30.0030000  0  6G 8G13G10G19G28G27
  -5349315.73849  -4163072.01247  21899136.8744   21899135.3974
       548.7174
   9313545.48449   7249771.53547  22026032.9684   22026031.3664
     -3094.8504
   -165768.48049   -722375.98047  24226104.7654   24226104.6204
      -220.7744
  -3932164.26249  -3059955.11347  23475818.3354   23475815.6794
      -322.9674
  -3697557.27749  -2950020.40647  23562607.0934   23562606.0194
      1849.7024
    765064.50449    593766.62548  21660241.5624   21660239.9794
      -601.6174
 04  9 14 21 58 45.0030000  0  6G 8G13G10G19G28G27
  -5357496.82849  -4169446.87147  21897579.5694   21897579.4214
       545.4064
   9360072.87149   7286026.63347  22034886.7334   22034884.2294
     -3101.8264
   -162317.65649   -719687.04747  24226761.0074   24226760.3864
      -230.0554
  -3927188.17249  -3056077.62947  23476765.1164   23476763.1444
      -331.7394
  -3725237.70749  -2971589.56647  23557339.7024   23557339.2294
      1845.3624
    774131.05949    600831.48848  21661966.7494   21661965.3544
      -604.4374
 04  9 14 21 59  0.0030000  0  6G 8G13G10G19G28G27
  -5365629.20349  -4175783.79348  21896032.3124   21896032.2494
       542.1584
   9406703.68849   7322362.30947  22043760.0544   22043758.6164
     -3108.7214
   -158728.83249   -716890.56247  24227443.7104   24227443.5734
      -239.2554
  -3922081.61349  -3052098.50047  23477736.9764   23477734.8124
      -340.4374
  -3752854.25849  -2993108.93447  23552084.5694   23552083.3824
      1841.1034
    783238.93449    607928.53948  21663700.2804   21663698.9524
      -607.1924
 04  9 14 21 59 15.0030000  0  7G 3G 8G13G10G19G28G27
     43942.59418                  24502558.952

  -5373713.61749  -4182083.34448  21894494.7884   21894493.0584
       538.9614
   9453437.22349   7358778.04347  22052652.8194   22052651.7264
     -3115.5694
   -155002.43049   -713986.88347  24228153.5854   24228152.4014
      -248.4274
  -3916844.91449  -3048017.97347  23478733.1084   23478731.2494
      -349.1134
  -3780407.09849  -3014578.63747  23546841.2264   23546840.8904
      1836.8564
    792387.58649    615057.36748  21665441.5384   21665439.6944
      -609.9104
 04  9 14 21 59 30.0030000  0  7G 3G 8G13G10G19G28G27
     85282.434 8                  24510425.452
     -2755.989
  -5381751.63349  -4188346.72348  21892964.8124   21892963.5264
       535.8684
   9500271.80949   7395272.50047  22061566.2024   22061564.3514
     -3122.3064
   -151140.04349   -710977.19547  24228888.5774   24228887.8944
      -257.4924
  -3911479.58649  -3043837.21947  23479754.1324   23479751.5544
      -357.6894
  -3807897.63349  -3035999.81647  23541610.2574   23541609.6324
      1832.7024
    801575.51649    622216.76248  21667189.2884   21667188.5154
      -612.5294
 04  9 14 21 59 45.0030000  0  7G 3G 8G13G10G19G28G27
    126739.184 8                  24518315.124
     -2763.783
  -5389743.95349  -4194574.50847  21891443.8274   21891442.3474
       532.8214
   9547206.38349   7431844.87147  22070497.1874   22070495.4914
     -3128.9724
   -147142.68049   -707862.37947  24229648.7964   24229648.8084
      -266.4914
  -3905986.42649  -3039556.84447  23480799.9294   23480796.4604
      -366.2114
  -3835326.75849  -3057373.12947  23536390.6554   23536390.1444
      1828.6084
    810801.91049    629406.15648  21668945.1474   21668944.8274
      -615.0934
 04  9 14 22  0  0.0030000  0  7G 3G 8G13G10G19G28G27
    168313.141 8                  24526224.710
     -2771.597
  -5397690.19949  -4200766.37548  21889931.8824   21889930.5814
       529.7504
   9594241.05149   7468495.24647  22079447.3824   22079445.8514
     -3135.6454
   -143009.86349   -704641.98047  24230435.5624   24230435.5624
      -275.5214
  -3900365.00449  -3035176.46947  23481869.2024   23481866.3584
      -374.7614
  -3862694.05949  -3078698.25847  23531182.3274   23531181.5114
      1824.4874
    820066.86349    636625.59448  21670708.4374   21670707.1084
      -617.6644
 04  9 14 22  0 15.0030000  0  7G 3G 8G13G10G19G28G27
    210002.133 8                  24534160.374
     -2779.266
  -5405592.12949  -4206923.72348  21888428.6874   21888427.3904
       526.7954
   9641373.92249   7505222.14547  22088417.0774   22088415.4174
     -3142.1914
   -138743.43749   -701317.51647  24231246.6014   24231247.0584
      -284.4284
  -3894616.84049  -3030697.37947  23482963.3044   23482960.1364
      -383.2114
  -3890001.12549  -3099976.48047  23525986.7494   23525985.0224
      1820.4714
    829368.91049    643873.94548  21672478.8044   21672477.2144
      -620.1364
 04  9 14 22  0 30.0030000  0  7G 3G 8G13G10G19G28G27
    251805.44518                  24542115.382
     -2786.935
  -5413450.36749  -4213047.01648  21886932.7654   21886932.3784
       523.8834
   9688604.31349   7542025.03147  22097404.3274   22097402.7184
     -3148.6934
   -134343.75849   -697889.18047  24232084.1634   24232084.1944
      -293.3124
  -3888742.42649  -3026119.90247  23484080.8434   23484078.1164
      -391.6284
  -3917248.42649  -3121208.10547  23520800.7184   23520800.2654
      1816.4874
    838707.38749    651150.70348  21674255.9604   21674254.2924
      -622.5654
 04  9 14 22  0 45.0030000  0  7G 3G 8G13G10G19G28G27
                                  24550088.265
     -2794.604
  -5421264.53549  -4219135.97748  21885446.0544   21885444.7964
       520.9454
   9735932.05549   7578903.76647  22106410.6404   22106408.5154
     -3155.1834
   -129810.82849   -694356.96947  24232946.4294   24232946.5504
      -302.1954
  -3882741.53149  -3021443.87147  23485222.7574   23485220.8434
      -400.0604
  -3944435.68749  -3142392.96547  23515627.9994   23515626.6634
      1812.4844
    848082.62549    658456.06348  21676039.7104   21676038.1754
      -625.0164
 04  9 14 22  1  0.0030000  0  6G 8G13G10G19G28G27
  -5429034.77749  -4225190.69948  21883967.2414   21883966.4764
       518.0164
   9783357.28149   7615858.45747  22115435.3194   22115433.7024
     -3161.6824
   -125144.52749   -690720.90647  24233834.8354   24233834.6404
      -311.0874
  -3876613.89549  -3016669.11747  23486389.4054   23486386.8314
      -408.5094
  -3971562.67649  -3163530.85247  23510465.8044   23510464.4524
      1808.4664
    857494.63349    665790.11748  21677830.5544   21677828.9014
      -627.4674
 04  9 14 22  1 15.0030000  0  6G 8G13G10G19G28G27
  -5436760.15649  -4231210.46547  21882496.8194   21882496.0694
       515.0254
   9830880.33649   7652889.39847  22124478.4914   22124477.5074
     -3168.2044
   -120344.12149   -686980.32847  24234748.2964   24234748.4094
      -320.0274
  -3870358.92249  -3011795.11347  23487579.0934   23487577.6634
      -416.9984
  -3998628.78149  -3184621.28947  23505315.2334   23505314.1364
      1804.4074
    866944.00849    673153.26248  21679628.9134   21679627.3904
      -629.9584
 04  9 14 22  1 30.0030000  0  6G 8G13G10G19G28G27
  -5444442.19149  -4237196.46548  21881034.8354   21881033.9374
       512.1364
   9878499.61749   7689995.30547  22133540.3904   22133538.9834
     -3174.6194
   -115411.06649   -683136.39847  24235687.4214   24235687.3824
      -328.8704
  -3863977.72349  -3006822.76647  23488793.9524   23488791.9054
      -425.4134
  -4025635.03949  -3205665.11347  23500175.6944   23500175.1594
      1800.4174
    876429.46149    680544.51647  21681433.6554   21681431.9874
      -632.3644
 04  9 14 22  1 45.0030000  0  6G 8G13G10G19G28G27
  -5452079.36349  -4243147.49248  21879581.7804   21879580.9014
       509.1454
   9926216.60949   7727177.35947  22142620.5694   22142619.0974
     -3181.1334
   -110343.78949   -679187.84047  24236651.3904   24236650.5384
      -337.8184
  -3857468.67249  -3001750.78547  23490032.5934   23490030.7454
      -433.9374
  -4052579.91849  -3226661.09847  23495047.8824   23495048.3584
      1796.3254
    885952.69149    687965.23447  21683246.0464   21683243.6474
      -634.8824
 04  9 14 22  2  0.0030000  0  6G 8G13G10G19G28G27
  -5459672.30149  -4249064.05948  21878136.8044   21878135.8044
       506.1964
   9974030.44949   7764434.86747  22151719.3124   22151717.2334
     -3187.5894
   -105142.91849   -675135.16747  24237641.2104   24237640.0624
      -346.7254
  -3850832.50849  -2996579.73847  23491295.3044   23491291.7184
      -442.4114
  -4079463.94949  -3247609.68047  23489932.9604   23489932.4914
      1792.2694
    895512.95349    695414.77747  21685065.4214   21685063.7224
      -637.3514
 04  9 14 22  2 15.0030000  0  6G 8G13G10G19G28G27
  -5467221.75049  -4254946.73448  21876699.8824   21876699.2654
       503.2974
  10021939.89849   7801766.89147  22160835.2804   22160834.4404
     -3193.9634
    -99809.50449   -670979.30947  24238655.7724   24238655.9134
      -355.5614
  -3844070.05549  -2991310.26647  23492581.7964   23492577.7964
      -450.8304
  -4106287.98449  -3268511.49247  23484827.1944   23484826.3434
      1788.2694
    905109.22749    702892.37948  21686891.4604   21686889.7024
      -639.7524
 04  9 14 22  2 30.0030000  0  6G 8G13G10G19G28G27
  -5474726.83249  -4260794.86348  21875272.1474   21875272.1244
       500.3394
  10069945.92649   7839174.16047  22169971.1874   22169970.6404
     -3200.4024
    -94342.52349   -666719.31247  24239696.1634   24239695.9484
      -364.4654
  -3837180.16049  -2985941.48047  23493892.4914   23493888.9764
      -459.3264
  -4133051.09049  -3289365.83247  23479734.7264   23479733.9484
      1784.2074
    914742.68849    710398.99648  21688724.6634   21688723.4524
      -642.2314
 04  9 14 22  2 45.0030000  0  6G 8G13G10G19G28G27
  -5482186.44149  -4266607.53148  21873852.6474   21873852.1404
       497.3074
  10118049.27049   7876657.26247  22179124.5304   22179123.4994
     -3206.8904
    -88741.05149   -662354.54747  24240762.1714   24240762.3784
      -373.4324
  -3830161.65249  -2980472.49247  23495228.7184   23495225.9604
      -467.9014
  -4159752.00449  -3310171.71547  23474654.1084   23474652.7614
      1780.0614
    924414.29749    717935.32448  21690565.2884   21690564.0194
      -644.7744
 04  9 14 22  3  0.0030000  0  6G 8G13G10G19G28G27
  -5489600.41849  -4272384.64848  21872442.1244   21872441.2724
       494.2654
  10166249.88349   7914216.15647  22188296.6324   22188294.8864
     -3213.3744
    -83005.01649   -657884.89547  24241852.6014   24241853.5154
      -382.4024
  -3823014.41049  -2974903.22747  23496588.5624   23496586.4524
      -476.4834
  -4186390.55949  -3330929.01247  23469584.8824   23469582.7884
      1775.9044
    934124.18049    725501.47748  21692412.5154   21692411.8744
      -647.3264
 04  9 14 22  3 15.0030000  0  6G 8G13G10G19G28G27
  -5496969.09449  -4278126.46148  21871039.8664   21871038.3744
       491.2454
  10214547.19549   7951850.40647  22197488.4604   22197486.5424
     -3219.8214
    -77134.62149   -653310.55147  24242972.0464   24242969.9684
      -391.3604
  -3815738.72749  -2969233.85247  23497974.3434   23497970.3744
      -485.0464
  -4212967.03549  -3351637.92647  23464527.3124   23464526.1754
      1771.7654
    943872.01249    733097.18847  21694267.5224   21694265.9684
      -649.8554
 04  9 14 22  3 30.0030000  0  6G 8G13G10G19G28G27
  -5504289.86349  -4283830.94948  21869646.9604   21869645.1874
       488.0514
  10262943.76649   7989562.00447  22206697.5544   22206696.8784
     -3226.4384
    -71127.17249   -648629.41847  24244113.8824   24244113.9724
      -400.4974
  -3808331.77749  -2963462.19147  23499382.5544   23499379.7884
      -493.7974
  -4239478.46949  -3372296.15647  23459482.7264   23459481.8154
      1767.4294
    953660.60249    740724.65248  21696130.2494   21696128.9954
      -652.5734
 04  9 14 22  3 45.0030000  0  6G 8G13G10G19G28G27
  -5511565.37149  -4289500.17248  21868262.3044   21868261.3704
       485.0344
  10311436.73449   8027348.72347  22215925.8584   22215925.1164
     -3232.8654
    -64985.37549   -643843.59447  24245281.8194   24245282.9214
      -409.4534
  -3800796.27749  -2957590.37147  23500816.7574   23500814.8434
      -502.3674
  -4265927.61749  -3392905.86747  23454449.0854   23454448.9644
      1763.2774
    963487.19949    748381.71948  21698000.7104   21697998.6594
      -655.1074
 04  9 14 22  4  0.0030000  0  6G 8G13G10G19G28G27
  -5518793.40249  -4295132.39148  21866886.8974   21866884.9644
       481.8694
  10360028.06349   8065212.06347  22225172.0544   22225171.1044
     -3239.4224
    -58707.13349   -638951.45747  24246477.1554   24246477.9404
      -418.5494
  -3793129.89149  -2951616.52047  23502275.1714   23502273.4874
      -511.0924
  -4292312.20349  -3413465.28547  23449428.7184   23449427.9684
      1758.9724
    973353.99649    756070.13348  21699878.0074   21699876.2884
      -657.7864
 04  9 14 22  4 15.0030000  0  6G 8G13G10G19G28G27
  -5525973.04349  -4300726.90648  21865520.1634   21865518.9954
       478.6434
  10408718.34049   8103152.51647  22234437.7964   22234436.4644
     -3246.0184
    -52291.71549   -633952.43447  24247698.3584   24247698.0934
      -427.6954
  -3785331.75049  -2945540.07847  23503759.2964   23503758.0934
      -519.8764
  -4318631.36749  -3433973.67647  23444419.8194   23444420.0344
      1754.6114
    983261.72749    763790.46148  21701763.6794   21701761.6594
      -660.5154
 04  9 14 22  4 30.0030000  0  6G 8G13G10G19G28G27
  -5533104.93749  -4306284.22348  21864163.5694   21864162.1904
       475.4604
  10457506.69949   8141169.39847  22243721.9524   22243720.0344
     -3252.5574
    -45739.79349   -628847.01647  24248944.4764   24248944.4994
      -436.7954
  -3777402.53149  -2939361.45747  23505267.9994   23505265.1594
      -528.6154
  -4344885.55149  -3454431.46547  23439423.6324   23439422.9054
      1750.2794
    993209.88749    771542.26248  21703656.7654   21703654.9794
      -663.2114
 04  9 14 22  4 45.0030000  0  6G 8G13G10G19G28G27
  -5540189.28949  -4311804.49247  21862815.0384   21862813.8084
       472.2904
  10506393.07849   8179262.65647  22253024.4604   22253023.2694
     -3259.0924
    -39051.33649   -623635.19947  24250217.7574   24250217.5654
      -445.8974
  -3769342.05149  -2933080.56647  23506802.2104   23506798.7884
      -537.3654
  -4371074.76249  -3474838.61747  23434441.1404   23434439.2414
      1745.9474
   1003198.48049    779325.59848  21705557.5224   21705555.6754
      -665.9064
 04  9 14 22  5  0.0030000  0  6G 8G13G10G19G28G27
  -5547223.58249  -4317285.75447  21861476.5224   21861474.3664
       468.9534
  10555379.30549   8217433.72747  22262346.0694   22262345.2374
     -3265.7484
    -32224.33649   -618315.46547  24251517.0074   24251516.8944
      -455.1334
  -3761148.06649  -2926695.64547  23508361.8124   23508359.4524
      -546.2664
  -4397196.58249  -3495193.23847  23429469.2414   23429469.4334
      1741.4554
   1013229.69949    787142.11348  21707466.3904   21707464.7614
      -668.7484
 04  9 14 22  5 15.0030000  0  6G 8G13G10G19G28G27
  -5554209.22349  -4322729.09048  21860147.0224   21860145.4524
       465.7094
  10604463.91049   8255681.45747  22271686.6874   22271685.7724
     -3272.3074
    -25259.98449   -612888.70347  24252843.1404   24252842.4174
      -464.2904
  -3752821.93049  -2920207.71147  23509946.1874   23509943.6874
      -555.0764
  -4423252.38349  -3515496.44947  23424511.0304   23424510.1514
      1737.0534
   1023302.32049    794990.91448  21709382.6014   21709381.4334
      -671.5084
 04  9 14 22  5 30.0030000  0  6G 8G13G10G19G28G27
  -5561146.39849  -4328134.69948  21858827.0384   21858825.6714
       462.4784
  10653646.52349   8294005.54747  22281045.7574   22281044.8664
     -3278.8414
    -18158.55149   -607355.10247  24254193.8664   24254193.2334
      -473.4294
  -3744363.48849  -2913616.77347  23511555.4444   23511552.6944
      -563.8964
  -4449242.23449  -3535748.27047  23419565.5464   23419564.6044
      1732.6574
   1033416.07449    802871.79348  21711307.5154   21711306.1794
      -674.2504
 04  9 14 22  5 45.0030000  0  6G 8G13G10G19G28G27
  -5568035.22749  -4333502.60548  21857516.3354   21857515.1324
       459.2554
  10702926.82049   8332405.75447  22290423.3744   22290422.0304
     -3285.3534
    -10920.19549   -601714.85547  24255571.8974   24255570.2224
      -482.5574
  -3735773.14149  -2906922.94547  23513190.3664   23513187.5934
      -572.6904
  -4475166.10249  -3555948.66047  23414632.9054   23414630.6904
      1728.2584
   1043570.87549    810784.61348  21713239.5154   21713238.3624
      -676.9874
 04  9 14 22  6  0.0030000  0  7G 3G 8G13G10G19G28G27
     57264.16818                  24722590.499

  -5574874.92249  -4338832.24648  21856215.2104   21856213.5424
       455.9804
  10752305.31349   8370882.49247  22299819.7654   22299818.9684
     -3291.8994
     -3544.26649   -595967.38347  24256974.9684   24256974.9014
      -491.7294
  -3727049.86349  -2900125.59047  23514849.4684   23514848.1014
      -581.5524
  -4501023.13349  -3576096.97347  23409712.1164   23409710.5264
      1723.8024
   1053767.50849    818730.01648  21715180.4684   21715178.7964
      -679.7764
 04  9 14 22  6 15.0030000  0  7G 3G 8G13G10G19G28G27
    101679.215 8                  24731042.913
     -2961.003
  -5581665.64149  -4344123.71148  21854922.3044   21854921.4014
       452.7154
  10801781.55549   8409435.38347  22309235.0074   22309233.9684
     -3298.4164
      3969.02749   -590112.87547  24258403.5624   24258403.7374
      -500.8864
  -3718193.93449  -2893224.88347  23516534.6474   23516533.1554
      -590.3954
  -4526813.78949  -3596193.57847  23404804.7964   23404803.0694
      1719.3774
   1064005.68449    826707.84448  21717128.7414   21717127.1204
      -682.5454
 04  9 14 22  6 30.0030000  0  7G 3G 8G13G10G19G28G27
    146206.535 8                  24739514.999
     -2968.488
  -5588407.82849  -4349377.35548  21853639.4684   21853638.2294
       449.4794
  10851355.10949   8448064.10547  22318668.6474   22318667.0504
     -3304.9044
     11619.33249   -584151.57047  24259859.9214   24259859.6244
      -510.0204
  -3709205.49649  -2886220.92647  23518245.6944   23518242.9834
      -599.2294
  -4552538.03949  -3616238.41047  23399909.3194   23399908.3664
      1714.9504
   1074285.25849    834717.88748  21719084.8974   21719083.3154
      -685.3054
 04  9 14 22  6 45.0030000  0  6G 8G13G10G19G28G27
  -5595100.68449  -4354592.55548  21852365.4604   21852365.0854
       446.1904
  10901026.57449   8486769.12147  22328121.1324   22328119.3234
     -3311.4314
     19407.48849   -578082.87147  24261341.9764   24261341.6834
      -519.2104
  -3700083.80949  -2879113.10247  23519981.7574   23519978.4374
      -608.1124
  -4578195.04349  -3636230.85547  23395026.6474   23395025.4914
      1710.4674
   1084607.00449    842760.80548  21721048.8664   21721047.2294
      -688.1164
 04  9 14 22  7  0.0030000  0  6G 8G13G10G19G28G27
  -5601745.73049  -4359770.48848  21851100.8514   21851099.9604
       443.0034
  10950794.03549   8525548.93447  22337591.4134   22337590.8124
     -3317.8314
     27331.72349   -571908.17247  24262850.3664   24262849.1284
      -528.2824
  -3690830.48849  -2871902.73447  23521742.3354   23521740.5224
      -616.8884
  -4603786.41049  -3656172.16047  23390156.5624   23390156.5074
      1706.0914
   1094969.25049    850835.25848  21723020.7414   21723019.4334
      -690.8164
 04  9 14 22  7 15.0030000  0  6G 8G13G10G19G28G27
  -5608340.27049  -4364909.09047  21849846.2264   21849844.4564
       439.6364
  11000660.04749   8564405.53947  22347080.9214   22347079.6794
     -3324.4014
     35394.69149   -565625.36647  24264384.3434   24264384.0194
      -537.5314
  -3681442.75449  -2864587.56647  23523528.5774   23523526.3314
      -625.8494
  -4629309.32449  -3676060.10247  23385300.3354   23385298.7374
      1701.5284
   1105374.70349    858943.41848  21724999.8434   21724999.2454
      -693.6974
 04  9 14 22  7 30.0030000  0  6G 8G13G10G19G28G27
  -5614883.76649  -4370007.92647  21848601.4834   21848599.7724
       436.2334
  11050624.81349   8603339.09447  22356587.9764   22356586.7764
     -3330.9844
     43596.78549   -559234.06247  24265945.3664   24265945.7264
      -546.8064
  -3671919.89849  -2857167.19547  23525340.7654   23525338.0304
      -634.8574
  -4654763.05949  -3695894.19147  23380456.4604   23380455.1554
      1696.9164
   1115823.94149    867085.66448  21726989.6164   21726987.2724
      -696.6164
 04  9 14 22  7 45.0030000  0  6G 8G13G10G19G28G27
  -5621377.25849  -4375067.76648  21847365.7024   21847364.5624
       432.8994
  11100686.94949   8642348.53147  22366115.0074   22366113.4524
     -3337.4764
     51936.78549   -552735.37947  24267533.0464   24267532.0694
      -556.0004
  -3662263.19149  -2849642.48047  23527178.3194   23527175.8124
      -643.7804
  -4680148.95749  -3715675.36347  23375625.6554   23375624.2764
      1692.3934
   1126315.76249    875261.13348  21728985.3274   21728984.1324
      -699.4554
 04  9 14 22  8  0.0030000  0  6G 8G13G10G19G28G27
  -5627821.31649  -4380089.10948  21846138.6794   21846138.3314
       429.6044
  11150845.74249   8681433.28147  22375660.2024   22375657.9764
     -3343.9204
     60414.08649   -546129.67247  24269145.5224   24269145.0694
      -565.1534
  -3652473.17649  -2842013.83247  23529041.5304   23529037.9334
      -652.6684
  -4705467.36349  -3735403.96547  23370807.1324   23370805.9764
      1687.8944
   1136849.71549    883469.36348  21730990.1474   21730988.8354
      -702.2644
 04  9 14 22  8 15.0030000  0  6G 8G13G10G19G28G27
  -5634216.65649  -4385072.48448  21844922.3514   21844920.7694
       426.3564
  11201100.14149   8720592.52747  22385223.1084   22385221.4914
     -3350.2934
     69027.98449   -539417.54347  24270785.1634   24270784.5304
      -574.2604
  -3642550.55549  -2834281.93447  23530929.8124   23530927.1084
      -661.5084
  -4730719.05149  -3755080.57047  23366002.6634   23366001.1674
      1683.4464
   1147424.94149    891709.80148  21733002.1244   21733001.6044
      -705.0154
 04  9 14 22  8 30.0030000  0  6G 8G13G10G19G28G27
  -5640562.31649  -4390017.14848  21843714.9214   21843714.4134
       423.0444
  11251451.52349   8759827.37147  22394804.6084   22394803.3154
     -3356.7594
     77779.82049   -532597.94947  24272450.9834   24272449.7964
      -583.4564
  -3632493.85549  -2826445.51647  23532843.2804   23532840.5934
      -670.4474
  -4755902.32049  -3774703.85947  23361210.3584   23361208.6044
      1678.8854
   1158042.89549    899983.55148  21735022.6554   21735022.0624
      -707.8644
 04  9 14 22  8 45.0030000  0  6G 8G13G10G19G28G27
  -5646857.29749  -4394922.32848  21842516.3744   21842516.0114
       419.6654
  11301900.00049   8799137.83647  22404404.6944   22404403.1904
     -3363.2324
     86669.92649   -525670.55547  24274141.6794   24274141.8664
      -592.6744
  -3622302.46549  -2818504.16447  23534782.4834   23534779.1044
      -679.4264
  -4781016.75449  -3794273.54747  23356431.1714   23356429.0504
      1674.2964
   1168704.13349    908290.99248  21737052.0934   21737050.6324
      -710.7494
 04  9 14 22  9  0.0030000  0  6G 8G13G10G19G28G27
  -5653101.85949  -4399788.19948  21841328.4914   21841328.0304
       416.3044
  11352444.81349   8838523.39147  22414023.3124   22414022.7224
     -3369.6544
     95697.66449   -518635.96147  24275859.5384   24275859.1514
      -601.8494
  -3611976.91049  -2810458.25847  23536747.0694   23536745.0424
      -688.3704
  -4806062.79749  -3813789.91447  23351664.9134   23351662.8624
      1669.7364
   1179408.18449    916631.79748  21739088.5774   21739087.8624
      -713.6034
 04  9 14 22  9 15.0030000  0  6G 8G13G10G19G28G27
  -5659296.25849  -4404615.00848  21840149.7414   21840149.2844
       412.9604
  11403086.13349   8877984.12547  22423660.0854   22423658.9684
     -3376.0884
    104863.31649   -511493.87147  24277603.6324   24277603.7614
      -611.0434
  -3601516.94149  -2802307.64847  23538737.6944   23538736.1124
      -697.3314
  -4831040.12949  -3833252.74247  23346911.3514   23346910.3824
      1665.1554
   1190155.25849    925006.12948  21741134.3974   21741132.5584
      -716.4724
 04  9 14 22  9 30.0030000  0  6G 8G13G10G19G28G27
  -5665439.45349  -4409401.92648  21838980.9374   21838980.0974
       409.5464
  11453824.53549   8917520.52747  22433314.9764   22433313.9334
     -3382.5604
    114167.67249   -504243.74247  24279374.2264   24279374.5034
      -620.2904
  -3590921.75449  -2794051.65647  23540753.7964   23540751.6204
      -706.3464
  -4855947.82849  -3852661.30547  23342172.0384   23342170.1084
      1660.5134
   1200946.07849    933414.57048  21743187.7494   21743186.3944
      -719.3884
 04  9 14 22  9 45.0030000  0  6G 8G13G10G19G28G27
  -5671534.47749  -4414151.27348  21837820.8354   21837819.7804
       406.3354
  11504656.78549   8957130.05947  22442988.2264   22442986.3394
     -3388.8174
    123607.57049   -496887.97747  24281171.2494   24281170.3514
      -629.3274
  -3580194.24249  -2785692.58647  23542795.3124   23542793.6554
      -715.1674
  -4880788.90649  -3872017.95747  23337444.4214   23337443.5154
      1656.0724
   1211777.84449    941854.89848  21745248.9764   21745247.2724
      -722.1184
 04  9 14 22 10  0.0030000  0  6G 8G13G10G19G28G27
  -5677579.12549  -4418861.36748  21836670.4524   21836669.9444
       402.9774
  11555584.90649   8996814.29747  22452679.0854   22452677.9564
     -3395.2084
    133185.30549   -489424.81647  24282993.2724   24282991.7294
      -638.5164
  -3569332.02749  -2777228.52347  23544862.6794   23544859.9214
      -724.1484
  -4905560.89849  -3891320.78547  23332730.8664   23332729.0074
      1651.4664
   1222652.86349    950328.94948  21747318.0544   21747316.2264
      -725.0014
 04  9 14 22 10 15.0030000  0  6G 8G13G10G19G28G27
  -5683572.98049  -4423531.88748  21835529.5384   21835528.2574
       399.5904
  11606609.14849   9036573.40247  22462389.3514   22462387.7884
     -3401.6164
    142901.15249   -481854.04747  24284841.8584   24284840.6594
      -647.7234
  -3558334.85549  -2768659.28947  23546955.5304   23546952.9874
      -733.1454
  -4930263.43449  -3910569.48847  23328029.9054   23328029.2764
      1646.8364
   1233571.46549    958836.95348  21749395.8434   21749394.1514
      -727.9074
 04  9 14 22 10 30.0030000  0  6G 8G13G10G19G28G27
  -5689515.59449  -4428162.50448  21834398.8664   21834397.4834
       396.1744
  11657729.41449   9076407.35247  22472117.5304   22472115.2924
     -3408.0184
    152755.24249   -474175.52346  24286718.0774   24286717.0464
      -656.9394
  -3547202.32449  -2759984.60547  23549073.3744   23549071.3124
      -742.1694
  -4954896.23049  -3929763.85547  23323342.6634   23323341.0734
      1642.1864
   1244534.00849    967379.18448  21751481.8354   21751480.2924
      -730.8364
 04  9 14 22 10 45.0030000  0  6G 8G13G10G19G28G27
  -5695407.43449  -4432753.53148  21833278.1164   21833275.9914
       392.7894
  11708945.19549   9116315.73047  22481863.1714   22481862.0074
     -3414.3854
    162747.09849   -466389.64847  24288618.1794   24288618.4444
      -666.1244
  -3535934.86749  -2751204.78547  23551217.2494   23551215.2804
      -751.1644
  -4979459.48849  -3948904.03947  23318668.3904   23318667.1554
      1637.5514
   1255539.99249    975955.29348  21753576.3434   21753574.8124
      -733.7324
 04  9 14 22 11  0.0030000  0  6G 8G13G10G19G28G27
  -5701247.68749  -4437304.36347  21832166.3514   21832164.2574
       389.3504
  11760256.92649   9156298.87547  22491627.3974   22491626.0814
     -3420.7824
    172877.35249   -458495.92647  24290546.0464   24290546.3084
      -675.3504
  -3524531.70349  -2742319.20347  23553387.8044   23553385.5384
      -760.2114
  -5003952.53949  -3967989.49647  23314007.0934   23314006.6324
      1632.8704
   1266590.21549    984565.85248  21755678.6794   21755678.0074
      -736.6824
 04  9 14 22 11 15.0030000  0  6G 8G13G10G19G28G27
  -5707036.23849  -4441814.93448  21831065.3274   21831063.8704
       385.9034
  11811664.41849   9196356.65247  22501410.0694   22501407.6554
     -3427.1664
    183146.14549   -450494.28547  24292500.9294   24292499.5264
      -684.5864
  -3512992.73849  -2733327.78947  23555583.7654   23555581.1834
      -769.2644
  -5028375.19549  -3987020.11747  23309359.4214   23309358.7574
      1628.1774
   1277684.80149    993210.96948  21757790.0854   21757789.4174
      -739.6394
 04  9 14 22 11 30.0030000  0  6G 8G13G10G19G28G27
  -5712773.58649  -4446285.59848  21829972.9914   21829972.0974
       382.4904
  11863166.93449   9236488.45347  22511210.6324   22511208.8544
     -3433.5014
    193552.72749   -442385.25047  24294481.0774   24294479.5814
      -693.7724
  -3501318.44949  -2724230.93047  23557805.7414   23557803.2694
      -778.2864
  -5052727.88349  -4005996.21147  23304725.9684   23304724.1204
      1623.5134
   1288823.22749   1001890.25048  21759910.2414   21759908.4334
      -742.5624
 04  9 14 22 11 45.0030000  0  6G 8G13G10G19G28G27
  -5718459.13349  -4450715.88748  21828891.4914   21828890.2534
       379.0364
  11914764.96149   9276694.67647  22521029.0934   22521027.3544
     -3439.8684
    204097.76649   -434168.32447  24296487.0544   24296486.9054
      -703.0034
  -3489508.20749  -2715028.15647  23560053.2574   23560049.9094
      -787.3494
  -5077009.88349  -4024917.23847  23300104.9054   23300103.6324
      1618.8004
   1300006.11749   1010604.19548  21762038.5074   21762036.3274
      -745.5264
 04  9 14 22 12  0.0030000  0  6G 8G13G10G19G28G27
  -5724093.14149  -4455106.00848  21827819.4764   21827817.6944
       375.6014
  11966458.12149   9316975.04747  22530865.6084   22530864.3974
     -3446.2114
    214781.09049   -425843.67247  24298521.0464   24298520.8864
      -712.2224
  -3477562.12549  -2705719.47747  23562326.5694   23562323.1714
      -796.4054
  -5101221.31249  -4043783.23447  23295497.8664   23295496.4794
      1614.0954
   1311233.37149   1019352.70348  21764174.7104   21764173.0544
      -748.4844
 04  9 14 22 12 15.0030000  0  6G 8G13G10G19G28G27
  -5729676.39149  -4459456.58248  21826756.8904   21826755.6084
       372.2174
  12018245.17649   9357328.57047  22540720.9684   22540718.6044
     -3452.4704
    225601.54349   -417412.13747  24300579.5224   24300580.2804
      -721.3644
  -3465481.14849  -2696305.74247  23564624.8044   23564622.6634
      -805.3984
  -5125363.05549  -4062594.95747  23290903.9374   23290902.5194
      1609.4494
   1322504.11749   1028135.11348  21766319.5384   21766317.6364
      -751.3834
 04  9 14 22 12 30.0030000  0  6G 8G13G10G19G28G27
  -5735208.32049  -4463767.18048  21825704.1554   21825703.1014
       368.7954
  12070126.32849   9397755.43447  22550593.3044   22550592.0974
     -3458.7434
    236559.57449   -408873.40647  24302664.2964   24302666.0464
      -730.5354
  -3453264.81249  -2686786.55547  23566950.1084   23566947.5224
      -814.4224
  -5149434.58649  -4081351.96947  23286322.6164   23286321.9094
      1604.7694
   1333818.78549   1036951.74648  21768472.3744   21768470.8004
      -754.3114
 04  9 14 22 12 45.0030000  0  6G 8G13G10G19G28G27
  -5740687.82049  -4468036.89848  21824661.5464   21824660.7374
       365.3004
  12122102.80949   9438256.55947  22560484.1404   22560482.8664
     -3465.0994
    247656.43449   -400226.49647  24304777.3194   24304776.4134
      -739.7914
  -3440911.88749  -2677160.86347  23569299.9214   23569297.0894
      -823.5284
  -5173434.52349  -4100053.18747  23281755.7184   23281754.5074
      1599.9964
   1345178.63749   1045803.57448  21770633.7574   21770632.2884
      -757.3234
 04  9 14 22 13  0.0030000  0  6G 8G13G10G19G28G27
  -5746115.94949  -4472266.62548  21823628.0934   21823627.0854
       361.8754
  12174173.01649   9478830.70747  22570392.8194   22570392.1204
     -3471.3474
    258890.76649   -391472.47747  24306914.2654   24306913.9484
      -748.9554
  -3428423.48049  -2667429.63747  23571676.6474   23571672.8434
      -832.5604
  -5197364.10549  -4118699.60247  23277201.8124   23277200.6514
      1595.3054
   1356582.57049   1054689.76648  21772804.1014   21772802.9794
      -760.2624
 04  9 14 22 13 15.0030000  0  6G 8G13G10G19G28G27
  -5751490.89549  -4476454.88347  21822605.6084   21822603.6204
       358.3304
  12226338.55549   9519479.17247  22580319.9444   22580318.5264
     -3477.7034
    270264.22749   -382610.06247  24309078.7184   24309078.1874
      -758.2314
  -3415797.77049  -2657591.41447  23574079.1404   23574075.3544
      -841.7144
  -5221221.41049  -4137289.67647  23272662.2724   23272660.6834
      1590.4874
   1368032.35549   1063611.68048  21774983.3124   21774981.6204
      -763.3194
 04  9 14 22 13 30.0040000  0  6G 8G13G10G19G28G27
  -5756813.41849  -4480602.30148  21821592.4344   21821590.8714
       354.8354
  12278602.21549   9560204.07047  22590265.3014   22590264.2544
     -3484.2444
    281777.07849   -373638.93846  24311269.2074   24311268.8914
      -767.5234
  -3403034.41449  -2647645.93747  23576507.7304   23576503.9654
      -850.8904
  -5245008.47349  -4155825.03147  23268135.5664   23268133.7034
      1585.8044
   1379528.37949   1072569.60248  21777171.0664   21777169.4184
      -766.4024
 04  9 14 22 13 45.0040000  0  6G 8G13G10G19G28G27
  -5762082.30149  -4484707.90648  21820589.6844   21820588.2384
       351.2594
  12330957.31349   9601000.22747  22600228.4804   22600227.7464
     -3490.3404
    293428.21149   -364560.18047  24313486.4964   24313486.1954
      -776.7424
  -3390134.64149  -2637594.17247  23578962.4264   23578961.0234
      -859.9854
  -5268721.52349  -4174302.71547  23263624.0744   23263622.1024
      1580.8704
   1391069.60949   1081562.78948  21779366.3094   21779365.3914
      -769.4154
 04  9 14 22 14  0.0040000  0  6G 8G13G10G19G28G27
  -5767299.07449  -4488772.91448  21819597.1994   21819596.7194
       347.7854
  12383406.02349   9641869.34047  22610208.5354   22610208.2154
     -3496.5814
    305217.16849   -355374.00447  24315729.9494   24315729.1844
      -785.9304
  -3377098.62149  -2627436.21947  23581443.5514   23581440.7894
      -869.0684
  -5292363.10549  -4192724.69947  23259123.8484   23259122.1644
      1576.1054
   1402655.70349   1090590.91048  21781571.6604   21781570.3204
      -772.4064
 04  9 14 22 14 15.0040000  0  6G 8G13G10G19G28G27
  -5772462.36349  -4492796.24248  21818614.7694   21818613.2384
       344.2194
  12435949.67249   9682812.42247  22620207.5194   22620206.3244
     -3502.9104
    317145.34049   -346079.28947  24317998.8324   24318000.2424
      -795.2114
  -3363924.82849  -2617170.92647  23583950.3094   23583947.9654
      -878.2534
  -5315931.63749  -4211089.77747  23254639.0984   23254637.5044
      1571.2354
   1414288.13749   1099655.14848  21783785.2934   21783784.5824
      -775.4964
 04  9 14 22 14 30.0040000  0  6G 8G13G10G19G28G27
  -5777571.00449  -4496776.99648  21817642.4494   21817642.0824
       340.5764
  12488588.82049   9723829.90647  22630224.3404   22630223.2624
     -3509.2774
    329213.43049   -336675.58646  24320295.8874   24320296.8484
      -804.5394
  -3350612.36749  -2606797.56647  23586483.1214   23586482.1134
      -887.4974
  -5339426.28549  -4229397.25847  23250168.9414   23250166.8324
      1566.3104
   1425967.87949   1108756.26248  21786007.1444   21786006.2274
      -778.6494
 04  9 14 22 14 45.0040000  0  6G 8G13G10G19G28G27
  -5782626.78549  -4500716.55948  21816680.0984   21816680.1604
       337.0524
  12541321.46549   9764920.24647  22640259.9734   22640258.1994
     -3515.5104
    341419.63349   -327164.27347  24322618.6604   24322619.2814
      -813.7474
  -3337163.10949  -2596317.62147  23589042.7694   23589040.6684
      -896.6174
  -5362848.75849  -4247648.52747  23245711.6684   23245710.1134
      1561.4984
   1437693.25849   1117892.91048  21788238.6844   21788237.2464
      -781.6924
 04  9 14 22 15  0.0040000  0  6G 8G13G10G19G28G27
  -5787630.63749  -4504615.67648  21815728.2774   21815727.7974
       333.5904
  12594146.29749   9806082.42247  22650311.6844   22650310.3094
     -3521.6554
    353762.82449   -317546.20747  24324968.3244   24324967.6604
      -822.8794
  -3323577.86749  -2585731.72747  23591628.3164   23591626.1174
      -905.6834
  -5386200.00449  -4265844.26647  23241268.0194   23241266.9734
      1556.7504
   1449463.16049   1127064.26248  21790478.6444   21790477.4344
      -784.6604
 04  9 14 22 15 15.0040000  0  6G 8G13G10G19G28G27
  -5792580.64849  -4508472.81248  21814786.0744   21814785.3554
       330.0014
  12647065.03149   9847317.78147  22660381.7154   22660380.4184
     -3527.9164
    366244.89549   -307819.87547  24327343.0514   24327343.4104
      -832.1384
  -3309854.87949  -2575038.49247  23594239.9884   23594237.5084
      -914.8664
  -5409478.07049  -4283982.98047  23236838.0514   23236836.8984
      1551.8714
   1461279.67249   1136271.93048  21792727.1214   21792725.5394
      -787.7674
 04  9 14 22 15 30.0040000  0  6G 8G13G10G19G28G27
  -5797476.62549  -4512287.85248  21813854.8094   21813853.3634
       326.3984
  12700077.77049   9888626.41447  22670469.7464   22670468.8094
     -3534.1834
    378866.01249   -297985.25047  24329745.2154   24329744.9454
      -841.4084
  -3295993.83249  -2564237.64147  23596877.5904   23596874.6054
      -924.0704
  -5432682.48449  -4302064.32447  23232422.7074   23232420.5514
      1546.9614
   1473143.03549   1145516.12148  21794985.0194   21794983.2854
      -790.8914
 04  9 14 22 15 45.0040000  0  6G 8G13G10G19G28G27
  -5802319.21549  -4516061.29348  21812933.0434   21812931.6254
       322.8394
  12753183.41049   9930007.39847  22680574.8014   22680573.9494
     -3540.3764
    391625.27049   -288042.95347  24332172.7464   24332172.4184
      -850.6174
  -3281995.56649  -2553329.90647  23599540.4184   23599538.9924
      -933.2184
  -5455814.12949  -4320088.95747  23228020.9184   23228019.1254
      1542.1104
   1485052.32849   1154796.07848  21797251.1214   21797249.8014
      -793.9534
 04  9 14 22 16  0.0040000  0  6G 8G13G10G19G28G27
  -5807107.82449  -4519792.65648  21812021.7154   21812020.3524
       319.2414
  12806382.33649   9971461.08247  22690698.8244   22690697.8324
     -3546.5954
    404522.97749   -277992.79347  24334626.8944   24334626.3484
      -859.8474
  -3267859.46149  -2542314.75847  23602230.6844   23602228.2934
      -942.4074
  -5478872.42249  -4338056.43047  23223633.4264   23223631.9614
      1537.2204
   1497008.18449   1164112.34448  21799525.8874   21799524.7074
      -797.0574
 04  9 14 22 16 15.0040000  0  6G 8G13G10G19G28G27
  -5811843.97749  -4523483.15248  21811120.9344   21811119.0044
       315.7434
  12859672.99649  10012986.23847  22700839.8244   22700839.1604
     -3552.7114
    417557.93049   -267835.68447  24337107.9344   24337106.7384
      -868.9974
  -3253586.86749  -2531193.25447  23604947.3554   23604943.7424
      -951.5064
  -5501858.46949  -4355967.60547  23219258.5594   23219257.0704
      1532.4034
   1509009.53149   1173464.04748  21801810.0124   21801808.4534
      -800.0904
 04  9 14 22 16 30.0040000  0  6G 8G13G10G19G28G27
  -5816526.82849  -4527132.12548  21810229.5664   21810228.4534
       312.1904
  12913055.66049  10054583.10247  22710998.2234   22710997.3874
     -3558.8444
    430730.48449   -257571.38747  24339614.2854   24339613.2424
      -878.1704
  -3239177.20749  -2519964.93747  23607689.0124   23607685.8404
      -960.6444
  -5524771.78949  -4373822.10947  23214897.7304   23214896.3524
      1527.5554
   1521056.86749   1182851.57048  21804102.6914   21804100.9184
      -803.1564
 04  9 14 22 16 45.0040000  0  6G 8G13G10G19G28G27
  -5821154.78149  -4530738.30948  21809348.1134   21809347.2194
       308.5304
  12966531.77349  10096252.78547  22721174.3554   22721173.3054
     -3565.0744
    444042.13349   -247198.66046  24342148.1374   24342147.3754
      -887.4434
  -3224628.97349  -2508628.60947  23610456.9414   23610454.8914
      -969.8824
  -5547610.55949  -4391618.51647  23210552.5194   23210550.7934
      1522.5854
   1533151.86349   1192276.24248  21806403.8874   21806402.7074
      -806.3334
 04  9 14 22 17  0.0040000  0  6G 8G13G10G19G28G27
  -5825727.99649  -4534301.85548  21808478.8944   21808478.1914
       304.8814
  13020100.73049  10137994.80547  22731368.2624   22731367.5194
     -3571.2644
    457492.52049   -236717.84847  24344707.0664   24344706.7934
      -896.6924
  -3209942.36749  -2497184.50447  23613251.8324   23613249.7664
      -979.1074
  -5570375.10549  -4409357.10947  23206220.6684   23206220.1874
      1517.6364
   1545294.03949   1201737.68448  21808714.8324   21808713.5744
      -809.4784
 04  9 14 22 17 15.0040000  0  6G 8G13G10G19G28G27
  -5830248.70749  -4537824.47348  21807618.4804   21807617.8094
       301.3814
  13073760.41849  10179807.51647  22741579.3324   22741577.8754
     -3577.3124
    471079.68049   -226130.44147  24347292.8404   24347293.0124
      -905.8114
  -3195119.25049  -2485633.99247  23616072.6054   23616069.6994
      -988.2084
  -5593067.35249  -4427039.35547  23201902.0984   23201900.8094
      1512.8164
   1557481.67249   1211234.55148  21811034.0514   21811032.5984
      -812.5094
 04  9 14 22 17 30.0040000  0  6G 8G13G10G19G28G27
  -5834714.98049  -4541304.67648  21806768.1374   21806767.5704
       297.7524
  13127512.02749  10221691.85547  22751807.9964   22751807.1844
     -3583.4414
    484804.87549   -215435.48447  24349904.3244   24349904.2234
      -915.0134
  -3180158.30949  -2473976.12147  23618919.4104   23618916.6414
      -997.3964
  -5615685.70349  -4444664.02747  23197598.6374   23197596.9144
      1507.8904
   1569716.19549   1220767.94948  21813362.1054   21813360.6134
      -815.6354
 04  9 14 22 17 45.0040000  0  6G 8G13G10G19G28G27
  -5839126.61749  -4544742.29748  21805928.6764   21805927.5394
       294.1094
  13181355.91449  10263648.10547  22762054.1214   22762052.8714
     -3589.5924
    498668.47749   -204632.71147  24352543.8554   24352542.7464
      -924.2404
  -3165059.05149  -2462210.47347  23621792.8094   23621790.7384
     -1006.6174
  -5638229.59049  -4462230.67247  23193308.0124   23193307.1874
      1502.9264
   1581998.29349   1230338.42248  21815699.3944   21815697.8714
      -818.8074
 04  9 14 22 18  0.0040000  0  6G 8G13G10G19G28G27
  -5843484.39149  -4548137.96148  21805099.7624   21805098.3754
       290.5184
  13235290.73449  10305675.23047  22772317.5514   22772316.9184
     -3595.6554
    512669.28549   -193722.96547  24355206.9884   24355206.2974
      -933.3874
  -3149822.48049  -2450337.82047  23624692.9494   23624690.2034
     -1015.7714
  -5660700.03949  -4479740.08247  23189031.8014   23189030.5744
      1498.0304
   1594326.79749   1239945.04748  21818045.6844   21818044.2384
      -821.9004
 04  9 14 22 18 15.0040000  0  6G 8G13G10G19G28G27
  -5847788.66049  -4551491.94148  21804280.6374   21804278.9264
       286.9514
  13289316.10249  10347772.91047  22782598.3554   22782596.7894
     -3601.6914
    526807.21949   -182706.39847  24357898.4344   24357896.1804
      -942.5294
  -3134448.70749  -2438358.23447  23627618.0514   23627615.3484
     -1024.9184
  -5683097.11349  -4497192.30147  23184769.0664   23184769.0194
      1493.1384
   1606701.75049   1249587.88748  21820400.3014   21820398.7934
      -824.9974
 04  9 14 22 18 30.0040000  0  6G 8G13G10G19G28G27
  -5852039.23449  -4554804.06648  21803471.9574   21803470.1724
       283.3724
  13343431.76249  10389940.92647  22792895.8874   22792895.0434
     -3607.7114
    541081.97749   -171583.18747  24360613.3634   24360612.9454
      -951.6514
  -3118937.62549  -2426271.68447  23630569.2154   23630567.1954
     -1034.0724
  -5705420.62949  -4514587.24247  23180521.8484   23180520.3524
      1488.2344
   1619123.12549   1259266.89148  21822763.7774   21822762.4574
      -828.0924
 04  9 14 22 18 45.0040000  0  6G 8G13G10G19G28G27
  -5856235.05549  -4558073.53548  21802673.7544   21802671.8944
       279.7214
  13397638.63349  10432180.03147  22803211.0044   22803209.9844
     -3613.7914
    555494.56649   -160352.60247  24363356.4414   24363354.6334
      -960.8394
  -3103288.54349  -2414077.56247  23633547.0984   23633545.5514
     -1043.2724
  -5727669.75049  -4531924.16447  23176287.8634   23176287.4374
      1483.2754
   1631591.98049   1268982.87948  21825136.7074   21825135.5624
      -831.2574
 04  9 14 22 19  0.0040000  0  6G 8G13G10G19G28G27
  -5860376.74649  -4561300.80148  21801884.9884   21801883.5434
       276.1134
  13451935.66849  10474489.38347  22813543.3094   22813543.0864
     -3619.8024
    570044.20749   -149015.23847  24366125.4574   24366123.5864
      -969.9764
  -3087501.98449  -2401776.37547  23636551.1844   23636549.8794
     -1052.4374
  -5749844.91849  -4549203.50447  23172067.7154   23172066.8554
      1478.3454
   1644107.72349   1278735.39848  21827518.2854   21827517.5904
      -834.3834
 04  9 14 22 19 15.0040000  0  6G 8G13G10G19G28G27
  -5864464.94549  -4564486.40648  21801107.2154   21801105.7504
       272.5474
  13506322.01649  10516868.32447  22823892.8714   22823892.2424
     -3625.7574
    584730.09449   -137571.67647  24368919.8324   24368918.0164
      -979.0594
  -3071578.56649  -2389368.50847  23639581.0744   23639579.4304
     -1061.5614
  -5771946.72349  -4566425.63347  23167862.5354   23167860.7664
      1473.4544
   1656669.70349   1288523.94148  21829908.9574   21829907.5824
      -837.4654
 04  9 14 22 19 30.0040000  0  6G 8G13G10G19G28G27
  -5868500.33249  -4567630.85548  21800338.8244   21800338.4064
       269.0264
  13560796.58249  10559316.02047  22834259.4024   22834258.2034
     -3631.6384
    599551.32049   -126022.65646  24371739.5274   24371738.9414
      -988.0824
  -3055519.26649  -2376854.77747  23642638.0904   23642634.8054
     -1070.6204
  -5793976.03949  -4583591.32847  23163670.1604   23163668.3364
      1468.6214
   1669277.04349   1298347.86348  21832308.1214   21832306.5044
      -840.4894
 04  9 14 22 19 45.0040000  0  6G 8G13G10G19G28G27
  -5872480.96549  -4570732.65248  21799581.6994   21799580.6844
       265.3764
  13615361.00049  10601833.72747  22844642.6444   22844641.5194
     -3637.6284
    614509.78149   -114366.69546  24374586.7304   24374585.5354
      -997.2314
  -3039321.98049  -2364233.50847  23645719.9494   23645718.1214
     -1079.8194
  -5815930.74249  -4600698.85247  23159492.2154   23159491.7814
      1463.6474
   1681931.82849   1308208.71948  21834715.7154   21834714.7814
      -843.6524
 04  9 14 22 20  0.0040000  0  6G 8G13G10G19G28G27
  -5876405.32849  -4573790.58648  21798835.0664   21798833.6804
       261.6244
  13670016.80949  10644422.64547  22855043.2464   22855042.8984
     -3643.7214
    629606.94549   -102602.67647  24377458.8094   24377458.7854
     -1006.4784
  -3022985.22749  -2351503.54347  23648829.2234   23648826.4224
     -1089.1174
  -5837809.24249  -4617747.02747  23155329.4104   23155327.8834
      1458.5674
   1694635.75849   1318107.89148  21837133.5664   21837131.9494
      -846.9294
 04  9 14 22 20 15.0040000  0  6G 8G13G10G19G28G27
  -5880274.30149  -4576805.37148  21798098.7854   21798096.9224
       257.9324
  13724762.61749  10687081.68847  22865460.8484   22865459.9264
     -3649.7214
    644841.64149    -90731.51247  24380358.6914   24380357.1874
     -1015.6464
  -3006510.02349  -2338665.73447  23651964.2304   23651961.6724
     -1098.3474
  -5859612.52749  -4634736.56647  23151180.1684   23151178.1874
      1453.5524
   1707387.77749   1328044.55148  21839560.4264   21839558.5434
      -850.1354
 04  9 14 22 20 30.0040000  0  6G 8G13G10G19G28G27
  -5884086.90649  -4579776.22348  21797373.1134   21797371.6094
       254.1744
  13779599.28149  10729811.53947  22875896.1054   22875895.5044
     -3655.7784
    660214.80149    -78752.43447  24383284.1214   24383283.8834
     -1024.8774
  -2989895.34449  -2325719.23447  23655125.1524   23655123.2304
     -1107.6454
  -5881339.43749  -4651666.60947  23147045.5664   23147044.6644
      1448.4614
   1720188.91449   1338019.46548  21841996.1214   21841994.4344
      -853.4094
 04  9 14 22 20 45.0040000  0  6G 8G13G10G19G28G27
  -5887843.42649  -4582703.37148  21796658.6134   21796657.0124
       250.4354
  13834526.03549  10772611.58647  22886348.1054   22886347.0904
     -3661.7844
    675725.77049    -66665.95747  24386234.8164   24386234.6174
     -1034.0654
  -2973141.72749  -2312664.44947  23658313.1444   23658310.5314
     -1116.9084
  -5902990.42649  -4668537.49247  23142925.9884   23142924.2194
      1443.3994
   1733038.79349   1348032.34448  21844441.6444   21844439.8794
      -856.6594
 04  9 14 22 21  0.0040000  0  6G 8G13G10G19G28G27
  -5891544.84849  -4585587.57048  21795953.6844   21795952.6724
       246.7614
  13889541.82849  10815481.03147  22896817.0194   22896816.6484
     -3667.7204
    691373.58649    -54472.84447  24389213.2304   24389212.7694
     -1043.1884
  -2956250.05949  -2299502.07847  23661528.2304   23661525.0394
     -1126.1114
  -5924566.26649  -4685349.81247  23138819.3944   23138818.1644
      1438.3894
   1745936.66049   1358082.64148  21846895.7624   21846894.1644
      -859.8584
 04  9 14 22 21 15.0040000  0  6G 8G13G10G19G28G27
  -5895190.10949  -4588428.02048  21795259.7774   21795258.2464
       243.0174
  13944647.34849  10858420.36347  22907303.8714   22907303.2814
     -3673.7014
    707159.05549    -42172.46947  24392216.7154   24392217.2624
     -1052.3654
  -2939219.32449  -2286231.39547  23664769.1294   23664765.2854
     -1135.3824
  -5946066.01649  -4702102.82047  23134727.9804   23134726.6954
      1433.3174
   1758883.48449   1368171.07848  21849358.9654   21849357.5474
      -863.1224
 04  9 14 22 21 30.0040000  0  6G 8G13G10G19G28G27
  -5898779.96549  -4591225.29748  21794577.0744   21794575.4374
       239.3244
  13999841.51249  10901428.79347  22917806.8094   22917806.0274
     -3679.6114
    723081.24249    -29765.54747  24395246.5904   24395247.3124
     -1061.4794
  -2922050.34849  -2272852.94147  23668036.3324   23668033.5234
     -1144.5984
  -5967490.41849  -4718797.13347  23130651.5124   23130650.7344
      1428.2934
   1771878.36749   1378296.96148  21851832.0514   21851830.4144
      -866.3264
 04  9 14 22 21 45.0040000  0  6G 8G13G10G19G28G27
  -5902315.85249  -4593980.52748  21793904.1524   21793902.3834
       235.7264
  14055122.76249  10944505.04747  22928326.5904   22928325.4064
     -3685.4174
    739138.46149    -17253.43047  24398301.8714   24398302.0474
     -1070.4814
  -2904744.72349  -2259368.05147  23671329.1914   23671326.9454
     -1153.7084
  -5988840.81649  -4735433.77047  23126587.9964   23126587.2544
      1423.3604
   1784920.05549   1388459.32048  21854313.8484   21854312.0474
      -869.4464
 04  9 14 22 22  0.0040000  0  6G 8G13G10G19G28G27
  -5905797.16049  -4596693.22348  21793241.8324   21793240.8714
       232.0874
  14110491.18849  10987649.25447  22938862.4494   22938862.1764
     -3691.2284
    755331.22749     -4635.70747  24401384.0594   24401383.3324
     -1079.5184
  -2887301.85949  -2245776.21947  23674648.5434   23674646.0984
     -1162.8584
  -6010116.69549  -4752012.37147  23122539.4104   23122538.3324
      1418.3924
   1798009.00449   1398658.48847  21856803.9804   21856803.0044
      -872.5974
 04  9 14 22 22 15.0040000  0  6G 8G13G10G19G28G27
  -5909224.79349  -4599364.11348  21792589.3714   21792589.3674
       228.5094
  14165945.62149  11030860.48447  22949414.9804   22949414.4304
     -3696.9624
    771658.46549      8086.82047  24404490.5194   24404490.6374
     -1088.4834
  -2869722.84449  -2232078.28547  23677993.8014   23677990.8634
     -1171.9344
  -6031318.92649  -4768533.55947  23118504.4264   23118503.3054
      1413.4824
   1811144.28549   1408893.77748  21859304.1374   21859302.2464
      -875.6854
 04  9 14 22 22 30.0040000  0  6G 8G13G10G19G28G27
  -5912597.84049  -4601992.44548  21791947.7384   21791947.0354
       224.8704
  14221486.68049  11074139.21947  22959984.6134   22959983.8484
     -3702.7374
    788120.70349     20914.53947  24407623.1054   24407622.9494
     -1097.4834
  -2852006.93049  -2218273.68047  23681364.8094   23681362.3284
     -1181.0614
  -6052446.63349  -4784996.68447  23114484.9964   23114483.3124
      1408.5144
   1824326.80949   1419165.88348  21861812.5514   21861810.9374
      -878.8354
 04  9 14 22 22 45.0040000  0  6G 8G13G10G19G28G27
  -5915915.73449  -4604577.81248  21791316.1844   21791315.3244
       221.1934
  14277114.74649  11117485.72747  22970570.5904   22970568.9064
     -3708.5384
    804718.55149     33847.93847  24410782.1214   24410781.9064
     -1106.5234
  -2834153.40649  -2204361.81647  23684762.7304   23684759.5164
     -1190.2354
  -6073499.21949  -4801401.26247  23110478.1994   23110477.3404
      1403.5064
   1837557.35249   1429475.38748  21864330.4024   21864328.9804
      -882.0364
 04  9 14 22 23  0.0040000  0  6G 8G13G10G19G28G27
  -5919179.81649  -4607121.23048  21790695.1444   21790694.7384
       217.6054
  14332828.13749  11160898.75047  22981172.2694   22981171.6764
     -3714.2264
    821450.48449     46885.78147  24413966.1524   24413965.7974
     -1115.4624
  -2816163.85249  -2190343.96147  23688185.4264   23688182.8164
     -1199.3044
  -6094478.00849  -4817748.34447  23106486.2774   23106484.7194
      1398.5864
   1850834.37149   1439821.10548  21866856.6134   21866854.8794
      -885.1354
 04  9 14 22 23 15.0040000  0  6G 8G13G10G19G28G27
  -5922389.79749  -4609622.53148  21790083.9024   21790083.8914
       213.9994
  14388626.87949  11204378.25847  22991790.6054   22991790.1524
     -3719.9164
    838316.48049     60028.13347  24417175.0984   24417174.8794
     -1124.4004
  -2798038.08649  -2176220.00447  23691634.4964   23691632.6524
     -1208.3844
  -6115382.70749  -4834037.68747  23102508.3244   23102507.1954
      1393.6474
   1864158.21149   1450203.32048  21869392.5824   21869390.5314
      -888.2564
 04  9 14 22 23 30.0040000  0  6G 8G13G10G19G28G27
  -5925544.17649  -4612080.48448  21789484.2154   21789483.1524
       210.2924
  14444511.93049  11247925.03947  23002424.8944   23002425.4654
     -3725.6704
    855317.70749     73275.84447  24420410.2934   24420410.7694
     -1133.4154
  -2779774.75049  -2161988.81247  23695110.5514   23695108.0124
     -1217.5564
  -6136211.97349  -4850268.25847  23098545.2074   23098543.1994
      1388.6184
   1877530.14549   1460623.00048  21871937.0354   21871935.5664
      -891.4624
 04  9 14 22 23 45.0040000  0  6G 8G13G10G19G28G27
  -5928644.05549  -4614495.95348  21788894.0824   21788893.0514
       206.6594
  14500482.27749  11291538.27047  23013075.8164   23013074.7074
     -3731.3574
    872453.30149     86628.26247  24423671.1294   24423671.7074
     -1142.3734
  -2761374.73849  -2147651.15247  23698612.1294   23698609.5554
     -1226.6674
  -6156966.63749  -4866440.68747  23094594.8944   23094594.2114
      1383.6444
   1890949.50849   1471079.64548  21874490.6914   21874488.9924
      -894.6244
 04  9 14 22 24  0.0040000  0  6G 8G13G10G19G28G27
  -5931689.33249  -4616868.89848  21788314.8094   21788313.7274
       203.0184
  14556537.60949  11335217.71547  23023742.5824   23023742.5864
     -3737.0224
    889723.08249    100085.21147  24426957.7624   24426957.9494
     -1151.3194
  -2742838.12149  -2133207.01647  23702139.0744   23702136.9374
     -1235.7744
  -6177646.53149  -4882554.88347  23090660.5514   23090658.3714
      1378.6604
   1904416.33249   1481573.28148  21877053.5594   21877052.0704
      -897.7884
 04  9 14 22 24 15.0040000  0  6G 8G13G10G19G28G27
  -5934679.38749  -4619198.79748  21787745.3554   21787744.3164
       199.3374
  14612678.26649  11378963.68047  23034425.4574   23034424.4574
     -3742.7104
    907127.44549    113647.05147  24430270.1994   24430269.8484
     -1160.2914
  -2724164.26249  -2118655.95347  23705691.6844   23705689.8164
     -1244.9244
  -6198251.02349  -4898610.30547  23086738.6444   23086736.9374
      1373.6334
   1917931.20349   1492104.35248  21879624.8094   21879623.6994
      -900.9914
 04  9 14 22 24 30.0040000  0  6G 8G13G10G19G28G27
  -5937613.62949  -4621485.21548  21787187.6054   21787185.8164
       195.6164
  14668904.36749  11422776.20747  23045125.3794   23045124.1134
     -3748.4074
    924666.64549    127313.94547  24433607.1214   24433607.0904
     -1169.2804
  -2705353.00449  -2103997.82047  23709271.6134   23709269.2974
     -1254.0844
  -6218779.82049  -4914606.76247  23082832.2154   23082831.3674
      1368.5864
   1931494.48049   1502673.14848  21882205.8554   21882204.7384
      -904.2184
 04  9 14 22 24 45.0040000  0  6G 8G13G10G19G28G27
  -5940490.59449  -4623727.01248  21786639.9734   21786638.1054
       191.7984
  14725217.26649  11466656.34447  23055841.0744   23055841.4264
     -3754.1934
    942342.02049    141086.98047  24436970.1524   24436970.7234
     -1178.3584
  -2686402.68049  -2089231.32447  23712878.3014   23712875.2544
     -1263.3554
  -6239231.32449  -4930542.95747  23078940.3484   23078938.6254
      1363.4344
   1945107.74649   1513280.89148  21884796.3484   21884795.0434
      -907.5514
 04  9 14 22 25  0.0040000  0  6G 8G13G10G19G28G27
  -5943311.74249  -4625925.30548  21786103.4024   21786101.8834
       188.0774
  14781615.10249  11510602.70347  23066573.3324   23066572.1954
     -3759.8564
    960152.02049    154964.89847  24440359.9264   24440359.8164
     -1187.3334
  -2667314.98049  -2074357.75047  23716511.4344   23716508.2074
     -1272.5134
  -6259607.04749  -4946420.10247  23075062.9264   23075062.1724
      1358.3824
   1958769.56649   1523926.45747  21887396.2074   21887394.9694
      -910.7884
 04  9 14 22 25 15.0040000  0  6G 8G13G10G19G28G27
  -5946077.60549  -4628080.52048  21785576.9734   21785575.7234
       184.3914
  14838097.19949  11554614.68047  23077322.0124   23077321.1214
     -3765.4734
    978096.02049    168947.22747  24443774.2934   24443774.7774
     -1196.2674
  -2648090.45749  -2059377.59847  23720169.1764   23720166.6844
     -1281.6354
  -6279907.33249  -4962238.50447  23071200.0984   23071198.5944
      1353.3524
   1972479.60549   1534609.60548  21890005.8484   21890003.4924
      -914.0034
 04  9 14 22 25 30.0040000  0  6G 8G13G10G19G28G27
  -5948787.24249  -4630191.90648  21785061.3944   21785059.9224
       180.6424
  14894664.18449  11598692.84847  23088085.9024   23088085.2344
     -3771.1324
    996174.72349    183034.49647  24447215.4104   24447214.7584
     -1205.2474
  -2628728.21149  -2044290.11347  23723851.8324   23723851.1684
     -1290.8164
  -6300131.34049  -4977997.44147  23067351.7854   23067350.2934
      1348.2674
   1986238.70749   1545331.00048  21892623.5664   21892621.7584
      -917.2734
 04  9 14 22 25 45.0040000  0  6G 8G13G10G19G28G27
  -5951439.03949  -4632258.22348  21784556.0594   21784555.2584
       176.7864
  14951316.94949  11642837.83647  23098866.9654   23098866.3714
     -3776.8514
   1014389.12149    197227.56347  24450681.3244   24450679.6914
     -1214.2934
  -2609226.97349  -2029094.41047  23727564.4104   23727562.6564
     -1300.0834
  -6320277.61349  -4993695.82447  23063517.7854   23063516.5624
      1343.0854
   2000048.19549   1556091.63348  21895251.3484   21895249.9494
      -920.6334
 04  9 14 22 26  0.0040000  0  6G 8G13G10G19G28G27
  -5954034.10949  -4634280.37548  21784062.3014   21784060.9184
       173.0054
  15008054.31349  11687048.74247  23109663.6054   23109663.1174
     -3782.4914
   1032738.02049    211525.39147  24454172.1764   24454171.6804
     -1223.2604
  -2589587.98049  -2013791.25447  23731301.9184   23731299.2974
     -1309.2664
  -6340347.26249  -5009334.46947  23059698.1294   23059696.6254
      1337.9774
   2013907.03949   1566890.73847  21897888.4654   21897886.6604
      -923.9234
 04  9 14 22 26 15.0040000  0  6G 8G13G10G19G28G27
  -5956571.55949  -4636257.57848  21783579.9494   21783578.0164
       169.1634
  15064877.02749  11731326.15647  23120476.4884   23120476.5314
     -3788.1814
   1051222.21149    225928.66047  24457689.4494   24457689.6764
     -1232.2794
  -2569810.16849  -1998379.94547  23735065.3094   23735061.8674
     -1318.5214
  -6360339.32449  -5024912.67247  23055894.0514   23055892.3364
      1332.8044
   2027816.29349   1577729.13348  21900534.9804   21900534.0124
      -927.2844
 04  9 14 22 26 30.0040000  0  6G 8G13G10G19G28G27
  -5959052.03149  -4638190.39848  21783107.9184   21783106.2504
       165.3654
  15121784.30949  11775669.47347  23131305.8944   23131304.8944
     -3793.8194
   1069841.13349    240436.92647  24461232.8324   24461232.4064
     -1241.2614
  -2549894.09849  -1982860.94947  23738855.2154   23738852.4374
     -1327.7384
  -6380254.14149  -5040430.69147  23052104.9494   23052103.1134
      1327.6544
   2041775.51649   1588606.44548  21903192.1134   21903190.1604
      -930.6154
 04  9 14 22 26 45.0040000  0  6G 8G13G10G19G28G27
  -5961475.00849  -4640078.43048  21782646.4494   21782645.2274
       161.5324
  15178775.85249  11820078.43447  23142151.6294   23142150.5944
     -3799.4364
   1088594.72749    255050.09447  24464802.3094   24464801.6844
     -1250.2404
  -2529839.88349  -1967234.28947  23742670.8094   23742668.6334
     -1336.9484
  -6400091.55149  -5055888.37947  23048330.1524   23048328.0394
      1322.4944
   2055784.84849   1599522.79748  21905857.7234   21905855.8944
      -933.9554
 04  9 14 22 27  0.0040000  0  6G 8G13G10G19G28G27
  -5963839.72349  -4641921.05948  21782196.4264   21782195.2424
       157.6484
  15235852.18049  11864553.48447  23153012.5194   23153011.6214
     -3805.0894
   1107483.44949    269768.55947  24468396.6764   24468395.7894
     -1259.2484
  -2509646.83649  -1951499.44147  23746513.6374   23746511.4104
     -1346.2034
  -6419850.94149  -5071285.27347  23044569.5984   23044568.3244
      1317.2934
   2069844.94549   1610478.72748  21908533.5904   21908531.7194
      -937.3404
 04  9 14 22 27 15.0040000  0  6G 8G13G10G19G28G27
  -5966146.26649  -4643718.36348  21781757.6994   21781757.1604
       153.7704
  15293013.18449  11909094.50447  23163889.4734   23163888.6374
     -3810.7344
   1126507.26649    284592.32847  24472016.0824   24472015.1914
     -1268.2544
  -2489314.94149  -1935656.36347  23750382.6214   23750379.8674
     -1355.4604
  -6439532.03949  -5086621.19147  23040824.4884   23040822.4304
      1312.0734
   2083955.98849   1621474.33248  21911218.9964   21911217.0514
      -940.7364
 04  9 14 22 27 30.0040000  0  6G 8G13G10G19G28G27
  -5968394.60949  -4645470.32048  21781329.7384   21781328.5234
       149.8904
  15350258.54349  11953701.26247  23174783.0044   23174782.1414
     -3816.3574
   1145666.01649    299521.21947  24475662.3164   24475661.5744
     -1277.2504
  -2468844.31649  -1919705.22747  23754278.0904   23754275.8524
     -1364.7084
  -6459135.02049  -5101896.20347  23037093.8244   23037092.5164
      1306.8654
   2098117.91449   1632509.61748  21913913.4964   21913912.0824
      -944.1284
 04  9 14 22 27 45.0040000  0  6G 8G13G10G19G28G27
  -5970582.73049  -4647175.34048  21780913.3874   21780912.5784
       145.8754
  15407589.91449  11998375.01247  23185692.9264   23185691.0164
     -3822.0914
   1164961.45349    314556.62147  24479334.0044   24479333.0164
     -1286.3624
  -2448233.12149  -1903644.57047  23758200.7624   23758197.3444
     -1374.0804
  -6478657.88349  -5117108.81247  23033379.3484   23033376.7974
      1301.5244
   2112332.74649   1643586.10948  21916618.4574   21916617.1994
      -947.6554
 04  9 14 22 28  0.0040000  0  6G 8G13G10G19G28G27
  -5972712.37549  -4648834.82048  21780508.1844   21780507.3914
       141.9764
  15465005.26649  12043114.22347  23196619.3244   23196617.9804
     -3827.6904
   1184391.63749    329697.02347  24483031.3484   24483030.5744
     -1295.3464
  -2427483.08249  -1887475.71947  23762148.7854   23762146.4144
     -1383.3364
  -6498102.26249  -5132260.25447  23029679.0514   23029677.4454
      1296.2924
   2126598.92649   1654702.63748  21919333.2854   21919332.3984
      -951.0794
 04  9 14 22 28 15.0040000  0  6G 8G13G10G19G28G27
  -5974782.80149  -4650448.12548  21780114.2624   21780113.0004
       138.0284
  15522505.00049  12087919.17247  23207560.9964   23207559.4224
     -3833.3164
   1203957.09849    344942.84847  24486754.3404   24486754.2974
     -1304.3644
  -2406593.61349  -1871198.18047  23766124.6294   23766120.9534
     -1392.6314
  -6517467.40249  -5147349.94547  23025993.5824   23025993.0944
      1291.0094
   2140917.12549   1665859.67248  21922058.1134   21922056.5864
      -954.5474
 04  9 14 22 28 30.0040000  0  6G 8G13G10G19G28G27
  -5976794.40649  -4652015.59848  21779731.2624   21779730.3204
       134.1074
  15580088.46149  12132789.38747  23218518.2854   23218517.6444
     -3838.8974
   1223657.11349    360293.48047  24490503.5274   24490501.6874
     -1313.3344
  -2385565.18749  -1854812.41047  23770126.4494   23770122.8794
     -1401.8954
  -6536753.86349  -5162378.34847  23022323.6914   23022322.1024
      1285.7644
   2155286.79349   1677056.82448  21924791.9654   21924790.7974
      -957.9784
 04  9 14 22 28 45.0040000  0  6G 8G13G10G19G28G27
  -5978747.13349  -4653537.18748  21779359.2774   21779358.7854
       130.1824
  15637755.39149  12177724.63347  23229492.2774   23229491.8054
     -3844.4624
   1243491.69549    375748.96947  24494277.6054   24494275.9694
     -1322.3054
  -2364397.93749  -1838318.41847  23774154.1764   23774150.9654
     -1411.1504
  -6555961.41849  -5177345.23847  23018668.8324   23018666.9534
      1280.5044
   2169708.27049   1688294.32448  21927537.0664   21927535.4774
      -961.4324
 04  9 14 22 29  0.0040000  0  6G 8G13G10G19G28G27
  -5980641.46149  -4655013.27748  21778999.1914   21778998.7544
       126.2894
  15695504.82049  12222724.16047  23240481.2544   23240480.6874
     -3849.9624
   1263459.99649    391308.69947  24498077.1994   24498077.7774
     -1331.2204
  -2343092.47349  -1821716.75047  23778208.0664   23778204.8164
     -1420.3644
  -6575090.81649  -5192251.24647  23015028.5354   23015025.8594
      1275.2934
   2184180.73849   1699571.56648  21930290.4344   21930289.3324
      -964.8314
 04  9 14 22 29 15.0040000  0  6G 8G13G10G19G28G27
  -5982477.30149  -4656443.80548  21778650.0664   21778648.9374
       122.3894
  15753336.71549  12267787.94147  23251486.5434   23251485.1174
     -3855.4604
   1283561.86749    406972.50447  24501902.6054   24501902.3284
     -1340.1254
  -2321648.76249  -1805007.34447  23782288.3324   23782284.6724
     -1429.5814
  -6594141.90249  -5207096.22347  23011403.4264   23011400.1954
      1270.0724
   2198704.46549   1710888.76248  21933054.7624   21933053.3364
      -968.2484
 04  9 14 22 29 30.0040000  0  6G 8G13G10G19G28G27
  -5984253.32049  -4657827.72748  21778312.0514   21778310.8674
       118.4014
  15811252.09049  12312916.78947  23262507.9104   23262507.0314
     -3861.0254
   1303798.56649    422741.33647  24505753.6764   24505753.3634
     -1349.1134
  -2300065.57849  -1788189.29747  23786395.8874   23786392.7974
     -1438.8794
  -6613113.23449  -5221879.04747  23007792.8554   23007791.3794
      1264.7554
   2213280.79749   1722246.94548  21935828.0904   21935827.3554
      -971.7554
 04  9 14 22 29 45.0040000  0  6G 8G13G10G19G28G27
  -5985969.66449  -4659165.09848  21777985.2074   21777984.0234
       114.4234
  15869250.24649  12358110.13347  23273544.4414   23273543.5704
     -3866.5444
   1324169.45749    438614.76647  24509630.3014   24509630.0314
     -1358.0594
  -2278343.52049  -1771263.00447  23790529.9344   23790527.2384
     -1448.1374
  -6632005.31649  -5236600.13747  23004197.9264   23004196.1764
      1259.4724
   2227909.34449   1733645.82848  21938611.6604   21938610.5194
      -975.2364
 04  9 14 22 30  0.0040000  0  6G 8G13G10G19G28G27
  -5987626.89849  -4660456.44548  21777669.8094   21777668.4574
       110.4824
  15927330.66849  12403367.58247  23284596.6054   23284596.0944
     -3872.0284
   1344674.12949    454592.43447  24513532.3714   24513532.7854
     -1366.9784
  -2256482.78549  -1754228.66447  23794689.2854   23794686.9924
     -1457.3824
  -6650818.15249  -5251259.46547  23000617.9884   23000616.4804
      1254.1894
   2242590.02349   1745085.30948  21941405.4804   21941403.8444
      -978.7124
 04  9 14 22 30 15.0040000  0  6G 8G13G10G19G28G27
  -5989225.46949  -4661702.06248  21777365.4574   21777364.1874
       106.5714
  15985492.42649  12448688.40247  23295664.4494   23295663.9694
     -3877.4514
   1365311.64849    470673.61347  24517459.1524   24517459.5044
     -1375.8354
  -2234484.23849  -1737086.93747  23798875.3794   23798873.2384
     -1466.5704
  -6669552.48849  -5265857.62547  22997053.1844   22997050.8524
      1248.9564
   2257321.95349   1756564.74248  21944209.0274   21944206.8594
      -982.1294
 04  9 14 22 30 30.0040000  0  6G 8G13G10G19G28G27
  -5990764.64149  -4662901.42648  21777072.6214   21777071.5394
       102.6114
  16043735.88749  12494072.89847  23306747.9104   23306747.3164
     -3882.8974
   1386082.57449    486858.75447  24521411.5594   24521412.1844
     -1384.7284
  -2212347.22749  -1719837.32047  23803087.8164   23803085.3674
     -1475.8014
  -6688207.62949  -5280394.08247  22993502.8164   22993500.5044
      1243.6764
   2272106.18849   1768084.93048  21947022.1444   21947020.8444
      -985.6164
 04  9 14 22 30 45.0040000  0  6G 8G13G10G19G28G27
  -5992245.57449  -4664055.39148  21776790.9654   21776789.6684
        98.7294
  16102059.60549  12539519.91447  23317846.5354   23317845.6954
     -3888.2484
   1406985.41849    503146.68447  24525389.8634   24525389.1334
     -1393.5234
  -2190073.14549  -1702480.92247  23807325.8874   23807324.3054
     -1484.9394
  -6706784.81649  -5294869.78547  22989967.9574   22989965.2194
      1238.4794
   2286941.19149   1779644.66848  21949845.5354   21949844.3124
      -989.0004
 04  9 14 22 31  0.0040000  0  6G 8G13G10G19G28G27
  -5993666.31649  -4665162.44548  21776520.5124   21776519.7664
        94.7164
  16160465.21549  12585030.74647  23328960.2624   23328960.1024
     -3893.7074
   1428021.87549    519538.72747  24529392.5434   24529393.3914
     -1402.4304
  -2167660.12949  -1685016.25447  23811591.2694   23811589.5554
     -1494.2014
  -6725282.12149  -5309283.23847  22986447.7694   22986445.7194
      1233.1544
   2301829.16049   1791245.66848  21952678.2544   21952677.4574
      -992.5314
 04  9 14 22 31 15.0040000  0  6G 8G13G10G19G28G27
  -5995027.63749  -4666223.21148  21776261.2774   21776260.6134
        90.7554
  16218951.71949  12630604.61747  23340090.3324   23340089.3244
     -3899.1004
   1449191.07049    536034.18047  24533421.5124   24533420.2464
     -1411.2804
  -2145108.84849  -1667443.84447  23815882.7774   23815880.5624
     -1503.4194
  -6743700.25849  -5323635.00447  22982942.7934   22982939.7974
      1227.8764
   2316769.33249   1802887.37148  21955521.1134   21955520.2304
      -996.0114
 04  9 14 22 31 30.0040000  0  6G 8G13G10G19G28G27
  -5996329.58249  -4667237.71948  21776013.4414   21776012.3874
        86.7964
  16277518.39149  12676240.96547  23351235.5904   23351234.5164
     -3904.4454
   1470492.45749    552632.67647  24537474.7774   24537473.9614
     -1420.0924
  -2122419.92649  -1649764.18447  23820200.9964   23820198.1054
     -1512.5954
  -6762039.46949  -5337925.27747  22979453.4574   22979451.1174
      1222.6144
   2331761.32849   1814569.44947  21958373.9804   21958372.8244
      -999.4664
 04  9 14 22 31 45.0040000  0  6G 8G13G10G19G28G27
  -5997571.65649  -4668205.56248  21775777.5904   21775775.6914
        82.8054
  16336165.68849  12721940.13347  23362395.7234   23362394.4494
     -3909.8204
   1491926.62549    569334.61747  24541552.8554   24541552.9224
     -1428.9454
  -2099592.59849  -1631976.66047  23824544.7074   23824541.4144
     -1521.8224
  -6780298.98849  -5352153.45747  22975978.5434   22975976.6134
      1217.3014
   2346806.13749   1826292.66048  21961237.4804   21961236.2464
     -1002.9874
 04  9 14 22 32  0.0040000  0  6G 8G13G10G19G28G27
  -5998754.60549  -4669127.33248  21775552.2694   21775550.8404
        78.8634
  16394892.65249  12767701.39847  23373570.5354   23373569.6374
     -3915.1314
   1513492.60249    586139.25447  24545656.4654   24545656.9774
     -1437.7324
  -2076627.86749  -1614082.05947  23828914.5194   23828911.8834
     -1530.9824
  -6798479.69549  -5366320.21547  22972519.0594   22972517.3244
      1212.0474
   2361902.84049   1838056.32848  21964109.8794   21964109.1054
     -1006.4474
 04  9 14 22 32 15.0040000  0  6G 8G13G10G19G28G27
  -5999875.76249  -4670000.94948  21775339.3094   21775337.4454
        74.7444
  16453701.54749  12813526.46547  23384761.6684   23384761.1564
     -3920.5934
   1535192.65649    603048.38347  24549786.5744   24549785.7934
     -1446.6704
  -2053523.17649  -1596078.42647  23833310.7384   23833308.4494
     -1540.3134
  -6816578.83249  -5380423.41847  22969074.4884   22969072.8244
      1206.6094
   2377054.24649   1849862.62948  21966993.1214   21966992.0664
     -1010.0944
 04  9 14 22 32 30.0040000  0  6G 8G13G10G19G28G27
  -6000936.64149  -4670827.59848  21775137.3014   21775135.8594
        70.7254
  16512590.28549  12859413.77347  23395967.1214   23395967.0864
     -3925.9164
   1557024.88349    620060.51247  24553941.5434   24553940.3794
     -1455.4824
  -2030280.49249  -1577967.24247  23837733.9104   23837732.0124
     -1549.5124
  -6834598.24249  -5394464.50847  22965645.2934   22965643.9774
      1201.2944
   2392258.42649   1861710.04347  21969885.9494   21969885.1444
     -1013.6124
 04  9 14 22 32 45.0040000  0  6G 8G13G10G19G28G27
  -6001936.62149  -4671606.80148  21774946.7934   21774945.8484
        66.6654
  16571559.46149  12905363.74247  23407190.0124   23407189.2194
     -3931.2784
   1578990.01249    637176.20747  24558120.8484   24558120.4844
     -1464.3424
  -2006899.05549  -1559747.94547  23842183.3244   23842181.1604
     -1558.7624
  -6852537.15649  -5408442.85247  22962231.6604   22962229.5554
      1195.9284
   2407516.23449   1873599.23047  21972789.4884   21972788.3794
     -1017.1874
 04  9 14 22 33  0.0040000  0  6G 8G13G10G19G28G27
  -6002876.06649  -4672338.85548  21774768.1764   21774766.5554
        62.6304
  16630608.41049  12951375.87547  23418426.4104   23418424.9024
     -3936.5974
   1601087.39849    654394.94147  24562326.1524   24562325.3634
     -1473.1594
  -1983379.22349  -1541420.81647  23846658.9734   23846656.6524
     -1567.9894
  -6870395.84049  -5422358.69147  22958833.2544   22958832.0044
      1190.5794
   2422827.57849   1885530.13747  21975703.3874   21975702.2934
     -1020.7564
 04  9 14 22 33 15.0040000  0  6G 8G13G10G19G28G27
  -6003755.65649  -4673024.24248  21774600.6604   21774599.3484
        58.6394
  16689735.94549  12997449.25447  23429678.4964   23429676.6954
     -3941.8364
   1623315.80949    671715.75447  24566555.8324   24566555.6644
     -1481.8944
  -1959722.14549  -1522986.69547  23851161.9104   23851158.3164
     -1577.1394
  -6888175.21549  -5436212.73047  22955449.8484   22955448.7304
      1185.2924
   2438191.37949   1897501.93048  21978627.3634   21978625.6604
     -1024.2534
 04  9 14 22 33 30.0040000  0  6G 8G13G10G19G28G27
  -6004574.15249  -4673662.00848  21774444.6994   21774443.6094
        54.5664
  16748942.78149  13043584.42647  23440944.4804   23440944.1134
     -3947.1224
   1645676.06649    689139.35547  24570810.0904   24570810.8124
     -1490.6844
  -1935926.86749  -1504444.90647  23855689.1914   23855686.4104
     -1586.3524
  -6905874.36749  -5450004.25047  22952082.4574   22952080.4304
      1179.9434
   2453608.76649   1909515.48447  21981560.8554   21981559.2774
     -1027.8264
 04  9 14 22 33 45.0040000  0  6G 8G13G10G19G28G27
  -6005331.95349  -4674252.50448  21774300.7464   21774299.7584
        50.5204
  16808228.42649  13089781.02347  23452225.6914   23452225.7344
     -3952.3764
   1668167.93849    706665.48847  24575091.1684   24575090.4224
     -1499.4584
  -1911993.77349  -1485795.76647  23860243.1374   23860241.2384
     -1595.5404
  -6923493.31649  -5463733.27347  22948729.6524   22948727.5474
      1174.5974
   2469079.54749   1921570.62547  21984504.8794   21984503.4374
     -1031.3854
 04  9 14 22 34  0.0040000  0  6G 8G13G10G19G28G27
  -6006027.79349  -4674794.69548  21774168.3944   21774167.4374
        46.3894
  16867593.78549  13136039.69947  23463523.5434   23463522.4064
     -3957.6914
   1690792.35549    724294.90647  24579396.7544   24579395.7774
     -1508.2954
  -1887921.64849  -1467038.24347  23864823.2304   23864822.4104
     -1604.8084
  -6941030.81649  -5477398.84447  22945392.0744   22945390.0234
      1169.1674
   2484605.03949   1933668.43048  21987459.5044   21987458.5904
     -1035.0334
 04  9 14 22 34 15.0040000  0  6G 8G13G10G19G28G27
  -6006663.14149  -4675289.76648  21774047.2154   21774046.2034
        42.3574
  16927037.23049  13182359.25047  23474834.6294   23474834.3284
     -3962.8964
   1713547.68049    742026.31347  24583726.7384   24583725.2814
     -1517.0224
  -1863711.91449  -1448173.55947  23869431.9494   23869429.5124
     -1613.9824
  -6958488.29349  -5491002.05947  22942069.8944   22942068.6804
      1163.8324
   2500183.91449   1945807.78947  21990423.9574   21990422.7934
     -1038.5924
 04  9 14 22 34 30.0040000  0  6G 8G13G10G19G28G27
  -6007238.28949  -4675737.92248  21773937.5904   21773936.8714
        38.3434
  16986558.05149  13228739.08247  23486161.2304   23486160.6684
     -3968.0554
   1736433.14549    759859.16447  24588081.9184   24588080.6374
     -1525.6984
  -1839365.41849  -1429202.29347  23874065.0274   23874061.4694
     -1623.1004
  -6975866.21549  -5504543.26647  22938762.9654   22938761.2504
      1158.5284
   2515815.66449   1957988.38348  21993398.2304   21993397.5904
     -1042.1174
 04  9 14 22 34 45.0040000  0  6G 8G13G10G19G28G27
  -6007751.52349  -4676137.83248  21773840.0664   21773838.5824
        34.2164
  17046157.45749  13275180.15247  23497502.7854   23497501.6994
     -3973.2944
   1759450.27749    777794.55947  24592460.6444   24592460.3484
     -1534.4764
  -1814880.40249  -1410123.00847  23878723.3014   23878720.4374
     -1632.3344
  -6993162.90249  -5518021.18747  22935470.8484   22935469.8244
      1153.1134
   2531501.96149   1970211.47748  21996383.2464   21996382.3404
     -1045.7534
 04  9 14 22 35  0.0040000  0  6G 8G13G10G19G28G27
  -6008203.77749  -4676490.22748  21773754.1294   21773752.6804
        30.1504
  17105834.25049  13321681.52347  23508858.5904   23508858.8404
     -3978.4534
   1782597.69949    795831.53547  24596866.3794   24596867.2664
     -1543.1614
  -1790258.20349  -1390936.91047  23883409.3714   23883406.7304
     -1641.4804
  -7010379.44149  -5531436.66447  22932195.8014   22932193.5084
      1147.7694
   2547241.88349   1982476.33248  21999378.9024   21999378.0744
     -1049.3284
 04  9 14 22 35 15.0040000  0  6G 8G13G10G19G28G27
  -6008594.14849  -4676794.41848  21773679.6524   21773678.8364
        26.0254
  17165589.11349  13368243.74247  23520229.5664   23520228.7114
     -3983.6584
   1805876.35549    813970.77047  24601296.6214   24601295.5624
     -1551.9104
  -1765497.77349  -1371643.05947  23888121.0664   23888118.3834
     -1650.6954
  -7027514.83649  -5544788.88747  22928934.3944   22928932.8484
      1142.3604
   2563036.46549   1994783.78948  22002384.8404   22002383.7734
     -1052.9724
 04  9 14 22 35 30.0040000  0  6G 8G13G10G19G28G27
  -6008921.76649  -4677049.69548  21773616.9344   21773616.3244
        21.8414
  17225422.43449  13414867.08247  23531615.3244   23531615.7274
     -3988.8884
   1829286.60249    832212.46147  24605750.7934   24605750.7194
     -1560.6834
  -1740598.85549  -1352241.31247  23892859.0664   23892855.7774
     -1659.9284
  -7044568.38749  -5558077.34047  22925688.7624   22925687.6024
      1136.9034
   2578886.36349   2007134.35948  22005400.6914   22005399.4104
     -1056.6604
 04  9 14 22 35 45.0040000  0  6G 8G13G10G19G28G27
  -6009188.26249  -4677257.33648  21773566.6054   21773565.9224
        17.7664
  17285332.48049  13461550.18847  23543016.0594   23543015.7274
     -3994.0034
   1852826.87149    850555.53547  24610230.7074   24610229.4884
     -1569.3514
  -1715562.78149  -1332732.64847  23897623.7464   23897619.8794
     -1669.0724
  -7061541.52049  -5571303.13347  22922459.0744   22922458.0864
      1131.5424
   2594790.23449   2019526.98448  22008427.3244   22008425.5704
     -1060.2584
 04  9 14 22 36  0.0040000  0  6G 8G13G10G19G28G27
  -6009394.41049  -4677417.97748  21773527.4264   21773526.7034
        13.7434
  17345318.11749  13508292.23047  23554431.0194   23554430.7934
     -3999.0424
   1876495.90649    868998.94947  24614734.2544   24614734.6914
     -1577.9364
  -1690390.42249  -1313117.84447  23902412.8554   23902411.1134
     -1678.1574
  -7078434.94149  -5584466.81647  22919244.3714   22919242.8244
      1126.2284
   2610747.14849   2031960.96148  22011463.6444   22011461.8014
     -1063.7944
 04  9 14 22 36 15.0040000  0  6G 8G13G10G19G28G27
  -6009539.62949  -4677531.13748  21773499.8634   21773498.7814
         9.6814
  17405379.27749  13555093.10247  23565860.8324   23565860.2734
     -4004.0774
   1900293.97749    887542.86747  24619263.4884   24619263.2274
     -1586.5384
  -1665081.67249  -1293396.72347  23907229.4804   23907226.4884
     -1687.2504
  -7095248.49649  -5597568.27747  22916044.9804   22916043.3714
      1120.9044
   2626757.76249   2044436.76248  22014509.9654   22014508.6804
     -1067.3744
 04  9 14 22 36 30.0040000  0  6G 8G13G10G19G28G27
  -6009621.64149  -4677595.03948  21773484.4734   21773483.1874
         5.4674
  17465517.99649  13601954.40647  23577304.7774   23577304.1134
     -4009.2484
   1924223.06649    906188.91847  24623816.4884   24623817.1724
     -1595.2734
  -1639634.44549  -1273567.73847  23912071.8714   23912069.1094
     -1696.4824
  -7111979.93449  -5610605.75047  22912861.8014   22912859.6054
      1115.4294
   2642824.12949   2056956.00848  22017567.1844   22017566.1024
     -1071.0914
 04  9 14 22 36 45.0040000  0  6G 8G13G10G19G28G27
  -6009641.74649  -4677610.72748  21773480.3554   21773479.3014
         1.3404
  17525732.65649  13648874.89847  23588762.8244   23588762.4964
     -4014.3114
   1948281.54349    924935.80947  24628394.7544   24628394.9574
     -1603.8984
  -1614050.25049  -1253631.99647  23916941.2074   23916938.0354
     -1705.6134
  -7128630.51249  -5623580.19547  22909692.0044   22909691.0474
      1110.0394
   2658945.05949   2069517.77748  22020634.9344   22020634.4734
     -1074.7294
 04  9 14 22 37  0.0040000  0  6G 8G13G10G19G28G27
  -6009599.02049  -4677577.41448  21773488.7624   21773487.1334
        -2.8484
  17586023.83249  13695855.01247  23600235.6444   23600235.8944
     -4019.4124
   1972470.07849    943784.00047  24632997.6914   24632997.8404
     -1612.5694
  -1588328.28549  -1233588.87547  23921835.2384   23921832.1374
     -1714.7984
  -7145199.23849  -5636490.87547  22906539.6444   22906538.9024
      1104.5824
   2675121.51249   2082122.80148  22023714.1214   22023712.3364
     -1078.4304
 04  9 14 22 37 15.0040000  0  6G 8G13G10G19G28G27
  -6009495.44549  -4677496.68748  21773508.6994   21773506.6874
        -6.9054
  17646389.41849  13742893.10547  23611723.1994   23611722.4104
     -4024.3724
   1996786.68849    962731.99647  24637624.8714   24637624.7974
     -1621.1074
  -1562470.51649  -1213439.94547  23926755.6374   23926753.4184
     -1723.8514
  -7161688.09049  -5649339.31247  22903401.9344   22903400.5044
      1099.2574
   2691351.59049   2094769.60248  22026802.3794   22026800.5474
     -1082.0054
 04  9 14 22 37 30.0040000  0  6G 8G13G10G19G28G27
  -6009330.24649  -4677367.94548  21773539.9734   21773538.6254
       -11.0134
  17706829.94549  13789989.57447  23623224.9264   23623223.4024
     -4029.3684
   2021231.95349    981780.24647  24642276.6844   24642277.2694
     -1629.6844
  -1536476.25849  -1193184.68446  23931701.3014   23931699.4414
     -1732.9514
  -7178096.23849  -5662124.87147  22900279.5124   22900277.5084
      1093.8774
   2707636.19149   2107458.88348  22029900.8324   22029899.2074
     -1085.6404
 04  9 14 22 37 45.0040000  0  6G 8G13G10G19G28G27
  -6009102.23049  -4677190.27748  21773583.6374   21773581.9344
       -15.2014
  17767346.00449  13837144.92247  23634739.8794   23634738.7234
     -4034.4044
   2045806.31349   1000929.07847  24646953.2154   24646953.7154
     -1638.2914
  -1510344.86348  -1172822.53946  23936672.8714   23936672.8284
     -1742.0934
  -7194422.88749  -5674846.91047  22897172.7384   22897170.8094
      1088.4434
   2723976.18049   2120191.33648  22033010.5194   22033008.9734
     -1089.3334
 04  9 14 22 38  0.0040000  0  6G 8G13G10G19G28G27
  -6008811.32049  -4676963.57848  21773638.3244   21773637.6444
       -19.3944
  17827937.35949  13884358.93847  23646271.3404   23646269.4694
     -4039.4244
   2070509.89849   1020178.62547  24651654.4884   24651654.0554
     -1646.9064
  -1484076.13349  -1152353.40646  23941672.8014   23941670.8874
     -1751.2494
  -7210667.73849  -5687505.21547  22894081.2624   22894080.2034
      1082.9904
   2740371.84849   2132967.18048  22036130.2544   22036129.4614
     -1093.0454
 04  9 14 22 38 15.0040000  0  6G 8G13G10G19G28G27
  -6008457.19549  -4676687.65248  21773705.9804   21773705.0944
       -23.6084
  17888603.81349  13931631.45747  23657815.0354   23657814.7974
     -4044.4304
   2095342.50449   1039528.69546  24656380.1444   24656379.0044
     -1655.5074
  -1457670.06248  -1131777.30146  23946697.1444   23946694.8914
     -1760.4054
  -7226830.70749  -5700099.71947  22891006.0124   22891003.3754
      1077.5314
   2756823.19949   2145786.42648  22039260.9024   22039259.8594
     -1096.7574
 04  9 14 22 38 30.0040000  0  6G 8G13G10G19G28G27
  -6008042.03949  -4676364.14848  21773785.0194   21773784.3524
       -27.6774
  17949343.05949  13978960.71147  23669373.4264   23669372.8364
     -4049.2834
   2120301.84449   1058977.51247  24661128.7694   24661128.1374
     -1663.9564
  -1431129.14849  -1111096.06246  23951748.4884   23951745.0624
     -1769.3944
  -7242913.80149  -5712631.96947  22887945.4964   22887942.8404
      1072.2064
   2773328.34049   2158647.57048  22042401.8324   22042400.6524
     -1100.3434
 04  9 14 22 38 45.0040000  0  6G 8G13G10G19G28G27
  -6007565.21949  -4675992.60248  21773875.6524   21773874.2854
       -31.7884
  18010155.28949  14026346.85247  23680945.0904   23680946.2694
     -4054.1494
   2145388.22349   1078525.31647  24665902.3484   24665902.5394
     -1672.4254
  -1404452.82849  -1090309.35546  23956825.9344   23956821.4304
     -1778.4214
  -7258916.62549  -5725101.68447  22884899.8634   22884898.1954
      1066.8554
   2789887.80549   2171551.02748  22045552.5984   22045551.3484
     -1103.9644
 04  9 14 22 39  0.0040000  0  6G 8G13G10G19G28G27
  -6007026.59049  -4675572.90248  21773978.4884   21773977.1054
       -35.9094
  18071040.27749  14073789.66047  23692531.6684   23692531.7154
     -4058.9994
   2170601.32449   1098171.93447  24670700.2934   24670700.2384
     -1680.8734
  -1377641.32449  -1069417.26246  23961927.3874   23961923.9494
     -1787.4344
  -7274839.11349  -5737508.79347  22881870.0984   22881868.7894
      1061.4994
   2806501.58249   2184496.84448  22048714.4884   22048712.9494
     -1107.5854
 04  9 14 22 39 15.0040000  0  6G 8G13G10G19G28G27
  -6006425.65249  -4675104.62948  21774093.1054   21774091.0434
       -40.0624
  18131998.30549  14121289.41047  23704131.6214   23704131.1484
     -4063.8684
   2195941.54749   1117917.52747  24675522.9804   24675522.1294
     -1689.3484
  -1350694.12948  -1048419.50846  23967054.4654   23967051.3054
     -1796.4804
  -7290680.73849  -5749852.89847  22878854.8714   22878854.3524
      1056.1084
   2823170.37949   2197485.52747  22051886.2934   22051884.7234
     -1111.2534
 04  9 14 22 39 30.0040000  0  6G 8G13G10G19G28G27
  -6005763.45349  -4674588.64148  21774218.6134   21774216.6374
       -44.1474
  18193027.94549  14168844.94547  23715745.0744   23715744.2624
     -4068.6434
   2221407.57449   1137761.18446  24680368.4654   24680368.7074
     -1697.7354
  -1323612.51649  -1027316.85546  23972208.5194   23972204.8204
     -1805.4414
  -7306442.57049  -5762134.83647  22875855.8244   22875854.5594
      1050.7894
   2839893.12549   2210516.25848  22055068.6524   22055067.1764
     -1114.8504
 04  9 14 22 39 45.0040000  0  6G 8G13G10G19G28G27
  -6005036.91449  -4674022.51248  21774356.5594   21774355.2814
       -48.4364
  18254132.06349  14216458.50847  23727372.7384   23727370.9024
     -4073.6084
   2247002.18449   1157705.01247  24685239.4414   24685240.0004
     -1706.3074
  -1296393.43048  -1006107.10546  23977386.4104   23977385.0744
     -1814.6064
  -7322121.52049  -5774352.17647  22872872.6604   22872870.6764
      1045.2634
   2856672.97349   2223591.44148  22058261.6764   22058260.3124
     -1118.6574
 04  9 14 22 40  0.0040000  0  6G 8G13G10G19G28G27
  -6004249.33649  -4673408.77748  21774506.9104   21774504.8834
       -52.5054
  18315306.86749  14264127.14847  23739014.0824   23739012.1444
     -4078.3204
   2272721.71949   1177746.21147  24690133.3944   24690133.6484
     -1714.6364
  -1269040.52749   -984793.19146  23982593.6294   23982590.3014
     -1823.5274
  -7337720.91049  -5786507.52347  22869903.8014   22869902.0624
      1039.9594
   2873506.57849   2236708.55548  22061465.5124   22061463.4344
     -1122.2404
 04  9 14 22 40 15.0040000  0  6G 8G13G10G19G28G27
  -6003400.24249  -4672747.12948  21774667.8554   21774667.1174
       -56.6064
  18376552.50849  14311851.00847  23750668.7384   23750667.7624
     -4083.0434
   2298566.37149   1197884.87547  24695051.9574   24695051.8014
     -1722.9774
  -1241553.35249   -963374.64546  23987825.8404   23987821.3014
     -1832.4784
  -7353240.43449  -5798600.62547  22866950.6524   22866949.1444
      1034.6354
   2890394.41449   2249867.91848  22064678.6294   22064676.8944
     -1125.8564
 04  9 14 22 40 30.0040000  0  6G 8G13G10G19G28G27
  -6002489.66449  -4672037.60248  21774841.0514   21774840.2344
       -60.7054
  18437868.40249  14359629.55547  23762336.9654   23762336.5354
     -4087.7264
   2324535.65649   1218120.69547  24699993.2234   24699992.8874
     -1731.2864
  -1213932.58648   -941852.01246  23993078.9734   23993078.1684
     -1841.3844
  -7368680.39149  -5810631.74647  22864012.8404   22864010.5904
      1029.3304
   2907336.18849   2263069.28548  22067902.4804   22067900.9534
     -1129.4524
 04  9 14 22 40 45.0040000  0  6G 8G13G10G19G28G27
  -6001518.88749  -4671281.15648  21775026.0904   21775024.7194
       -64.7184
  18499252.99249  14407461.67647  23774017.2304   23774017.5124
     -4092.3064
   2350628.20349   1238452.53147  24704958.9574   24704959.0984
     -1739.5034
  -1186179.61348   -920226.37946  23998364.7074   23998359.1804
     -1850.1984
  -7384041.87549  -5822601.73047  22861089.6134   22861087.5234
      1024.0994
   2924330.79749   2276311.82048  22071136.8484   22071134.4694
     -1132.9744
 04  9 14 22 41  0.0040000  0  6G 8G13G10G19G28G27
  -6000487.77349  -4670477.68448  21775222.6764   21775221.1804
       -68.7414
  18560706.36349  14455347.41847  23785712.1444   23785712.6524
     -4096.8914
   2376844.02349   1258880.39847  24709948.0824   24709947.7624
     -1747.7214
  -1158294.14848   -898497.38746  24003669.7234   24003665.3524
     -1859.0314
  -7399324.72349  -5834510.41447  22858181.4734   22858179.6604
      1018.8574
   2941378.42649   2289595.68848  22074380.6994   22074379.5194
     -1136.5094
 04  9 14 22 41 15.0040000  0  6G 8G13G10G19G28G27
  -5999397.18449  -4669627.87148  21775430.3484   21775428.8164
       -72.7064
  18622227.06349  14503285.60247  23797418.7464   23797419.3914
     -4101.3804
   2403181.60949   1279403.22747  24714959.8164   24714959.5314
     -1755.8394
  -1130277.50049   -876666.19146  24009001.6054   24008996.0554
     -1867.7774
  -7414530.01649  -5846358.67647  22855287.4184   22855285.8984
      1013.6864
   2958478.18849   2302920.16448  22077634.5744   22077633.3984
     -1139.9844
 04  9 14 22 41 30.0040000  0  7G 8G13G10G19G28G29G27
  -5998248.89149  -4668733.07848  21775648.5824   21775647.4454
       -76.5534
  18683812.97749  14551274.59447  23809138.4264   23809138.7934
     -4105.7284
   2429639.05549   1300019.41447  24719993.5434   24719993.7664
     -1763.8304
  -1102131.46548   -854734.24246  24014355.7384   24014352.1254
     -1876.4024
  -7429659.37149  -5858147.76247  22852408.3244   22852406.6134
      1008.6244
   -137834.04718                  25599043.699

   2975628.31649   2316283.91848  22080897.9574   22080897.0274
     -1143.3424
 04  9 14 22 41 45.0040000  0  7G 8G13G10G19G28G29G27
  -5997042.04749  -4667792.68048  21775877.9804   21775877.3204
       -80.4564
  18745464.67649  14599314.84847  23820869.8634   23820870.8124
     -4110.1134
   2456216.94549   1320729.42647  24725052.1294   24725050.3324
     -1771.8594
  -1073855.64148   -832701.08646  24019736.3404   24019733.0984
     -1885.0554
  -7444712.12949  -5869877.16047  22849543.9734   22849542.4264
      1003.5174
   -173648.844 8                  25592227.465
      2387.653
   2992829.73449   2329687.60948  22084171.4344   22084170.1054
     -1146.7614
 04  9 14 22 42  0.0040000  0  7G 8G13G10G19G28G29G27
  -5995777.32049  -4666807.17648  21776118.4414   21776117.9184
       -84.3154
  18807181.17649  14647405.56647  23832614.5194   23832614.5594
     -4114.4334
   2482914.14549   1341532.41847  24730132.3874   24730131.8364
     -1779.8134
  -1045450.53549   -810567.25046  24025142.5274   24025138.6764
     -1893.6744
  -7459688.97349  -5881547.42247  22846694.3874   22846693.0044
       998.4564
   -209436.523 8                  25585417.582
      2385.845
   3010081.59849   2343130.64548  22087454.3794   22087452.8594
     -1150.1244
 04  9 14 22 42 15.0040000  0  6G 8G13G10G28G29G27
  -5994451.70349  -4665774.22748  21776370.9884   21776369.8754
       -88.3744
  18868964.86749  14695548.65647  23844371.6134   23844371.8834
     -4118.9134
   2509733.21149   1362430.37946  24735235.3164   24735234.6374
     -1787.9384
  -7474587.22749  -5893156.43047  22843858.6374   22843857.1724
       993.2174
   -245194.422 8                  25578613.309
      2383.860
   3027386.90649   2356615.28548  22090747.7234   22090745.7034
     -1153.6874
 04  9 14 22 42 30.0040000  0  6G 8G13G10G28G29G27
  -5993065.19549  -4664693.80948  21776634.6134   21776633.0084
       -92.4344
  18930815.43449  14743743.88747  23856141.9494   23856141.3324
     -4123.3714
   2536674.18049   1383423.35547  24740361.2544   24740362.4734
     -1796.0654
  -7489406.68449  -5904704.03947  22841039.5824   22841037.2664
       987.9644
                                  25571813.996
      2381.874
   3044745.76249   2370141.66848  22094050.7384   22094049.6524
     -1157.2574
 04  9 14 22 42 45.0050000  0  6G 8G13G10G28G29G27
  -5991615.88349  -4663564.48848  21776910.6424   21776908.7314
       -96.6214
  18992738.59449  14791995.68047  23867925.0484   23867924.3924
     -4128.2114
   2563740.25849   1404513.79347  24745513.0324   24745512.6184
     -1804.4054
  -7504146.53549  -5916189.60947  22838234.2904   22838231.9584
       982.6574
   -316619.46118                  25565023.853
      2379.889
   3062161.12149   2383712.05548  22097364.6264   22097363.9354
     -1161.0244
 04  9 14 22 43  0.0050000  0  6G 8G13G10G28G29G27
  -5990104.16449  -4662386.53548  21777198.5714   21777196.8104
      -100.7814
  19054725.53549  14840297.18447  23879721.2354   23879720.3604
     -4132.4634
   2590927.21949   1425698.41847  24750687.1344   24750686.0054
     -1812.4644
  -7518805.18049  -5927611.92647  22835444.9314   22835442.7004
       977.2434
   -352282.605 8                  25558236.454
      2377.543
   3079630.40249   2397324.49248  22100688.9074   22100687.5444
     -1164.6194
 04  9 14 22 43 15.0050000  0  6G 8G13G10G28G29G27
  -5988530.07049  -4661159.94948  21777498.0564   21777496.3214
      -104.9404
  19116780.05549  14888651.30947  23891528.7594   23891529.2674
     -4136.9684
   2618236.62949   1446978.50446  24755882.7124   24755882.2314
     -1820.6274
  -7533383.80949  -5938971.87147  22832670.8684   22832668.6304
       971.9094
   -387913.21918                  25551458.376
      2375.197
   3097154.68849   2410979.78948  22104023.7434   22104022.2474
     -1168.2864
 04  9 14 22 43 30.0050000  0  6G 8G13G10G28G29G27
  -5986892.92649  -4659884.23848  21777809.9934   21777807.4784
      -109.1434
  19178902.37549  14937058.28947  23903351.4384   23903350.1494
     -4141.4884
   2645668.70749   1468354.12147  24761103.7044   24761102.7204
     -1828.8054
  -7547881.75849  -5950268.95747  22829910.9544   22829909.4154
       966.5304
   -423510.74618                  25544682.165
      2372.851
   3114734.62949   2424678.41848  22107369.6184   22107367.9074
     -1171.9964
 04  9 14 22 43 45.0050000  0  6G 8G13G10G28G29G27
  -5985190.83249  -4658557.94148  21778133.3994   21778131.7354
      -113.4734
  19241093.89149  14985519.14847  23915186.0484   23915185.6424
     -4146.1014
   2673224.91449   1489826.49247  24766346.4314   24766346.8334
     -1837.0804
  -7562297.27749  -5961501.82047  22827168.0094   22827165.9784
       961.0354
   -459073.047 8                  25537919.618
      2370.820
   3132372.13749   2438421.94148  22110725.7904   22110724.1654
     -1175.8344
 04  9 14 22 44  0.0050000  0  6G 8G13G10G28G29G27
  -5983425.71149  -4657182.51648  21778469.2594   21778467.3254
      -117.6754
  19303352.56349  15034032.35947  23927033.3604   23927032.5444
     -4150.5784
   2700903.33249   1511394.07847  24771613.8064   24771613.8104
     -1845.2284
  -7576632.09849  -5972671.77747  22824440.5404   22824438.6964
       955.6554
   -494601.65619                  25531156.446
      2368.789
   3150065.30549   2452208.80948  22114092.5324   22114091.0404
     -1179.5454
 04  9 14 22 44 15.0050000  0  5G 8G13G10G28G27
  -5981595.03549  -4655756.00048  21778817.8214   21778815.9544
      -122.0454
  19365680.38349  15082599.46947  23938893.0244   23938893.6924
     -4155.1884
   2728705.92649   1533058.39847  24776905.3454   24776904.7004
     -1853.5064
  -7590883.98049  -5983777.12947  22821728.8454   22821727.1654
       950.1264
   3167816.59049   2466040.99248  22117470.4234   22117469.1454
     -1183.4194
 04  9 14 22 44 30.0050000  0  5G 8G13G10G28G27
  -5979698.78549  -4654278.40648  21779178.0954   21779177.3174
      -126.4174
  19428077.05949  15131220.23047  23950768.0404   23950767.3844
     -4159.7784
   2756632.36749   1554819.26647  24782220.0244   24782218.7004
     -1861.7634
  -7605053.02749  -5994817.93047  22819032.0014   22819030.2904
       944.6034
   3185625.93449   2479918.40648  22120859.6264   22120858.0754
     -1187.2904
 04  9 14 22 44 45.0050000  0  6G 8G13G10G28G29G27
  -5977737.21949  -4652749.89148  21779551.1964   21779550.1344
      -130.7714
  19490541.86349  15179894.08647  23962653.8764   23962654.0564
     -4164.3204
   2784682.13349   1576676.21947  24787557.4624   24787556.1454
     -1869.9844
  -7619139.47749  -6005794.36347  22816351.6424   22816349.3024
       939.0974
    -29751.43418                  25510912.329

   3203493.18449   2493840.92648  22124259.2674   22124257.8804
     -1191.1504
 04  9 14 22 45  0.0050000  0  6G 8G13G10G19G28G27
  -5975712.82849  -4651172.45748  21779936.3604   21779935.7394
      -134.9594
  19553072.05949  15228618.86747  23974552.7354   23974552.7594
     -4168.6804
   2812852.45349   1598627.09846  24792917.2434   24792916.8104
     -1878.0214
     24406.95318                  24091978.431

  -7633145.82449  -6016708.38747  22813685.7744   22813684.0094
       933.7574
   3221415.86349   2507806.62948  22127670.2824   22127668.7904
     -1194.8454
 04  9 14 22 45 15.0050000  0  7G 8G13G10G19G28G29G27
  -5973625.57849  -4649546.01648  21780333.6034   21780333.1654
      -139.1504
  19615667.34449  15277394.38347  23986464.8684   23986465.3844
     -4173.0194
   2841143.13349   1620671.80146  24798301.0634   24798300.7084
     -1886.0454
     54539.727 8                  24097711.931
     -2008.852
  -7647072.16049  -6027560.04747  22811035.9934   22811033.3374
       928.4224
   -100492.75018                  25497452.743

   3239394.05949   2521815.62148  22131090.4854   22131089.9154
     -1198.5464
 04  9 14 22 45 30.0050000  0  7G 8G13G10G19G28G29G27
  -5971472.57449  -4647868.34848  21780743.6654   21780742.8334
      -143.5344
  19678330.35549  15326222.66847  23998389.6884   23998389.2554
     -4177.5344
   2869556.66849   1642812.18847  24803708.4314   24803708.4194
     -1894.2364
     84806.332 8                  24103470.938
     -2017.774
  -7660915.51649  -6038347.05947  22808401.1424   22808398.7354
       922.8904
   -135806.191 8                  25490730.337
      2354.229
   3257430.59849   2535870.07848  22134523.1574   22134522.1064
     -1202.4364
 04  9 14 22 45 45.0050000  0  7G 8G13G10G19G28G29G27
  -5969255.20749  -4646140.50848  21781165.5324   21781164.4934
      -147.8244
  19741059.10949  15375102.16847  24010326.9154   24010326.0444
     -4181.9174
   2898091.18449   1665046.87947  24809137.5244   24809137.1654
     -1902.3014
    115205.129 8                  24109254.915
     -2026.586
  -7674677.72349  -6049070.83647  22805782.7904   22805780.4894
       917.4804
   -171083.57818                  25484019.853
      4708.459
   3275523.92649   2549968.76648  22137966.0174   22137964.7284
     -1206.2224
 04  9 14 22 46  0.0050000  0  7G 8G13G10G19G28G29G27
  -5966972.88349  -4644362.07848  21781599.9384   21781598.5204
      -152.1554
  19803854.03549  15424033.23847  24022275.3064   24022276.0364
     -4186.3284
   2926747.30149   1687376.32447  24814590.6654   24814591.0834
     -1910.4084
    145736.547 9                  24115065.345
     -2035.428
  -7688357.88749  -6059730.68747  22803179.6654   22803177.6034
       912.0114
   -206323.609 8                  25477315.970
      2349.335
   3293674.97749   2564112.43448  22141420.3064   22141418.5094
     -1210.0704
 04  9 14 22 46 15.0050000  0  7G 8G13G10G19G28G29G27
  -5964625.32449  -4642532.80948  21782046.7984   21782045.1884
      -156.5044
  19866714.75049  15473015.60247  24034237.5404   24034238.3604
     -4190.7144
   2955524.69149   1709800.22347  24820067.1964   24820066.5604
     -1918.4934
    176400.574 9                  24120900.884
     -2044.268
  -7701955.98449  -6070326.57847  22800592.2124   22800589.7554
       906.5404
                                  25470611.103
        -9.788
   3311883.64149   2578301.00848  22144884.8684   22144883.5674
     -1213.9114
 04  9 14 22 46 30.0050000  0  7G 8G13G10G19G28G29G27
  -5962212.13749  -4640652.41048  21782505.9464   21782504.3414
      -160.8794
  19929641.18849  15522049.15247  24046211.8604   24046212.8684
     -4195.0964
   2984423.29349   1732318.63347  24825566.3374   24825566.3454
     -1926.5734
    207197.180 9                  24126759.993
     -2053.107
  -7715471.75049  -6080858.32447  22798019.8064   22798018.8954
       901.0514
                                  25463920.696
     -2368.911
   3330150.34449   2592534.79348  22148361.1964   22148359.9114
     -1217.7804
 04  9 14 22 46 45.0050000  0  6G 8G13G10G19G28G27
  -5959733.28549  -4638720.82448  21782977.2354   21782976.3994
      -165.2574
  19992633.39549  15571133.96147  24058198.9464   24058199.6384
     -4199.4804
   3013442.90649   1754931.28947  24831088.3454   24831088.3844
     -1934.6414
    238126.480 9                  24132645.501
     -2061.953
  -7728905.22749  -6091325.95347  22795463.3454   22795462.3374
       895.5654
   3348475.31649   2606813.98448  22151848.7204   22151847.4314
     -1221.6654
 04  9 14 22 47  0.0050000  0  6G 8G13G10G19G28G27
  -5957189.79749  -4636738.90248  21783461.2434   21783460.9704
      -169.5664
  20055689.80949  15620268.79747  24070198.5244   24070198.3604
     -4203.7614
   3042582.13749   1777637.19547  24836633.7354   24836633.6884
     -1942.6154
    269186.922 9                  24138555.610
     -2070.696
  -7742257.37549  -6101730.19947  22792922.9934   22792920.2044
       890.1434
   3366857.40249   2621137.69948  22155346.9074   22155345.0914
     -1225.4724
 04  9 14 22 47 15.0050000  0  6G 8G13G10G19G28G27
  -5954581.73449  -4634706.64148  21783957.5484   21783956.7944
      -173.8714
  20118810.28949  15669453.56347  24082209.5094   24082210.1144
     -4208.0324
   3071840.76649   1800436.07046  24842201.3134   24842201.4584
     -1950.5754
    300378.348 9                  24144491.798
     -2079.428
  -7755528.31249  -6112071.18747  22790398.1574   22790395.0174
       884.7294
   3385296.58649   2635505.89148  22158855.4074   22158853.7124
     -1229.2794
 04  9 14 22 47 30.0050000  0  7G 8G13G10G19G28G29G27
  -5951908.76249  -4632623.80548  21784466.9234   21784465.3374
      -178.1984
  20181994.48449  15718687.98447  24094233.2284   24094233.6384
     -4212.2804
   3101218.54749   1823327.89147  24847791.4934   24847792.0054
     -1958.5194
    331701.012 8                  24150452.032
     -2088.178
  -7768717.80949  -6122348.69147  22787887.2204   22787885.5914
       879.3004
                                  25437230.462

   3403793.16049   2649918.82848  22162375.2674   22162373.6454
     -1233.1054
 04  9 14 22 47 45.0050000  0  7G 8G13G10G19G28G29G27
  -5949170.35949  -4630489.98448  21784988.0564   21784986.5324
      -182.5604
  20245242.65249  15767972.21547  24106269.5874   24106269.5054
     -4216.5454
   3130715.93449   1846312.82846  24853404.6034   24853404.4814
     -1966.4924
    363155.066 9                  24156437.649
     -2096.937
  -7781825.38349  -6132562.36747  22785393.2824   22785391.3174
       873.8384
    -40575.367 8                  25430574.462
      2331.624
   3422347.75049   2664376.94148  22165906.1884   22165904.5364
     -1236.9734
 04  9 14 22 48  0.0050000  0  7G 8G13G10G19G28G29G27
  -5946366.62949  -4628305.24648  21785520.9624   21785520.0204
      -186.9154
  20308554.29749  15817305.93447  24118316.6424   24118317.6034
     -4220.7764
   3160332.32049   1869390.53146  24859040.2594   24859039.9704
     -1974.4264
    394740.102 9                  24162449.134
     -2105.669
  -7794851.22749  -6142712.35247  22782914.7744   22782912.2434
       868.3904
    -75510.477 9                  25423925.204
      2329.007
   3440960.15249   2678880.10248  22169448.0634   22169446.5484
     -1240.8274
 04  9 14 22 48 15.0050000  0  7G 8G13G10G19G28G29G27
  -5943497.13349  -4626069.28548  21786066.9854   21786065.6854
      -191.3004
  20371929.53949  15866689.19547  24130377.0014   24130377.1144
     -4225.0164
   3190067.86349   1892561.05946  24864699.7044   24864699.1614
     -1982.3704
    426456.27349   -476166.09456  24168484.9314   24168481.1534
     -2114.4114
  -7807795.04749  -6152798.42647  22780451.6104   22780448.8644
       862.9214
   -110405.832 9                  25417284.735
      2326.357
   3459630.69949   2693428.59048  22173001.2204   22172999.3334
     -1244.7034
 04  9 14 22 48 30.0050000  0  7G 8G13G10G19G28G29G27
  -5940562.92249  -4623782.87548  21786625.4314   21786624.1654
      -195.6144
  20435367.11349  15916121.04347  24142448.8994   24142448.7904
     -4229.1724
   3219921.28949   1915823.48046  24870378.8534   24870379.5324
     -1990.2284
    458302.56649   -451350.78146  24174544.3454   24174541.6814
     -2123.0864
  -7820657.80549  -6162821.32847  22778003.5794   22778001.9894
       857.5174
   -145262.383 8                  25410649.915
      2323.770
   3478358.63749   2708021.77348  22176564.3534   22176562.8844
     -1248.5294
 04  9 14 22 48 45.0050000  0  7G 8G13G10G19G28G29G27
  -5937564.41449  -4621446.36748  21787196.1104   21787195.0244
      -199.9014
  20498866.07449  15965600.71547  24154532.6184   24154532.6614
     -4233.2644
   3249891.71949   1939177.05147  24876083.5324   24876082.6344
     -1998.0294
    490278.12149   -426434.80146  24180628.7984   24180626.2204
     -2131.7044
  -7833440.21549  -6172781.63747  22775570.7984   22775569.0674
       852.1614
   -180080.352 8                  25404026.087
      2321.198
   3497143.45349   2722659.28948  22180139.3764   22180137.4854
     -1252.3214
 04  9 14 22 49  0.0050000  0  7G 8G13G10G19G28G29G27
  -5934499.52049  -4619058.12548  21787779.7044   21787777.5094
      -204.3264
  20562428.14849  16015129.53147  24166628.1184   24166628.4314
     -4237.4724
   3279980.85949   1962623.08647  24881809.2204   24881807.8414
     -2005.9434
    522384.80549   -401416.66046  24186738.6104   24186734.9894
     -2140.4464
  -7846140.16049  -6182677.68747  22773154.5404   22773152.5524
       846.6634
   -214857.516 8                  25397407.134
      2318.478
   3515987.13749   2737342.65248  22183724.9704   22183723.8534
     -1256.2464
 04  9 14 22 49 15.0050000  0  6G 8G13G10G19G28G27
  -5931369.55149  -4616619.21148  21788375.3604   21788373.8414
      -208.6654
  20626051.74649  16064706.33647  24178735.3454   24178735.1964
     -4241.5734
   3310187.21149   1986160.51247  24887557.6654   24887556.4464
     -2013.7574
    554621.12949   -376297.39146  24192872.8994   24192869.4354
     -2149.0884
  -7858758.85949  -6192510.42647  22770753.0794   22770751.3924
       841.2474
   3534888.48849   2752070.99248  22187322.1574   22187321.1884
     -1260.0904
 04  9 14 22 49 30.0050000  0  7G 8G13G10G19G28G29G27
  -5928173.80149  -4614128.99648  21788983.3924   21788982.0364
      -213.0504
  20689737.01249  16114331.19947  24190853.8454   24190853.9074
     -4245.6844
   3340510.99249   2009789.42647  24893327.1034   24893327.9504
     -2021.5854
    586987.42649   -351076.94946  24199031.4854   24199027.1854
     -2157.7534
  -7871295.93049  -6202279.53547  22768367.5634   22768365.6454
       835.8054
                                  25384194.610

   3553848.10949   2766844.73448  22190929.8844   22190928.5054
     -1263.9754
 04  9 14 22 49 45.0050000  0  7G 8G13G10G19G28G29G27
  -5924911.44549  -4611586.90248  21789604.2124   21789602.5634
      -217.4904
  20753484.07849  16164004.22747  24202984.3294   24202984.6654
     -4249.8044
   3370952.37949   2033509.98847  24899120.4854   24899120.9744
     -2029.4264
    619483.87549   -325754.98046  24205216.4464   24205211.6924
     -2166.4304
  -7883750.85549  -6211984.65247  22765997.5324   22765995.0444
       830.3284
    -61482.51618                  25377602.181

   3572866.47349   2781664.20748  22194549.1574   22194547.4814
     -1267.8914
 04  9 14 22 50  0.0050000  0  7G 8G13G10G19G28G29G27
  -5921581.62149  -4608992.23048  21790237.3764   21790236.3724
      -221.9884
  20817293.87949  16213726.08247  24215126.4854   24215126.7354
     -4253.9874
   3401512.16049   2057322.80547  24904935.8134   24904935.4784
     -2037.3194
    652111.59449   -300330.86746  24211424.0014   24211422.0994
     -2175.1814
  -7896122.76249  -6221625.07047  22763643.2204   22763640.9194
       824.7944
    -96094.863 8                  25371013.782
      2307.490
   3591944.58249   2796530.26648  22198179.0484   22198177.6924
     -1271.8744
 04  9 14 22 50 15.0050000  0  7G 8G13G10G19G28G29G27
  -5918183.41849  -4606344.24648  21790884.4464   21790882.7674
      -226.5474
  20881166.96549  16263497.28947  24227282.5794   24227281.7984
     -4258.2064
   3432191.06649   2081228.42247  24910774.1734   24910773.5794
     -2045.2604
    684871.24649   -274803.83246  24217659.3764   24217656.4274
     -2183.9774
  -7908410.64149  -6231200.04347  22761304.6574   22761302.3294
       819.1924
   -130663.531 9                  25364437.071
      2304.578
   3611083.62949   2811443.80548  22201821.2514   22201819.9114
     -1275.9364
